[[{"header":{"parameterUnit":"m.s-1","parameterCategory":1,"la1":31.0,"la2":29.5877,"lo1":-88.7671,"lo2":-86.6584,"dy":0.0162,"dx":0.0185,"nx":115,"ny":88,"refTime":"2023-11-20T18:00:00:Z","depth":0,"parameterNumber":2,"parameterNumberName":"U-component_of_WINDS"},"data":[0.0,0.0,0.0,0.0,0.0,0.0,0.0,0.0,0.0,0.0,0.0,0.0,0.0,0.0,0.0,0.0,0.0,0.0,0.0,0.0,0.0,0.0,0.0,0.0,0.0,0.0,0.0,0.0,0.0,0.0,0.0,0.0,0.0,0.0,0.0,0.0,0.0,0.0,0.0,0.0,0.0,0.0,0.0,0.0,0.0,0.0,0.0,0.0,0.0,0.0,0.0,0.0,0.0,0.0,0.0,0.0,0.0,0.0,0.0,0.0,0.0,0.0,0.0,0.0,0.0,0.0,0.0,0.0,0.0,0.0,0.0,0.0,0.0,0.0,0.0,0.0,0.0,0.0,0.0,0.0,0.0,0.0,0.0,0.0,0.0,0.0,0.0,0.0,0.0,0.0,0.0,0.0,0.0,0.0,0.0,0.0,0.0,0.0,0.0,0.0,0.0,0.0,0.0,0.0,0.0,0.0,0.0,0.0,0.0,0.0,0.0,0.0,0.0,0.0,0.0,0.0,0.0,0.0,0.0,0.0,0.0,0.0,0.0,0.0,0.0,0.0,0.0,0.0,0.0,0.0,0.0,0.0,0.0,0.0,0.0,0.0,0.0,0.0,0.0,0.0,0.0,0.0,0.0,0.0,0.0,0.0,0.0,0.0,0.0,0.0,0.0,0.0,0.0,0.0,0.0,0.0,0.0,0.0,0.0,0.0,0.0,0.0,0.0,0.0,0.0,0.0,0.0,0.0,0.0,0.0,0.0,0.0,0.0,0.0,0.0,0.0,0.0,0.0,0.0,0.0,0.0,0.0,0.0,0.0,0.0,0.0,0.0,0.0,0.0,0.0,0.0,0.0,0.0,0.0,0.0,0.0,0.0,0.0,0.0,0.0,0.0,0.0,0.0,0.0,0.0,0.0,0.0,0.0,0.0,0.0,0.0,0.0,0.0,0.0,0.0,0.0,0.0,0.0,0.0,0.0,0.0,0.0,0.0,0.0,0.0,0.0,0.0,0.0,0.0,0.0,0.0,0.0,0.0,0.0,0.0,0.0,0.0,0.0,0.0,0.0,0.0,0.0,0.0,0.0,0.0,0.0,0.0,0.0,0.0,0.0,0.0,0.0,0.0,0.0,0.0,0.0,0.0,0.0,0.0,0.0,0.0,0.0,0.0,0.0,0.0,0.0,0.0,0.0,0.0,0.0,0.0,0.0,0.0,0.0,0.0,0.0,0.0,0.0,0.0,0.0,0.0,0.0,0.0,0.0,0.0,0.0,0.0,0.0,0.0,0.0,0.0,0.0,0.0,0.0,0.0,0.0,0.0,0.0,0.0,0.0,0.0,0.0,0.0,0.0,0.0,0.0,0.0,0.0,0.0,0.0,0.0,0.0,0.0,0.0,0.0,0.0,0.0,0.0,0.0,0.0,0.0,0.0,0.0,0.0,0.0,0.0,0.0,0.0,0.0,0.0,0.0,0.0,0.0,0.0,0.0,0.0,0.0,0.0,0.0,0.0,0.0,0.0,0.0,0.0,0.0,0.0,0.0,0.0,0.0,0.0,0.0,0.0,0.0,0.0,0.0,0.0,0.0,0.0,0.0,0.0,0.0,0.0,0.0,0.0,0.0,0.0,0.0,0.0,0.0,0.0,0.0,0.0,0.0,0.0,0.0,0.0,0.0,0.0,0.0,0.0,0.0,0.0,0.0,0.0,0.0,0.0,0.0,0.0,0.0,0.0,0.0,0.0,0.0,0.0,0.0,0.0,0.0,0.0,0.0,0.0,0.0,0.0,0.0,0.0,0.0,0.0,0.0,0.0,0.0,0.0,0.0,0.0,0.0,0.0,0.0,0.0,0.0,0.0,0.0,0.0,0.0,0.0,0.0,0.0,0.0,0.0,0.0,0.0,0.0,0.0,0.0,0.0,0.0,0.0,0.0,0.0,0.0,0.0,0.0,0.0,0.0,0.0,0.0,0.0,0.0,0.0,0.0,0.0,0.0,0.0,0.0,0.0,0.0,0.0,0.0,0.0,0.0,0.0,0.0,0.0,0.0,0.0,0.0,0.0,0.0,0.0,0.0,0.0,0.0,0.0,0.0,0.0,0.0,0.0,0.0,0.0,0.0,0.0,0.0,0.0,0.0,0.0,0.0,0.0,0.0,0.0,0.0,0.0,0.0,0.0,0.0,0.0,0.0,0.0,0.0,0.0,0.0,0.0,0.0,0.0,0.0,0.0,0.0,0.0,0.0,0.0,0.0,0.0,0.0,0.0,0.0,0.0,0.0,0.0,0.0,0.0,0.0,0.0,0.0,0.0,0.0,0.0,0.0,0.0,0.0,0.0,0.0,0.0,0.0,0.0,0.0,0.0,0.0,0.0,0.0,0.0,0.0,0.0,0.0,0.0,0.0,0.0,0.0,0.0,0.0,0.0,0.0,0.0,0.0,0.0,0.0,0.0,0.0,0.0,0.0,0.0,0.0,0.0,0.0,0.0,0.0,0.0,0.0,0.0,0.0,0.0,0.0,0.0,0.0,0.0,0.0,0.0,0.0,0.0,0.0,0.0,0.0,0.0,0.0,0.0,0.0,0.0,0.0,0.0,0.0,0.0,0.0,0.0,0.0,0.0,0.0,0.0,0.0,0.0,0.0,0.0,0.0,0.0,0.0,0.0,0.0,0.0,0.0,0.0,0.0,0.0,0.0,0.0,0.0,0.0,0.0,0.0,0.0,0.0,0.0,0.0,0.0,0.0,0.0,0.0,0.0,0.0,0.0,0.0,0.0,0.0,0.0,0.0,0.0,0.0,0.0,0.0,0.0,0.0,0.0,0.0,0.0,0.0,0.0,0.0,0.0,0.0,0.0,0.0,0.0,0.0,0.0,0.0,0.0,0.0,0.0,0.0,0.0,0.0,0.0,0.0,0.0,0.0,0.0,0.0,0.0,0.0,0.0,0.0,0.0,0.0,0.0,0.0,0.0,0.0,0.0,0.0,0.0,0.0,0.0,0.0,0.0,0.0,0.0,0.0,0.0,0.0,0.0,0.0,0.0,0.0,0.0,0.0,0.0,0.0,0.0,0.0,0.0,0.0,0.0,0.0,0.0,0.0,0.0,0.0,0.0,0.0,0.0,0.0,0.0,0.0,0.0,0.0,0.0,0.0,0.0,0.0,0.0,0.0,0.0,0.0,0.0,0.0,0.0,0.0,0.0,0.0,0.0,0.0,0.0,0.0,0.0,0.0,0.0,0.0,0.0,0.0,0.0,0.0,0.0,0.0,0.0,0.0,0.0,0.0,0.0,0.0,0.0,0.0,0.0,0.0,0.0,0.0,0.0,0.0,0.0,0.0,0.0,0.0,0.0,0.0,0.0,0.0,0.0,0.0,0.0,0.0,0.0,0.0,0.0,0.0,0.0,0.0,0.0,0.0,0.0,0.0,0.0,0.0,0.0,0.0,0.0,0.0,0.0,0.0,0.0,0.0,0.0,0.0,0.0,0.0,0.0,0.0,0.0,0.0,0.0,0.0,0.0,0.0,0.0,0.0,0.0,0.0,0.0,0.0,0.0,0.0,0.0,0.0,0.0,0.0,0.0,0.0,0.0,0.0,0.0,0.0,0.0,0.0,0.0,0.0,0.0,0.0,0.0,0.0,0.0,0.0,0.0,0.0,0.0,0.0,0.0,0.0,0.0,0.0,0.0,0.0,0.0,0.0,0.0,0.0,0.0,0.0,0.0,0.0,0.0,0.0,0.0,0.0,0.0,0.0,0.0,0.0,0.0,0.0,0.0,0.0,0.0,0.0,0.0,0.0,0.0,0.0,0.0,0.0,0.0,0.0,0.0,0.0,0.0,0.0,0.0,0.0,0.0,0.0,0.0,0.0,0.0,0.0,0.0,0.0,0.0,0.0,0.0,0.0,0.0,0.0,0.0,0.0,0.0,0.0,0.0,0.0,0.0,0.0,0.0,0.0,0.0,0.0,0.0,0.0,0.0,0.0,0.0,0.0,0.0,0.0,0.0,0.0,0.0,0.0,0.0,0.0,0.0,0.0,0.0,0.0,0.0,0.0,0.0,0.0,0.0,0.0,0.0,0.0,0.0,0.0,0.0,0.0,0.0,0.0,0.0,0.0,0.0,0.0,0.0,0.0,0.0,0.0,0.0,0.0,0.0,0.0,0.0,0.0,0.0,0.0,0.0,0.0,0.0,0.0,0.0,0.0,0.0,0.0,0.0,0.0,0.0,0.0,0.0,0.0,0.0,0.0,0.0,0.0,0.0,0.0,0.0,0.0,0.0,0.0,2.6967,0.0,0.0,0.0,0.0,0.0,0.0,0.0,0.0,0.0,0.0,0.0,0.0,0.0,0.0,0.0,0.0,0.0,0.0,0.0,0.0,0.0,0.0,0.0,0.0,0.0,0.0,0.0,0.0,0.0,0.0,0.0,0.0,0.0,0.0,0.0,0.0,0.0,0.0,0.0,0.0,0.0,0.0,0.0,0.0,0.0,0.0,0.0,0.0,0.0,0.0,0.0,0.0,0.0,0.0,0.0,0.0,0.0,0.0,0.0,0.0,0.0,0.0,0.0,0.0,0.0,0.0,0.0,0.0,0.0,0.0,0.0,0.0,0.0,0.0,0.0,0.0,0.0,0.0,0.0,0.0,0.0,0.0,0.0,0.0,0.0,0.0,0.0,0.0,0.0,0.0,0.0,0.0,0.0,0.0,0.0,0.0,0.0,0.0,0.0,0.0,0.0,0.0,0.0,0.0,0.0,0.0,0.0,0.0,0.0,0.0,3.0209,3.0193,3.0219,2.9606,2.8374,0.0,0.0,0.0,0.0,0.0,0.0,0.0,0.0,0.0,0.0,0.0,0.0,0.0,0.0,0.0,0.0,0.0,0.0,0.0,0.0,0.0,0.0,0.0,0.0,0.0,0.0,0.0,0.0,0.0,0.0,0.0,0.0,0.0,0.0,0.0,0.0,0.0,0.0,0.0,0.0,0.0,0.0,0.0,0.0,0.0,0.0,0.0,0.0,0.0,0.0,0.0,0.0,0.0,0.0,0.0,0.0,0.0,0.0,0.0,0.0,0.0,0.0,0.0,0.0,0.0,0.0,0.0,0.0,0.0,0.0,0.0,0.0,0.0,0.0,0.0,0.0,0.0,0.0,0.0,0.0,0.0,0.0,0.0,0.0,0.0,0.0,0.0,0.0,0.0,0.0,0.0,0.0,0.0,0.0,0.0,0.0,0.0,0.0,0.0,0.0,0.0,0.0,0.0,0.0,0.0,0.0,0.0,0.0,0.0,0.0,0.0,0.0,3.0802,3.0287,2.923,0.0,0.0,0.0,0.0,0.0,0.0,0.0,0.0,0.0,0.0,0.0,0.0,0.0,0.0,0.0,0.0,0.0,0.0,0.0,0.0,0.0,0.0,0.0,0.0,0.0,0.0,0.0,0.0,0.0,0.0,0.0,0.0,0.0,0.0,0.0,0.0,0.0,0.0,0.0,0.0,0.0,0.0,0.0,0.0,0.0,0.0,0.0,0.0,0.0,0.0,0.0,0.0,0.0,0.0,0.0,0.0,0.0,0.0,0.0,0.0,0.0,0.0,0.0,0.0,0.0,0.0,0.0,0.0,0.0,0.0,0.0,0.0,0.0,0.0,0.0,0.0,0.0,0.0,0.0,0.0,0.0,0.0,0.0,0.0,0.0,0.0,0.0,0.0,0.0,0.0,0.0,0.0,0.0,0.0,0.0,0.0,0.0,0.0,0.0,0.0,0.0,0.0,0.0,0.0,0.0,0.0,0.0,0.0,0.0,0.0,3.0792,3.0799,3.081,0.0,2.8416,0.0,0.0,0.0,0.0,0.0,0.0,0.0,0.0,0.0,0.0,0.0,0.0,0.0,0.0,0.0,0.0,0.0,0.0,0.0,0.0,0.0,0.0,0.0,0.0,0.0,0.0,0.0,0.0,0.0,0.0,0.0,0.0,0.0,0.0,0.0,0.0,0.0,0.0,0.0,0.0,0.0,0.0,0.0,0.0,0.0,0.0,0.0,0.0,0.0,0.0,0.0,0.0,0.0,0.0,0.0,0.0,0.0,0.0,0.0,0.0,0.0,0.0,0.0,0.0,0.0,0.0,0.0,0.0,0.0,0.0,0.0,0.0,0.0,0.0,0.0,0.0,0.0,0.0,0.0,0.0,0.0,0.0,0.0,0.0,0.0,0.0,0.0,0.0,0.0,0.0,0.0,0.0,0.0,0.0,0.0,0.0,0.0,0.0,0.0,0.0,0.0,0.0,0.0,0.0,0.0,0.0,0.0,0.0,0.0,0.0,3.1094,3.1562,3.1573,3.0543,0.0,0.0,0.0,0.0,0.0,0.0,0.0,0.0,0.0,0.0,0.0,0.0,0.0,0.0,0.0,0.0,0.0,0.0,0.0,0.0,0.0,0.0,0.0,0.0,0.0,0.0,0.0,0.0,0.0,0.0,0.0,0.0,0.0,0.0,0.0,0.0,0.0,0.0,0.0,0.0,0.0,0.0,0.0,0.0,0.0,0.0,0.0,0.0,0.0,0.0,0.0,0.0,0.0,0.0,0.0,0.0,0.0,0.0,0.0,0.0,0.0,0.0,0.0,0.0,0.0,0.0,0.0,0.0,0.0,0.0,0.0,0.0,0.0,0.0,0.0,0.0,0.0,0.0,0.0,0.0,0.0,0.0,0.0,0.0,0.0,0.0,0.0,0.0,0.0,0.0,0.0,0.0,0.0,0.0,0.0,0.0,0.0,0.0,0.0,0.0,0.0,0.0,0.0,0.0,0.0,0.0,0.0,0.0,0.0,0.0,3.1103,3.1519,3.2067,3.2109,3.0889,2.8374,0.0,0.0,0.0,0.0,0.0,0.0,0.0,0.0,0.0,0.0,0.0,0.0,0.0,0.0,0.0,0.0,0.0,0.0,0.0,0.0,0.0,0.0,0.0,0.0,0.0,0.0,0.0,0.0,0.0,0.0,0.0,0.0,0.0,0.0,0.0,0.0,0.0,0.0,0.0,0.0,0.0,0.0,0.0,0.0,0.0,0.0,0.0,0.0,0.0,0.0,0.0,0.0,0.0,0.0,0.0,0.0,0.0,0.0,0.0,0.0,0.0,0.0,0.0,0.0,0.0,0.0,0.0,0.0,0.0,0.0,0.0,0.0,0.0,0.0,0.0,0.0,0.0,0.0,0.0,0.0,0.0,0.0,0.0,0.0,0.0,0.0,0.0,0.0,0.0,0.0,0.0,0.0,0.0,0.0,0.0,0.0,0.0,0.0,0.0,0.0,0.0,0.0,0.0,0.0,0.0,0.0,0.0,0.0,3.0849,3.1619,3.2079,3.2126,3.2109,3.0918,0.0,0.0,0.0,0.0,0.0,0.0,0.0,0.0,0.0,0.0,0.0,0.0,0.0,0.0,0.0,0.0,0.0,0.0,0.0,0.0,0.0,0.0,0.0,0.0,0.0,0.0,0.0,0.0,0.0,0.0,0.0,0.0,0.0,0.0,0.0,0.0,0.0,0.0,0.0,0.0,0.0,0.0,0.0,0.0,0.0,0.0,0.0,0.0,0.0,0.0,0.0,0.0,0.0,0.0,0.0,0.0,0.0,0.0,0.0,0.0,0.0,0.0,0.0,0.0,0.0,0.0,0.0,0.0,0.0,0.0,0.0,0.0,0.0,0.0,0.0,0.0,0.0,0.0,0.0,0.0,0.0,0.0,0.0,0.0,0.0,0.0,0.0,0.0,0.0,0.0,0.0,0.0,0.0,0.0,0.0,0.0,0.0,0.0,0.0,0.0,0.0,0.0,0.0,0.0,0.0,0.0,0.0,0.0,0.0,3.1659,3.3035,3.3492,3.2955,3.2925,3.1737,0.0,0.0,0.0,0.0,0.0,0.0,0.0,0.0,0.0,0.0,0.0,0.0,0.0,0.0,0.0,0.0,0.0,0.0,0.0,0.0,0.0,0.0,0.0,0.0,0.0,0.0,0.0,0.0,0.0,0.0,0.0,0.0,0.0,0.0,0.0,0.0,0.0,0.0,0.0,0.0,0.0,0.0,0.0,0.0,0.0,0.0,0.0,0.0,0.0,0.0,0.0,0.0,0.0,0.0,0.0,0.0,0.0,0.0,0.0,0.0,0.0,0.0,0.0,0.0,0.0,0.0,0.0,0.0,0.0,0.0,0.0,0.0,0.0,0.0,0.0,0.0,0.0,0.0,0.0,0.0,0.0,0.0,0.0,0.0,0.0,0.0,0.0,0.0,0.0,0.0,0.0,0.0,0.0,0.0,0.0,0.0,0.0,0.0,0.0,0.0,0.0,0.0,0.0,0.0,0.0,0.0,0.0,0.0,0.0,3.2514,0.0,3.442,3.3841,3.3541,3.2219,0.0,0.0,0.0,0.0,0.0,0.0,0.0,0.0,0.0,0.0,0.0,0.0,0.0,0.0,0.0,0.0,0.0,0.0,0.0,0.0,0.0,0.0,0.0,0.0,0.0,0.0,0.0,0.0,0.0,0.0,0.0,0.0,0.0,0.0,0.0,0.0,0.0,0.0,0.0,0.0,0.0,0.0,0.0,0.0,0.0,0.0,0.0,0.0,0.0,0.0,0.0,0.0,0.0,0.0,0.0,0.0,0.0,0.0,0.0,0.0,0.0,0.0,0.0,0.0,0.0,0.0,0.0,0.0,0.0,0.0,0.0,0.0,0.0,0.0,0.0,0.0,0.0,0.0,0.0,0.0,0.0,0.0,0.0,0.0,0.0,0.0,0.0,0.0,0.0,0.0,0.0,0.0,0.0,0.0,0.0,0.0,0.0,0.0,0.0,0.0,0.0,0.0,0.0,0.0,0.0,0.0,0.0,0.0,3.1675,3.3337,3.425,3.4741,3.4693,3.388,3.2226,0.0,0.0,0.0,0.0,0.0,0.0,0.0,0.0,0.0,0.0,0.0,0.0,0.0,0.0,0.0,0.0,0.0,0.0,0.0,0.0,0.0,0.0,0.0,0.0,0.0,0.0,0.0,0.0,0.0,0.0,0.0,0.0,0.0,0.0,0.0,0.0,0.0,0.0,0.0,0.0,0.0,0.0,0.0,0.0,0.0,0.0,0.0,0.0,0.0,0.0,0.0,0.0,0.0,0.0,0.0,0.0,0.0,0.0,0.0,0.0,0.0,0.0,0.0,0.0,0.0,0.0,0.0,0.0,0.0,0.0,0.0,0.0,0.0,0.0,0.0,0.0,0.0,0.0,0.0,0.0,0.0,0.0,0.0,0.0,0.0,0.0,0.0,0.0,0.0,0.0,0.0,0.0,0.0,0.0,0.0,0.0,0.0,0.0,0.0,0.0,0.0,0.0,0.0,0.0,0.0,0.0,0.0,0.0,0.0,3.3403,3.4803,3.5552,3.5552,3.4167,3.2768,0.0,0.0,0.0,0.0,0.0,0.0,0.0,0.0,0.0,0.0,0.0,0.0,0.0,0.0,0.0,0.0,0.0,0.0,0.0,0.0,0.0,0.0,0.0,0.0,0.0,0.0,0.0,0.0,0.0,0.0,0.0,0.0,0.0,0.0,0.0,0.0,0.0,0.0,0.0,0.0,0.0,0.0,0.0,0.0,0.0,0.0,0.0,0.0,0.0,0.0,0.0,0.0,0.0,0.0,0.0,0.0,0.0,0.0,0.0,0.0,0.0,0.0,0.0,0.0,0.0,0.0,0.0,0.0,0.0,0.0,0.0,0.0,0.0,0.0,0.0,0.0,0.0,0.0,0.0,0.0,0.0,0.0,0.0,0.0,0.0,0.0,0.0,0.0,0.0,0.0,0.0,0.0,0.0,0.0,0.0,0.0,0.0,0.0,0.0,0.0,0.0,0.0,0.0,0.0,0.0,0.0,0.0,0.0,0.0,3.3887,3.5183,3.5919,3.5951,3.4296,3.2996,3.2087,0.0,0.0,0.0,0.0,0.0,0.0,0.0,0.0,0.0,0.0,0.0,0.0,0.0,0.0,0.0,0.0,0.0,0.0,0.0,0.0,0.0,0.0,0.0,0.0,0.0,0.0,0.0,0.0,0.0,0.0,0.0,0.0,0.0,0.0,0.0,0.0,0.0,0.0,0.0,0.0,0.0,0.0,0.0,0.0,0.0,0.0,0.0,0.0,0.0,0.0,0.0,0.0,0.0,0.0,0.0,0.0,0.0,0.0,0.0,0.0,0.0,0.0,0.0,0.0,0.0,0.0,0.0,0.0,0.0,0.0,0.0,0.0,0.0,0.0,0.0,0.0,0.0,0.0,0.0,0.0,0.0,0.0,0.0,0.0,0.0,0.0,0.0,0.0,0.0,0.0,0.0,0.0,0.0,0.0,0.0,0.0,0.0,0.0,0.0,0.0,0.0,0.0,0.0,0.0,0.0,0.0,0.0,0.0,3.4658,3.5485,3.5885,3.589,3.4343,3.3044,0.0,0.0,0.0,0.0,0.0,0.0,0.0,0.0,0.0,0.0,0.0,0.0,0.0,0.0,0.0,0.0,0.0,0.0,0.0,0.0,0.0,0.0,0.0,0.0,0.0,0.0,0.0,0.0,0.0,0.0,0.0,0.0,0.0,0.0,0.0,0.0,0.0,0.0,0.0,0.0,0.0,0.0,0.0,0.0,0.0,0.0,0.0,0.0,0.0,0.0,0.0,0.0,0.0,0.0,0.0,0.0,0.0,0.0,0.0,0.0,0.0,0.0,0.0,0.0,0.0,0.0,0.0,0.0,0.0,0.0,0.0,0.0,0.0,0.0,0.0,0.0,0.0,0.0,0.0,0.0,0.0,0.0,0.0,0.0,0.0,0.0,0.0,0.0,0.0,0.0,0.0,0.0,0.0,0.0,0.0,0.0,0.0,0.0,0.0,0.0,0.0,0.0,0.0,0.0,0.0,0.0,0.0,0.0,0.0,3.5496,3.5788,3.5891,3.5875,3.4861,3.3906,0.0,0.0,0.0,0.0,0.0,0.0,0.0,0.0,0.0,0.0,0.0,0.0,0.0,0.0,0.0,0.0,0.0,0.0,0.0,0.0,0.0,0.0,0.0,0.0,0.0,0.0,0.0,0.0,0.0,0.0,0.0,0.0,0.0,0.0,0.0,0.0,0.0,0.0,0.0,0.0,0.0,0.0,0.0,0.0,0.0,0.0,0.0,0.0,0.0,0.0,0.0,0.0,0.0,0.0,0.0,0.0,0.0,0.0,0.0,0.0,0.0,0.0,0.0,0.0,0.0,0.0,0.0,0.0,0.0,0.0,0.0,0.0,0.0,0.0,0.0,0.0,0.0,0.0,0.0,0.0,0.0,0.0,0.0,0.0,0.0,0.0,0.0,0.0,0.0,0.0,0.0,0.0,0.0,0.0,0.0,0.0,0.0,0.0,0.0,0.0,0.0,0.0,0.0,0.0,0.0,0.0,0.0,0.0,3.4121,3.5801,3.5852,3.5859,3.5859,3.5054,3.4218,0.0,0.0,0.0,0.0,0.0,0.0,0.0,0.0,0.0,0.0,0.0,0.0,0.0,0.0,0.0,0.0,0.0,0.0,0.0,0.0,0.0,0.0,0.0,0.0,0.0,0.0,0.0,0.0,0.0,0.0,0.0,0.0,0.0,0.0,0.0,0.0,0.0,0.0,0.0,0.0,0.0,0.0,0.0,0.0,0.0,0.0,0.0,0.0,0.0,0.0,0.0,0.0,0.0,0.0,0.0,0.0,0.0,0.0,0.0,0.0,0.0,0.0,0.0,0.0,0.0,0.0,0.0,0.0,0.0,0.0,0.0,0.0,0.0,0.0,0.0,0.0,0.0,0.0,0.0,0.0,0.0,0.0,0.0,0.0,0.0,0.0,0.0,0.0,0.0,0.0,0.0,0.0,0.0,0.0,0.0,0.0,0.0,0.0,0.0,0.0,0.0,0.0,0.0,0.0,0.0,0.0,0.0,0.0,3.4212,3.5745,3.5803,3.5803,3.5784,3.5107,3.4319,0.0,0.0,0.0,0.0,0.0,0.0,0.0,0.0,0.0,0.0,0.0,0.0,0.0,0.0,0.0,0.0,0.0,0.0,0.0,0.0,0.0,0.0,0.0,0.0,0.0,0.0,0.0,0.0,0.0,0.0,0.0,0.0,0.0,0.0,0.0,0.0,0.0,0.0,0.0,0.0,0.0,0.0,0.0,0.0,0.0,0.0,0.0,0.0,0.0,0.0,0.0,0.0,0.0,0.0,0.0,0.0,0.0,0.0,0.0,0.0,0.0,0.0,0.0,0.0,0.0,0.0,0.0,0.0,0.0,0.0,0.0,0.0,0.0,0.0,0.0,0.0,0.0,0.0,0.0,0.0,0.0,0.0,0.0,0.0,0.0,0.0,0.0,0.0,0.0,0.0,0.0,0.0,0.0,0.0,0.0,0.0,0.0,0.0,0.0,0.0,0.0,0.0,0.0,0.0,0.0,0.0,0.0,0.0,3.4782,3.5764,3.5788,3.5788,3.5803,3.5677,3.4905,0.0,0.0,0.0,0.0,0.0,0.0,0.0,0.0,0.0,0.0,0.0,0.0,0.0,0.0,0.0,0.0,0.0,0.0,0.0,0.0,0.0,0.0,0.0,0.0,0.0,0.0,0.0,0.0,0.0,0.0,0.0,0.0,0.0,0.0,0.0,0.0,0.0,0.0,0.0,0.0,0.0,0.0,0.0,0.0,0.0,0.0,0.0,0.0,3.5127,0.0,0.0,0.0,0.0,0.0,0.0,0.0,0.0,0.0,0.0,0.0,0.0,0.0,0.0,0.0,0.0,0.0,0.0,0.0,0.0,0.0,0.0,0.0,0.0,0.0,0.0,0.0,0.0,0.0,0.0,0.0,0.0,0.0,0.0,0.0,0.0,0.0,0.0,0.0,0.0,0.0,0.0,0.0,0.0,0.0,0.0,0.0,0.0,0.0,0.0,0.0,0.0,0.0,0.0,0.0,0.0,0.0,0.0,0.0,3.4989,3.5757,3.5799,3.5799,3.5795,3.5864,3.5094,0.0,0.0,0.0,0.0,0.0,0.0,0.0,0.0,0.0,0.0,0.0,0.0,0.0,0.0,0.0,0.0,0.0,0.0,0.0,0.0,0.0,0.0,0.0,0.0,0.0,0.0,0.0,0.0,0.0,0.0,0.0,0.0,0.0,0.0,0.0,0.0,0.0,0.0,0.0,0.0,0.0,0.0,0.0,0.0,0.0,0.0,0.0,0.0,0.0,0.0,0.0,0.0,0.0,0.0,0.0,0.0,0.0,0.0,0.0,0.0,0.0,0.0,0.0,0.0,0.0,0.0,0.0,0.0,0.0,0.0,0.0,0.0,0.0,0.0,0.0,0.0,0.0,0.0,0.0,0.0,0.0,0.0,0.0,0.0,0.0,0.0,0.0,0.0,0.0,0.0,0.0,0.0,0.0,0.0,0.0,0.0,0.0,0.0,0.0,0.0,0.0,0.0,0.0,0.0,0.0,0.0,0.0,3.427,3.5118,3.576,3.5791,3.5791,3.5799,3.5857,3.5087,3.3387,0.0,0.0,0.0,0.0,0.0,0.0,0.0,0.0,0.0,0.0,0.0,0.0,0.0,0.0,0.0,0.0,0.0,0.0,0.0,0.0,0.0,0.0,0.0,0.0,0.0,0.0,0.0,0.0,0.0,0.0,0.0,0.0,0.0,0.0,0.0,0.0,0.0,0.0,3.1143,3.4062,0.0,0.0,0.0,0.0,0.0,0.0,0.0,0.0,3.735,0.0,0.0,0.0,0.0,0.0,0.0,0.0,0.0,0.0,0.0,0.0,0.0,0.0,0.0,0.0,0.0,0.0,0.0,0.0,0.0,0.0,0.0,0.0,0.0,0.0,0.0,0.0,0.0,0.0,0.0,0.0,0.0,0.0,0.0,0.0,0.0,0.0,0.0,0.0,0.0,0.0,0.0,0.0,0.0,0.0,0.0,0.0,0.0,0.0,0.0,0.0,0.0,0.0,0.0,0.0,0.0,3.3303,3.4819,3.5667,3.5799,3.5791,3.5791,3.5799,3.5857,3.5081,3.3407,0.0,0.0,0.0,0.0,0.0,0.0,0.0,0.0,0.0,0.0,0.0,0.0,0.0,0.0,0.0,0.0,0.0,0.0,0.0,0.0,0.0,0.0,0.0,0.0,0.0,0.0,0.0,0.0,0.0,0.0,0.0,0.0,0.0,0.0,0.0,0.0,0.0,0.0,0.0,3.5708,3.7344,0.0,0.0,0.0,0.0,0.0,0.0,0.0,0.0,3.8097,0.0,0.0,0.0,0.0,0.0,0.0,0.0,0.0,0.0,0.0,0.0,0.0,0.0,0.0,0.0,0.0,0.0,0.0,0.0,0.0,0.0,0.0,0.0,0.0,0.0,0.0,0.0,0.0,0.0,0.0,0.0,0.0,0.0,0.0,0.0,0.0,0.0,0.0,0.0,0.0,0.0,0.0,0.0,0.0,0.0,0.0,0.0,0.0,0.0,0.0,0.0,0.0,0.0,0.0,0.0,3.3336,3.4936,3.5782,3.5745,3.5793,3.5801,3.5801,3.5857,3.51,0.0,0.0,0.0,0.0,0.0,0.0,0.0,0.0,0.0,0.0,0.0,0.0,0.0,0.0,0.0,0.0,0.0,0.0,0.0,0.0,0.0,0.0,0.0,0.0,0.0,0.0,0.0,0.0,0.0,0.0,0.0,0.0,0.0,0.0,0.0,0.0,0.0,0.0,0.0,0.0,3.7058,3.8344,3.9669,0.0,0.0,0.0,0.0,0.0,0.0,3.9117,3.9064,0.0,0.0,0.0,0.0,0.0,0.0,0.0,0.0,0.0,0.0,0.0,0.0,0.0,0.0,0.0,0.0,0.0,0.0,0.0,0.0,0.0,0.0,0.0,0.0,0.0,0.0,0.0,0.0,0.0,0.0,0.0,0.0,0.0,0.0,0.0,0.0,0.0,0.0,0.0,0.0,0.0,0.0,0.0,0.0,0.0,0.0,0.0,0.0,0.0,0.0,0.0,0.0,0.0,0.0,0.0,3.3266,3.4893,3.5747,3.5708,3.5766,3.5794,3.5803,3.5862,3.5074,0.0,0.0,0.0,0.0,0.0,0.0,0.0,0.0,0.0,0.0,0.0,0.0,0.0,0.0,0.0,0.0,0.0,0.0,0.0,0.0,0.0,0.0,0.0,0.0,0.0,0.0,0.0,0.0,0.0,0.0,0.0,0.0,0.0,0.0,0.0,0.0,0.0,0.0,0.0,0.0,0.0,3.9396,4.1091,4.076,0.0,0.0,0.0,0.0,4.0292,4.026,0.0,0.0,0.0,0.0,0.0,0.0,0.0,0.0,0.0,0.0,0.0,0.0,0.0,0.0,0.0,0.0,0.0,0.0,0.0,0.0,0.0,0.0,0.0,0.0,0.0,0.0,0.0,0.0,0.0,0.0,0.0,0.0,0.0,0.0,0.0,0.0,0.0,0.0,0.0,0.0,0.0,0.0,0.0,0.0,0.0,0.0,0.0,0.0,0.0,0.0,0.0,0.0,0.0,0.0,0.0,0.0,3.3266,3.4855,3.5708,3.5708,3.5708,3.5737,3.5803,3.5791,3.5018,0.0,0.0,0.0,0.0,0.0,0.0,0.0,0.0,0.0,0.0,0.0,0.0,0.0,0.0,0.0,0.0,0.0,0.0,0.0,0.0,0.0,0.0,0.0,0.0,0.0,0.0,0.0,0.0,0.0,0.0,0.0,0.0,0.0,0.0,0.0,0.0,0.0,0.0,0.0,0.0,0.0,4.0273,4.1929,4.2065,4.2007,0.0,0.0,4.2026,4.2007,4.202,0.0,0.0,0.0,0.0,0.0,0.0,0.0,0.0,0.0,0.0,0.0,0.0,0.0,0.0,0.0,0.0,0.0,0.0,0.0,0.0,0.0,0.0,0.0,0.0,0.0,0.0,0.0,0.0,0.0,0.0,0.0,0.0,0.0,0.0,0.0,0.0,0.0,0.0,0.0,0.0,0.0,0.0,0.0,0.0,0.0,0.0,0.0,0.0,0.0,0.0,0.0,0.0,0.0,0.0,0.0,3.3334,3.3845,3.5035,3.5654,3.5654,3.5648,3.5649,3.5679,3.5765,3.5216,0.0,0.0,0.0,0.0,0.0,0.0,0.0,0.0,0.0,0.0,0.0,0.0,0.0,0.0,0.0,0.0,0.0,0.0,0.0,0.0,0.0,0.0,0.0,0.0,0.0,0.0,0.0,0.0,0.0,0.0,0.0,0.0,0.0,0.0,0.0,0.0,0.0,0.0,0.0,0.0,0.0,0.0,4.2143,4.2728,0.0,0.0,0.0,4.3033,4.3039,0.0,0.0,0.0,0.0,0.0,0.0,0.0,0.0,0.0,0.0,0.0,0.0,0.0,0.0,0.0,0.0,0.0,0.0,0.0,0.0,0.0,0.0,0.0,0.0,0.0,0.0,0.0,0.0,0.0,0.0,0.0,0.0,0.0,0.0,0.0,0.0,0.0,0.0,0.0,0.0,0.0,0.0,0.0,0.0,0.0,0.0,0.0,0.0,0.0,0.0,0.0,0.0,0.0,0.0,0.0,0.0,0.0,3.4287,3.5148,3.5623,3.5623,3.562,3.5604,3.5615,3.5699,0.0,0.0,0.0,0.0,0.0,0.0,0.0,0.0,0.0,0.0,0.0,0.0,0.0,0.0,0.0,0.0,0.0,0.0,0.0,0.0,0.0,0.0,0.0,0.0,0.0,0.0,0.0,2.898,0.0,0.0,0.0,0.0,0.0,0.0,0.0,0.0,0.0,0.0,0.0,0.0,0.0,0.0,4.1727,4.2545,4.3383,4.391,0.0,0.0,4.3914,4.3933,4.3245,4.2694,0.0,0.0,0.0,0.0,0.0,0.0,0.0,0.0,0.0,0.0,0.0,0.0,0.0,0.0,0.0,0.0,0.0,0.0,0.0,0.0,0.0,0.0,0.0,0.0,0.0,0.0,0.0,0.0,0.0,0.0,0.0,0.0,0.0,0.0,0.0,0.0,0.0,0.0,0.0,0.0,0.0,0.0,0.0,0.0,0.0,0.0,0.0,0.0,0.0,0.0,0.0,0.0,0.0,0.0,0.0,3.4287,3.5167,3.5591,3.5623,3.5623,3.5616,3.5612,3.5626,3.5262,0.0,0.0,0.0,0.0,0.0,0.0,0.0,0.0,0.0,0.0,0.0,0.0,0.0,0.0,0.0,0.0,0.0,0.0,0.0,0.0,0.0,0.0,0.0,0.0,0.0,0.0,0.0,0.0,0.0,0.0,0.0,0.0,0.0,0.0,0.0,0.0,0.0,0.0,0.0,0.0,0.0,4.2632,4.349,4.4295,4.4821,0.0,0.0,4.4802,4.4821,4.407,4.3518,4.3518,0.0,0.0,0.0,0.0,0.0,0.0,0.0,0.0,0.0,0.0,0.0,0.0,0.0,0.0,0.0,0.0,0.0,0.0,0.0,0.0,0.0,0.0,0.0,0.0,0.0,0.0,0.0,0.0,0.0,0.0,0.0,0.0,0.0,0.0,0.0,0.0,0.0,0.0,0.0,0.0,0.0,0.0,0.0,0.0,0.0,0.0,0.0,0.0,0.0,0.0,0.0,0.0,0.0,3.3563,3.4889,3.5249,3.5422,3.5402,3.5449,3.5495,3.5522,3.5526,3.543,0.0,0.0,0.0,0.0,0.0,0.0,0.0,0.0,0.0,0.0,0.0,0.0,0.0,0.0,0.0,0.0,0.0,0.0,0.0,0.0,0.0,0.0,0.0,0.0,0.0,0.0,0.0,0.0,3.1816,3.2424,3.245,0.0,0.0,0.0,0.0,0.0,0.0,0.0,0.0,0.0,0.0,4.3495,4.4334,4.5153,0.0,0.0,4.5699,4.5699,4.5699,4.4967,4.4395,4.4395,4.341,0.0,0.0,0.0,0.0,0.0,0.0,0.0,0.0,0.0,0.0,0.0,0.0,0.0,0.0,0.0,0.0,0.0,0.0,0.0,0.0,0.0,0.0,0.0,0.0,0.0,0.0,0.0,0.0,0.0,0.0,0.0,0.0,0.0,0.0,0.0,0.0,0.0,0.0,0.0,0.0,0.0,0.0,0.0,0.0,0.0,0.0,0.0,0.0,0.0,0.0,0.0,0.0,3.3868,3.5285,3.5285,3.527,3.527,3.5335,3.5383,3.5432,3.5463,3.5502,0.0,0.0,0.0,0.0,0.0,0.0,0.0,0.0,0.0,0.0,0.0,0.0,0.0,0.0,0.0,0.0,0.0,0.0,0.0,0.0,0.0,0.0,0.0,0.0,0.0,0.0,0.0,0.0,3.267,3.3509,3.3743,0.0,0.0,0.0,0.0,0.0,0.0,0.0,0.0,0.0,0.0,4.3992,4.4816,4.5655,4.624,4.624,4.624,4.6236,4.6236,4.5479,4.4883,4.4902,0.0,0.0,0.0,0.0,0.0,0.0,0.0,0.0,0.0,0.0,0.0,0.0,0.0,0.0,0.0,0.0,0.0,0.0,0.0,0.0,0.0,0.0,0.0,0.0,0.0,0.0,0.0,0.0,0.0,0.0,3.103,0.0,0.0,0.0,0.0,0.0,0.0,0.0,0.0,0.0,0.0,0.0,0.0,0.0,0.0,0.0,0.0,0.0,0.0,0.0,0.0,0.0,0.0,3.4385,3.5293,3.5226,3.5209,3.5209,3.5261,3.5293,3.5293,3.5369,3.5435,3.5477,0.0,0.0,0.0,0.0,0.0,0.0,0.0,0.0,0.0,0.0,0.0,0.0,0.0,0.0,0.0,0.0,0.0,0.0,0.0,0.0,0.0,0.0,0.0,0.0,0.0,0.0,3.3275,3.3392,3.3762,0.0,0.0,0.0,0.0,0.0,0.0,0.0,0.0,0.0,0.0,4.2602,4.4013,4.4894,4.5753,4.63,4.63,4.63,4.6296,4.6303,4.5514,4.4899,0.0,0.0,0.0,0.0,0.0,0.0,0.0,0.0,0.0,0.0,0.0,0.0,0.0,0.0,0.0,0.0,0.0,0.0,0.0,0.0,0.0,0.0,0.0,0.0,0.0,0.0,0.0,3.299,3.2974,0.0,0.0,0.0,0.0,0.0,0.0,0.0,0.0,0.0,0.0,0.0,3.6493,3.6553,0.0,0.0,0.0,0.0,0.0,0.0,0.0,0.0,0.0,0.0,0.0,0.0,3.4287,3.5105,3.5145,3.5126,3.5145,3.5145,3.5179,3.5157,3.5242,3.5066,3.4635,0.0,0.0,0.0,0.0,0.0,0.0,0.0,0.0,0.0,0.0,0.0,0.0,0.0,0.0,0.0,0.0,0.0,0.0,0.0,0.0,0.0,0.0,0.0,0.0,0.0,3.4168,0.0,0.0,0.0,0.0,0.0,0.0,0.0,0.0,0.0,0.0,0.0,4.1437,4.3413,4.4199,4.4881,4.5735,4.6102,4.6293,0.0,0.0,0.0,0.0,0.0,0.0,0.0,0.0,0.0,0.0,0.0,0.0,0.0,0.0,4.669,4.5532,4.4863,4.4473,4.4473,0.0,0.0,0.0,0.0,0.0,0.0,0.0,0.0,0.0,0.0,0.0,0.0,0.0,0.0,3.4787,0.0,3.3733,0.0,0.0,0.0,0.0,0.0,0.0,0.0,0.0,3.6144,3.6839,3.7668,3.7687,3.7841,0.0,3.7841,3.6946,0.0,0.0,0.0,0.0,0.0,0.0,0.0,0.0,3.4469,3.5001,3.5001,3.5002,3.5039,3.5039,3.5056,3.5072,3.516,3.5005,3.462,3.4687,3.4345,0.0,0.0,0.0,0.0,0.0,0.0,0.0,0.0,0.0,0.0,0.0,0.0,0.0,0.0,0.0,0.0,0.0,0.0,0.0,0.0,0.0,0.0,0.0,3.5344,0.0,0.0,0.0,0.0,0.0,0.0,0.0,0.0,0.0,4.105,4.1593,4.2724,4.4696,4.4959,4.5286,4.6172,0.0,0.0,0.0,0.0,0.0,0.0,0.0,4.624,4.6211,4.6928,4.7605,4.7903,4.8683,4.9254,4.9265,0.0,0.0,4.7435,4.6635,4.6172,4.586,4.5382,4.4933,4.4626,4.4573,4.4577,0.0,0.0,0.0,0.0,0.0,0.0,0.0,0.0,3.7543,3.7466,0.0,3.5938,0.0,0.0,0.0,0.0,0.0,3.5673,0.0,0.0,3.7171,3.76,3.839,3.8446,3.886,3.9618,3.8893,3.8524,3.8392,3.6988,0.0,0.0,0.0,0.0,0.0,0.0,3.4908,3.4908,3.483,3.4829,3.4887,3.4908,3.4927,3.5001,3.5107,3.5258,3.5379,3.5422,3.5136,3.4378,3.4348,0.0,0.0,0.0,0.0,0.0,0.0,0.0,0.0,0.0,0.0,0.0,0.0,0.0,0.0,0.0,0.0,0.0,0.0,0.0,0.0,3.5421,0.0,0.0,0.0,0.0,0.0,0.0,0.0,0.0,0.0,0.0,4.122,4.2597,4.3955,4.4838,0.0,0.0,0.0,0.0,4.6306,4.6288,4.6295,4.6303,4.6303,4.6303,4.6257,4.6206,0.0,0.0,4.863,4.9494,5.0011,5.0048,5.0617,5.0781,4.9054,4.8669,4.8396,4.7621,4.7328,4.7128,4.6406,4.6026,4.608,3.9716,0.0,0.0,0.0,0.0,3.893,3.9287,3.9606,3.875,3.8354,3.8155,3.6939,0.0,0.0,0.0,0.0,0.0,0.0,3.7169,3.7938,3.7847,3.8272,3.9121,3.9121,3.9252,3.9476,3.9283,3.9201,3.918,3.8229,3.7244,3.6157,0.0,0.0,0.0,0.0,3.4888,3.481,3.4827,3.4827,3.4809,3.4887,3.4927,3.5001,3.5073,3.516,3.5258,3.5324,3.5316,3.5156,3.4622,0.0,0.0,0.0,0.0,0.0,0.0,0.0,0.0,0.0,0.0,0.0,0.0,0.0,0.0,0.0,0.0,0.0,0.0,0.0,3.5449,3.6268,3.6748,0.0,0.0,0.0,0.0,0.0,0.0,0.0,0.0,0.0,4.3548,4.4103,4.477,0.0,0.0,4.5878,4.6192,4.6238,4.6234,4.6303,4.6289,0.0,4.6306,4.6303,4.6301,4.6278,4.6983,4.7846,4.8666,4.9018,4.9174,4.9177,4.9411,4.9449,4.9016,4.8873,4.8555,4.7774,4.709,4.6588,4.634,4.6264,4.6264,4.1189,4.036,3.9878,3.9661,3.975,4.0147,4.0453,4.07,3.982,3.936,3.9142,3.7645,3.7054,3.7169,3.6988,0.0,0.0,0.0,3.7797,3.8518,3.8149,3.8279,3.8753,3.8454,3.835,3.8357,3.8452,3.8484,3.8496,3.8351,3.7713,3.654,0.0,0.0,3.5867,3.583,3.5618,3.5237,3.5216,3.5105,3.4768,3.4848,3.4907,3.4945,3.502,3.5091,3.5174,3.5261,3.5324,3.5412,3.4993,3.4597,0.0,0.0,0.0,0.0,0.0,0.0,0.0,0.0,0.0,0.0,0.0,3.3312,0.0,0.0,0.0,0.0,3.5435,3.5833,3.6346,3.7124,0.0,0.0,0.0,0.0,0.0,0.0,0.0,4.2489,4.3078,4.3812,4.5001,4.5204,4.5433,4.5979,4.6056,4.6083,4.6144,0.0,4.6197,4.6241,4.6273,4.6261,4.6303,4.6287,4.6406,4.6719,4.7187,4.7849,4.8645,4.8801,4.8801,4.8801,4.884,4.8742,4.841,4.8355,4.8222,4.7715,4.7187,4.6737,4.6383,4.6262,4.6261,4.2476,4.1881,4.062,4.019,4.0321,4.1099,4.1104,4.0565,4.0563,4.0315,3.9745,3.82,3.7621,3.7831,3.7108,0.0,3.7951,3.7895,3.8229,3.8925,3.809,3.7719,3.7755,3.7031,3.6712,3.6789,3.6864,3.6889,3.6926,3.771,3.7778,3.7192,3.7307,3.7332,3.7276,3.7212,3.6776,3.5907,3.5882,3.5487,3.4724,3.4827,3.4869,3.4908,3.4983,3.5056,3.5157,3.5193,3.5242,3.53,3.5369,3.5038,3.4337,0.0,0.0,0.0,0.0,0.0,0.0,0.0,0.0,0.0,0.0,0.0,0.0,0.0,0.0,0.0,3.6703,0.0,3.7214,3.7984,0.0,0.0,0.0,3.9713,3.9694,4.0373,4.1446,4.3114,0.0,0.0,4.5583,4.5854,4.5932,4.5975,4.5994,4.6016,4.6091,4.6091,4.6115,4.6181,4.6187,4.6211,4.6277,4.6287,4.6493,4.7122,4.7393,4.7634,4.8309,4.8499,4.8552,4.8493,4.8571,4.8337,4.7532,4.7401,4.7411,4.7447,4.7422,4.7194,4.6472,4.624,4.6206,4.1824,4.1675,4.1374,4.1343,4.1511,4.1225,4.106,4.0856,3.9986,3.9532,3.9397,3.8611,3.834,3.8538,3.8313,3.8361,3.8549,3.79,3.7687,3.7816,3.7043,3.6684,3.6768,3.6565,3.6518,3.6581,3.6686,3.6738,3.6763,3.7051,3.7467,3.7909,3.7971,3.7742,3.7231,3.719,3.6772,3.5919,3.5878,3.5506,3.4724,3.4768,3.4868,3.4907,3.4983,3.502,3.5056,3.5091,3.5143,3.5207,3.5242,3.52,3.5047,3.4529,0.0,0.0,0.0,0.0,0.0,0.0,0.0,0.0,0.0,3.488,3.5541,0.0,3.5892,0.0,3.6642,3.7389,3.8022,3.883,0.0,0.0,4.0033,4.0518,4.0518,4.0679,4.1219,4.2284,4.2925,4.3705,4.4788,4.5446,4.5841,4.5912,4.5925,4.5941,4.6016,4.6037,4.6047,4.6119,4.6123,4.6144,4.6215,4.6216,4.6284,4.6475,4.6528,4.6596,4.678,4.6819,4.6833,4.6801,4.6801,4.6723,4.656,4.6521,4.6528,4.654,4.654,4.6476,4.6261,4.6203,4.6208,4.0586,4.0586,4.0586,4.069,4.0817,4.0855,4.0753,4.0467,3.9515,3.9157,3.926,3.8696,3.851,3.8621,3.8578,3.8394,3.8071,3.7571,3.7186,3.6802,3.5996,3.564,3.5679,3.5376,3.5202,3.5284,3.5409,3.5488,3.5583,3.6019,3.6733,3.7617,3.8016,3.8214,3.8254,3.8277,3.784,3.6967,3.6265,3.5496,3.4724,3.4788,3.4849,3.4906,3.4946,3.4983,3.5001,3.502,3.5092,3.5145,3.5179,3.5231,3.5248,3.4883,3.4721,0.0,0.0,0.0,0.0,0.0,0.0,0.0,0.0,0.0,0.0,0.0,3.6589,3.695,3.7722,3.8413,3.8889,3.9654,4.0128,4.0148,4.0524,4.0804,4.0804,4.08,4.1105,4.1957,4.2447,4.3189,4.4427,4.4987,4.5446,4.5789,4.5874,4.588,4.5929,4.596,4.5964,4.6037,4.6056,4.6083,4.6157,4.6164,4.6189,4.6151,4.6164,4.6144,4.615,4.6169,4.6162,4.6154,4.6154,4.6154,4.6154,4.6174,4.6166,4.6158,4.613,4.6119,4.6142,4.6146,4.6149,3.9322,3.9322,3.9322,3.9252,3.9241,4.0117,4.0175,3.9679,3.9045,3.8888,3.9099,3.8561,3.8336,3.8318,3.8209,3.779,3.7135,3.6934,3.6443,3.5751,3.495,3.4597,3.459,3.3943,3.3698,3.3807,3.3842,3.3947,3.4092,3.4934,3.587,3.687,3.7648,3.8565,3.9539,3.9577,3.9164,3.8305,3.682,3.573,3.5044,3.5148,3.5209,3.5189,3.5116,3.5097,3.5097,3.504,3.502,3.5077,3.5129,3.5181,3.5176,3.5261,3.5324,0.0,3.5479,0.0,0.0,0.0,0.0,0.0,0.0,0.0,0.0,3.7178,3.7607,3.8394,3.9141,3.9635,3.9749,4.0389,4.0796,4.0796,4.0812,4.0808,4.0808,4.0815,4.1061,4.1777,4.1932,4.2609,4.3982,4.4427,4.4891,4.5471,4.5736,4.5808,4.5861,4.5867,4.5912,4.5975,4.5997,4.6037,4.6083,4.6135,4.6169,4.6107,4.6107,4.6111,4.6093,4.6084,4.6084,4.6075,4.6075,4.6075,4.6075,4.6075,4.6066,4.6066,4.6026,4.6017,4.6054,4.6065,4.6056,3.9322,3.9322,3.9322,3.8995,3.8496,3.8695,3.874,3.8646,3.8149,3.8026,3.8167,3.8057,3.8003,3.7949,3.7318,3.694,3.6723,3.5443,3.4776,3.4596,3.3803,3.3503,3.364,3.3524,3.3567,3.3726,3.3788,3.3895,3.4023,3.4266,3.5219,3.6795,3.6963,3.7879,3.9446,0.0,0.0,0.0,3.7374,3.6791,3.6652,3.6782,3.6826,3.6745,3.617,0.0,3.5792,3.5247,3.4908,3.4927,3.5001,0.0,0.0,0.0,0.0,0.0,0.0,0.0,0.0,0.0,0.0,0.0,3.655,3.6721,3.7026,3.7666,3.8433,3.9256,3.9458,3.9824,4.051,4.0711,4.0815,4.0815,4.0803,4.0803,4.0803,4.0803,4.0868,4.1003,4.1583,4.2106,4.2531,4.3692,4.462,4.4813,4.5394,4.5775,4.5769,4.5789,4.5841,4.5919,4.5972,4.5997,4.6017,4.6084,4.6122,4.6122,4.6104,4.6085,4.6017,4.6016,4.6014,4.5953,4.5941,4.5933,4.5953,4.5922,4.5953,4.5922,4.5929,4.5941,4.6005,4.5964,4.5941,3.8146,0.0,3.8146,3.7976,0.0,3.7686,3.7708,3.775,3.7626,3.7631,3.7774,3.7451,3.7306,3.727,3.6461,3.5903,3.549,3.4648,3.4074,3.3679,3.3314,3.3147,3.3274,3.3304,3.3422,3.3567,3.3661,3.3762,3.3895,3.3998,3.4976,3.6719,3.6763,3.7678,3.9406,3.9502,3.912,3.83,3.7943,3.753,3.7182,3.7235,3.7276,3.7235,3.6885,0.0,0.0,0.0,0.0,0.0,0.0,0.0,0.0,3.5091,0.0,3.5157,3.5207,3.5446,3.5883,3.5948,3.6324,3.7172,3.7713,3.805,3.8163,3.8972,3.9642,4.0036,4.0094,4.0268,4.0694,4.0771,4.079,4.079,4.079,4.079,4.079,4.079,4.079,4.0829,4.1158,4.1525,4.197,4.2686,4.3479,4.3904,4.4291,4.4601,4.4659,4.5278,4.5814,4.5893,4.5937,4.5933,4.5964,4.5956,4.5997,4.5997,4.6005,4.5975,4.5944,4.5941,4.5929,4.5898,4.5898,4.5898,4.5898,4.5898,4.5905,4.5893,4.5899,4.5899,4.5912,4.5912,4.5886,3.697,3.697,3.697,3.697,3.7027,3.7031,3.7091,3.7091,0.0,0.0,0.0,3.6844,3.6502,3.6375,3.5567,3.49,3.4257,3.4096,3.3683,3.3055,3.3055,3.3055,3.3104,3.3214,3.3304,3.3411,3.352,3.3671,3.3807,3.3921,3.4881,3.653,3.6738,3.7646,3.9261,3.9446,3.9183,3.8539,3.8571,3.8276,3.7638,3.7687,3.7728,3.7709,3.7558,3.7087,3.6217,3.6048,3.5616,3.4845,3.4849,3.4889,3.4908,3.5001,3.5073,3.5089,3.524,3.5658,3.6417,3.6621,3.7058,3.794,3.8829,3.9442,3.9562,4.024,4.0673,4.0607,4.0654,4.0687,4.0668,4.0713,4.0778,4.079,4.079,4.079,4.079,4.079,4.079,4.079,4.0829,4.1042,4.1661,4.1951,4.2222,4.2918,4.3285,4.3305,4.3479,4.4601,4.562,4.5822,4.588,4.5905,4.5905,4.5917,4.5886,4.5898,4.5905,4.5905,4.5905,4.5893,4.5893,4.588,4.5893,4.5893,4.5873,4.5893,4.588,4.5893,4.5893,4.586,4.5814,4.5854,4.5873,3.697,3.697,3.697,3.697,3.697,3.7027,3.7048,3.7091,3.7241,3.6945,3.6308,3.6219,3.5883,3.5295,3.4478,3.4135,3.4095,3.3398,3.3055,3.2948,3.2916,3.2948,3.3028,3.3104,3.3226,3.3393,3.3549,3.3671,3.3788,3.3868,3.4847,3.6414,3.6607,3.7522,3.9125,3.9401,3.9439,3.9333,3.9421,3.937,3.9263,3.9312,3.9354,3.925,3.8602,3.783,3.6994,3.6283,3.5534,3.4764,3.4769,3.4829,3.4888,3.4908,3.4945,3.5058,3.5721,3.6196,3.6348,3.7033,3.7832,3.8689,3.9546,4.0133,4.0249,4.0481,4.0622,4.0603,4.0612,4.0621,4.0621,4.0621,4.0668,4.07,4.07,4.0733,4.079,4.079,4.079,4.081,4.079,4.081,4.1042,4.1564,4.197,4.2241,4.2667,4.3227,4.3363,4.4136,4.5007,4.562,4.586,4.5906,4.5809,4.5893,4.5905,4.5898,4.5899,4.5887,4.5887,4.5841,4.5827,4.5827,4.5827,4.5827,4.5827,4.5814,4.5827,4.5833,4.5833,4.5814,4.58,4.5794,4.5808,3.697,3.697,3.697,3.697,3.697,3.697,3.7009,3.7048,3.7087,3.6761,3.6075,3.5668,3.5102,3.4339,3.3559,3.3222,3.3288,3.2998,3.2838,3.287,3.2884,3.2916,3.2948,3.3055,3.3147,3.3274,3.3491,3.3615,3.3735,3.4293,3.5247,3.6491,3.7424,3.8322,3.9146,3.9283,3.9399,3.9495,3.9552,3.962,3.962,3.9626,3.9626,3.9602,3.9231,3.8442,3.7141,3.6746,3.596,3.4682,3.4708,3.4768,3.4788,3.4868,3.5116,3.5571,3.5989,3.6654,3.7565,3.8421,3.9088,3.9508,3.9929,4.0177,4.0215,4.0396,4.0495,4.0546,4.0539,4.0564,4.0598,4.0593,4.0621,4.0654,4.0654,4.0668,4.0681,4.0713,4.0746,4.0746,4.0778,4.079,4.079,4.1119,4.1332,4.1371,4.1757,4.2106,4.2531,4.2937,4.3498,4.4291,4.4866,4.5169,4.5228,4.5609,4.5796,4.5835,4.5841,4.5827,4.5827,4.5814,4.58,4.58,4.58,4.58,4.58,4.58,4.58,4.58,4.58,4.58,4.58,4.58,4.58,3.697,3.697,3.697,3.697,3.697,3.697,3.697,3.697,3.697,3.6664,3.6001,3.5419,3.4765,3.3986,3.3191,3.2855,3.2854,3.2778,3.2791,3.2805,3.2852,3.2884,3.2916,3.3024,3.3194,3.3399,3.3717,3.3952,3.4217,3.5009,3.5855,3.6777,3.8237,3.9064,3.9202,3.9193,3.9285,3.9425,3.9546,3.9577,3.962,3.962,3.962,3.962,3.962,3.8831,3.7253,3.7122,3.631,3.4733,3.4645,3.4706,3.4706,3.4977,3.5416,3.602,3.6496,3.7349,3.8791,3.9572,3.9975,4.0036,4.0057,4.0077,4.0077,4.0234,4.0344,4.0432,4.0444,4.0492,4.0558,4.0569,4.0579,4.0593,4.0593,4.0607,4.0607,4.0654,4.0668,4.0687,4.0733,4.0746,4.0759,4.0759,4.0829,4.0848,4.079,4.1081,4.1603,4.1738,4.2048,4.2686,4.3614,4.4369,4.4562,4.5084,4.5529,4.5722,4.58,4.5814,4.5814,4.58,4.58,4.58,4.58,4.58,4.58,4.58,4.58,4.58,4.58,4.58,4.58,4.58,4.58,3.697,3.697,3.697,3.697,3.697,3.697,3.697,3.697,3.697,3.6549,3.592,3.5741,3.5359,3.4658,3.39,3.3617,3.3598,3.2942,3.2725,3.2844,3.2805,3.2838,3.3005,3.3078,3.3481,3.4155,3.4534,3.5009,3.5611,3.6025,3.6683,3.7571,3.8524,3.9036,3.9101,3.9175,3.9229,3.9229,3.9425,3.9546,3.9596,3.962,3.962,3.962,3.962,3.8831,3.7197,3.7122,3.631,3.4771,3.4623,3.4663,3.4781,3.5402,3.5857,3.609,3.743,3.8697,3.9486,3.9724,3.9826,3.9826,3.9935,3.9996,3.9996,4.0077,4.0157,4.0234,4.0325,4.0432,4.0502,4.0518,4.0531,4.0573,4.0588,4.0583,4.0593,4.0588,4.0621,4.0602,4.0621,4.0621,4.0635,4.0668,4.0713,4.079,4.079,4.0829,4.0984,4.1042,4.1042,4.1371,4.2357,4.3614,4.4311,4.462,4.5084,4.5626,4.58,4.58,4.58,4.58,4.58,4.58,4.58,4.58,4.58,4.58,4.58,4.58,4.58,4.58,4.58,4.58,4.58,3.697,3.697,3.697,3.697,3.697,3.697,3.697,3.697,3.697,3.6794,3.6549,3.6513,3.5867,3.4744,3.4445,3.4304,3.4287,3.4023,3.3969,3.4091,3.4159,3.4175,3.4258,3.4422,3.4735,3.5004,3.5326,3.5624,3.6042,3.6666,3.7445,3.8317,3.8744,3.8979,3.9036,3.9101,3.9156,3.9229,3.9301,3.938,3.9546,3.9596,3.962,3.962,3.962,3.8807,3.7328,3.7122,3.631,3.4771,3.4602,3.4849,3.5396,3.5719,3.6362,3.7348,3.8539,3.9373,3.967,3.9735,3.9735,3.9735,3.9781,3.9826,3.9889,3.9933,4.0036,4.0099,4.0215,4.0326,4.0415,4.0432,4.0449,4.0482,4.0515,4.0527,4.0543,4.0588,4.0598,4.0598,4.0593,4.0588,4.0607,4.0621,4.0668,4.0713,4.0746,4.0746,4.079,4.079,4.079,4.0887,4.1429,4.2338,4.3537,4.4311,4.4891,4.5529,4.58,4.58,4.58,4.58,4.58,4.58,4.58,4.58,4.58,4.58,4.58,4.58,4.58,4.58,4.58,4.58,4.58,3.697,3.697,3.697,3.697,3.697,3.697,3.697,3.697,3.697,3.697,3.697,3.697,3.6373,3.539,3.5092,3.4986,3.4986,3.4849,3.4853,3.4995,3.5031,3.5136,3.5204,3.5408,3.5634,3.5846,3.6109,3.6406,3.6717,3.7418,3.818,3.8718,3.8881,3.8939,3.9007,3.9064,3.9129,3.9137,3.9183,3.9264,3.9425,3.9502,3.9577,3.9577,3.962,3.8901,3.7493,3.7234,3.6441,3.5052,3.494,3.524,3.5859,3.6318,3.7205,3.8583,3.9322,3.9661,3.9661,3.9684,3.9708,3.9684,3.9708,3.9731,3.9758,3.9804,3.9889,3.9956,4.0059,4.0158,4.0308,4.0344,4.0344,4.0362,4.0432,4.0466,4.0466,4.0531,4.0543,4.0577,4.0573,4.0579,4.0593,4.0593,4.0626,4.0654,4.0668,4.0681,4.0746,4.0778,4.0836,4.1081,4.1158,4.1757,4.3034,4.375,4.462,4.549,4.58,4.58,4.58,4.58,4.58,4.58,4.58,4.58,4.58,4.58,4.58,4.58,4.58,4.58,4.58,4.58,4.58,3.697,3.697,3.697,3.6987,3.697,3.697,3.6987,3.697,3.6987,3.6987,3.6987,3.6987,3.6935,3.6742,3.6057,3.5776,3.5688,3.5109,3.4939,3.5137,3.5102,3.5119,3.5204,3.5426,3.5939,3.6622,3.6924,3.7444,3.8222,3.8499,3.8683,3.8792,3.8881,3.8921,3.8979,3.9064,3.9101,3.9129,3.9156,3.921,3.9237,3.938,3.9502,3.9577,3.962,3.9145,3.8263,3.7512,3.6704,3.5878,3.5841,3.5878,3.6066,3.7361,3.8563,3.9395,3.9583,3.962,3.9602,3.965,3.9693,3.9693,3.9703,3.9708,3.9731,3.9731,3.9777,3.9889,3.9911,3.9996,4.0157,4.0196,4.0233,4.0289,4.0362,4.0398,4.0396,4.0396,4.0432,4.0502,4.0518,4.0546,4.0573,4.0588,4.0583,4.0607,4.0588,4.066,4.0822,4.0797,4.1139,4.1706,4.2009,4.226,4.3111,4.3692,4.4349,4.522,4.58,4.58,4.58,4.58,4.58,4.58,4.58,4.58,4.58,4.58,4.58,4.58,4.58,4.58,4.58,4.58,4.58,3.7306,3.6823,3.6806,3.6806,3.6806,3.6806,3.6806,3.6806,3.6823,3.6806,3.6806,3.6806,3.6846,3.6851,3.6589,3.6488,3.6531,3.6285,3.6221,3.6335,3.6427,3.6521,3.663,3.688,3.7145,3.7466,3.7706,3.8031,3.841,3.8627,3.8707,3.8732,3.8851,3.891,3.895,3.9045,3.9101,3.9101,3.9129,3.9137,3.9183,3.9283,3.9373,3.9469,3.9552,3.9183,3.8338,3.8019,3.7493,3.6704,3.6667,3.6892,3.7474,3.8507,3.9239,3.9564,3.962,3.962,3.962,3.9602,3.9645,3.9645,3.965,3.9674,3.9679,3.9698,3.9727,3.9777,3.9758,3.9823,3.9889,4.0038,4.0157,4.0158,4.0215,4.0291,4.029,4.0326,4.0362,4.0432,4.0485,4.0499,4.0531,4.0543,4.0554,4.0583,4.0583,4.0882,4.1335,4.1503,4.1821,4.253,4.2827,4.3131,4.4001,4.4156,4.4523,4.5278,4.58,4.58,4.58,4.58,4.58,4.58,4.58,4.58,4.58,4.58,4.58,4.58,4.58,4.58,4.58,4.58,4.58,3.7603,3.7067,3.6806,3.6719,3.6719,3.6719,3.6719,3.6719,3.6719,3.6719,3.6719,3.6719,3.6742,3.6748,3.6806,3.6869,3.6948,3.697,3.7048,3.7108,3.7241,3.7317,3.7447,3.7757,3.7918,3.7934,3.8174,3.8322,3.8433,3.8578,3.8707,3.8707,3.8822,3.8881,3.8921,3.9007,3.9073,3.9101,3.9101,3.9129,3.9137,3.9183,3.9256,3.9346,3.9451,3.9283,3.8708,3.8426,3.8075,3.7549,3.7493,3.7868,3.8676,3.9276,3.962,3.962,3.962,3.962,3.962,3.962,3.962,3.962,3.962,3.962,3.9669,3.9669,3.9674,3.9703,3.9703,3.9703,3.9735,3.9867,3.9994,4.0036,4.0098,4.0138,4.0177,4.0196,4.0252,4.0344,4.0415,4.0449,4.0466,4.0499,4.0665,4.0889,4.0981,4.1358,4.2063,4.2343,4.2642,4.3395,4.3631,4.407,4.4722,4.4974,4.4949,4.5587,4.58,4.58,4.58,4.58,4.58,4.58,4.58,4.58,4.58,4.58,4.58,4.58,4.58,4.58,4.58,4.58,4.58,3.7808,3.7669,3.7032,3.6748,3.6765,3.6678,3.6719,3.6661,3.6643,3.6643,3.6661,3.6661,3.6643,3.6684,3.6748,3.6771,3.6811,3.693,3.7009,3.7108,3.7241,3.7334,3.7392,3.7739,3.7918,3.7952,3.8238,3.8382,3.8415,3.8578,3.8707,3.8707,3.8762,3.8851,3.891,3.8979,3.9036,3.9073,3.9101,3.9101,3.9101,3.9156,3.9202,3.921,3.9328,3.9388,3.942,3.8739,3.837,3.8338,3.8319,3.8713,3.9352,3.9558,3.9577,3.9596,3.9596,3.9596,3.9577,3.9596,3.9596,3.9596,3.9596,3.9596,3.9577,3.9596,3.9602,3.965,3.9669,3.9674,3.9684,3.9708,3.9777,3.9908,3.9935,3.9996,4.0077,4.0098,4.0138,4.0196,4.0326,4.0398,4.0435,4.0584,4.0886,4.1402,4.1723,4.214,4.2903,4.3146,4.3493,4.4141,4.4476,4.4815,4.5332,4.5791,4.5766,4.58,4.58,4.58,4.58,4.58,4.58,4.58,4.58,4.58,4.58,4.58,4.58,4.58,4.58,4.58,4.58,4.58,4.58,3.8893,3.8313,3.7586,3.7257,3.7188,3.6686,3.6444,3.6419,3.6419,3.6461,3.6444,3.6444,3.6444,3.6544,3.6585,3.6667,3.6771,3.6869,3.6948,3.7048,3.722,3.7297,3.739,3.7719,3.7971,3.8124,3.8303,3.8382,3.8415,3.8596,3.8707,3.8689,3.8762,3.8851,3.8892,3.895,3.9036,3.9101,3.9101,3.9101,3.9101,3.9129,3.911,3.9129,3.9229,3.9283,3.9264,3.9189,3.9127,3.9089,3.9158,3.9314,3.9521,3.9571,3.9527,3.952,3.9476,3.9451,3.9451,3.9451,3.9451,3.9469,3.9469,3.9469,3.9451,3.9469,3.9495,3.9476,3.9495,3.9502,3.9552,3.9552,3.9631,3.9735,3.98,3.9845,3.9973,4.0036,4.0098,4.0138,4.0215,4.0271,4.0423,4.0745,4.1389,4.1788,4.2266,4.2956,4.3679,4.3962,4.4344,4.5093,4.5275,4.5291,4.5576,4.5781,4.5776,4.5786,4.5786,4.58,4.58,4.58,4.58,4.58,4.58,4.58,4.58,4.58,4.58,4.58,4.58,4.58,4.58,4.58,4.58,3.9485,3.8922,3.8198,3.7887,3.7853,3.7353,3.7146,3.7146,3.7146,3.7146,3.7129,3.6853,3.6792,3.6824,3.6599,3.6585,3.6708,3.6771,3.6869,3.693,3.7182,3.7297,3.7352,3.7684,3.7989,3.8156,3.8318,3.8382,3.8415,3.8596,3.8707,3.8689,3.8732,3.8822,3.891,3.8921,3.9007,3.9073,3.9101,3.9101,3.9101,3.9101,3.9101,3.9101,3.9156,3.9156,3.9183,3.9328,3.9418,3.9469,3.9502,3.9502,3.952,3.9495,3.9469,3.9425,3.9425,3.9399,3.9399,3.9399,3.9391,3.9384,3.9391,3.9418,3.9418,3.9418,3.9418,3.9418,3.9418,3.9418,3.9444,3.9469,3.9502,3.9583,3.9679,3.9731,3.9823,3.9933,4.0015,4.0057,4.0099,4.0291,4.0731,4.1112,4.1951,4.2428,4.3096,4.3766,4.4472,4.4795,4.5235,4.5522,4.5555,4.5591,4.5665,4.5735,4.5746,4.5776,4.5771,4.5786,4.58,4.58,4.58,4.58,4.58,4.58,4.58,4.58,4.58,4.58,4.58,4.58,4.58,4.58,4.58,3.9767,3.9664,3.8957,3.8646,3.8629,3.8491,3.8405,3.8508,3.8491,3.8439,3.8318,3.7784,3.7542,3.7431,3.7041,3.6866,3.6717,3.7021,3.7155,3.7241,3.7404,3.758,3.7408,3.7739,3.7951,3.805,3.8358,3.8528,3.8634,3.8925,3.8836,3.9038,3.8964,3.8872,3.9029,3.8984,3.8979,3.9073,3.9101,3.9101,3.9101,3.9101,3.9101,3.9101,3.9101,3.9101,3.9129,3.9183,3.9275,3.9373,3.9418,3.9418,3.9418,3.9391,3.9373,3.9373,3.9373,3.9354,3.938,3.9354,3.9365,3.9349,3.9339,3.9391,3.9346,3.9346,3.9346,3.9346,3.9346,3.9373,3.9373,3.9373,3.9399,3.9444,3.9558,3.9679,3.9689,3.9804,3.9889,3.993,4.0072,4.044,4.1225,4.1551,4.2527,4.3465,4.4116,4.4671,4.5053,4.532,4.5509,4.5603,4.5657,4.5673,4.5673,4.5706,4.5719,4.5735,4.5746,4.5757,4.5786,4.5786,4.5805,4.5805,4.58,4.58,4.58,4.58,4.58,4.58,4.58,4.58,4.58,4.58,4.58,4.056,4.0491,3.9715,3.9405,3.9319,3.8836,3.8612,3.8594,3.8629,3.8715,3.856,3.8405,3.8301,3.8267,3.8121,3.8096,3.8096,3.8285,3.844,3.8566,3.879,3.8344,3.7717,3.7811,3.7988,3.818,3.8907,3.9258,3.9349,3.9987,4.0359,4.0451,3.9827,3.9663,3.9711,3.9261,3.8997,3.9073,3.9101,3.9101,3.9101,3.9101,3.9101,3.9101,3.9101,3.9101,3.9101,3.911,3.9229,3.9391,3.9418,3.9418,3.9373,3.9301,3.9275,3.9256,3.9202,3.9202,3.9183,3.9202,3.9175,3.9175,3.9193,3.9175,3.9175,3.9175,3.9175,3.9156,3.9156,3.9202,3.9229,3.9256,3.9301,3.938,3.9464,3.9588,3.9679,3.975,3.9758,3.9883,4.046,4.0981,4.1559,4.2423,4.3344,4.3997,4.4612,4.5112,4.5362,4.5476,4.5531,4.555,4.5568,4.5622,4.564,4.5673,4.5706,4.5687,4.5719,4.5696,4.5746,4.5761,4.5795,4.5795,4.5771,4.5786,4.58,4.58,4.58,4.5819,4.58,4.58,4.58,4.58,4.58,4.0871,4.0836,4.0388,4.0181,4.0146,3.9733,3.9543,3.9543,3.9543,3.956,3.9491,3.9163,3.906,3.9043,3.8715,3.8639,3.8745,3.8921,3.8972,3.9118,3.9317,3.911,3.8702,3.8761,3.8888,3.9013,3.9708,4.0045,4.0221,4.0793,4.106,4.1001,4.0634,4.0491,4.0591,4.0184,3.9793,3.9704,3.9621,3.9491,3.9138,3.9101,3.9101,3.9101,3.9101,3.9101,3.9101,3.9101,3.9156,3.9229,3.9275,3.9275,3.9275,3.9202,3.9156,3.9156,3.911,3.9101,3.9101,3.9101,3.9101,3.9101,3.9101,3.9101,3.9101,3.9101,3.9101,3.9101,3.9101,3.9129,3.9156,3.9156,3.9202,3.9283,3.9343,3.9446,3.9596,3.9631,3.983,4.0241,4.0787,4.1518,4.2117,4.327,4.3928,4.4469,4.4972,4.5225,4.54,4.5438,4.5476,4.5495,4.5513,4.5568,4.5605,4.564,4.5657,4.5637,4.5654,4.5668,4.57,4.5715,4.575,4.5765,4.5742,4.5737,4.5771,4.5791,4.581,4.581,4.5805,4.58,4.58,4.58,4.58,4.0871,4.0871,4.0871,4.0871,4.0836,4.0853,4.0716,4.0819,4.0733,4.075,4.0612,4.0095,3.9853,3.9767,3.9336,3.8922,3.895,3.9319,3.9347,3.9573,3.9852,3.9984,4.0057,3.991,3.9929,4.0075,4.0617,4.0901,4.1061,4.1269,4.1409,4.1515,4.1387,4.1287,4.1304,4.1256,4.0996,4.0595,4.0513,4.0104,3.9547,3.938,3.9324,3.9101,3.9101,3.9101,3.9101,3.9101,3.9101,3.9101,3.9101,3.9129,3.9101,3.9101,3.9101,3.9101,3.9082,3.9101,3.9101,3.9101,3.9101,3.9101,3.9101,3.9101,3.9101,3.9101,3.9101,3.9101,3.9101,3.9082,3.9082,3.9082,3.9129,3.9221,3.9266,3.945,3.9537,3.9621,3.9958,4.0798,4.1089,4.2148,4.309,4.3881,4.4197,4.4665,4.5115,4.5218,4.5339,4.54,4.5438,4.5477,4.5495,4.5513,4.555,4.5605,4.5605,4.5603,4.5603,4.5618,4.5651,4.5684,4.5684,4.57,4.5712,4.5712,4.5712,4.5746,4.5781,4.5795,4.5791,4.5805,4.58,4.58,4.58,4.0871,4.0871,4.0871,4.0871,4.0871,4.0871,4.0871,4.0871,4.0871,4.0871,4.0836,4.0664,4.0595,4.0595,4.0336,4.0388,4.0296,4.0452,4.0728,4.0919,4.1304,4.1474,4.1268,4.0745,4.0271,4.0508,4.127,4.1685,4.1865,4.2372,4.2896,4.2837,4.2268,4.2062,4.2106,4.1723,4.1354,4.1278,4.1319,4.0921,4.029,4.0104,3.9807,3.9268,3.912,3.9101,3.9101,3.9101,3.9101,3.9101,3.9101,3.9101,3.9101,3.9101,3.9101,3.9101,3.9101,3.9101,3.9101,3.9101,3.9101,3.9101,3.9101,3.9101,3.9101,3.9101,3.9101,3.9101,3.9101,3.9101,3.9212,3.912,3.9231,3.9407,3.9816,4.0179,4.0262,4.036,4.0596,4.1067,4.2065,4.3083,4.3511,4.4259,4.4635,4.4948,4.508,4.5189,4.5275,4.5319,4.536,4.5438,4.5438,4.5457,4.5495,4.555,4.5568,4.5586,4.5586,4.5603,4.5637,4.5654,4.5671,4.5668,4.5684,4.5684,4.5684,4.568,4.5715,4.5746,4.5761,4.5791,4.5805,4.5805,4.58,4.0871,4.0871,4.0871,4.0871,4.0871,4.0871,4.0871,4.0871,4.0871,4.0871,4.0871,4.0871,4.0871,4.0871,4.0871,4.0853,4.0918,4.1059,4.1226,4.1391,4.1736,4.1927,4.1959,4.1573,4.1235,4.1387,4.2067,4.2468,4.2722,4.3066,4.3355,4.3479,4.3039,4.2907,4.2956,4.2576,4.2358,4.2119,4.2117,4.1757,4.1089,4.094,4.0568,3.9751,3.9342,3.9101,3.9101,3.9101,3.9101,3.9101,3.9101,3.9101,3.9101,3.9101,3.9101,3.9101,3.9101,3.9101,3.9101,3.9101,3.9101,3.9101,3.9101,3.9101,3.9101,3.9101,3.9101,3.9101,3.9138,3.9231,3.964,3.9733,3.9807,4.0271,4.0643,4.0969,4.1016,4.1111,4.1407,4.1863,4.2776,4.345,4.4037,4.4518,4.4751,4.4895,4.4943,4.5057,4.5189,4.5235,4.5277,4.5359,4.5399,4.5419,4.5438,4.5475,4.5513,4.5531,4.5568,4.5586,4.5603,4.564,4.5657,4.5654,4.5651,4.5654,4.5654,4.5651,4.5684,4.5703,4.5735,4.5765,4.5776,4.5776,4.5805,4.0871,4.0871,4.0871,4.0871,4.0871,4.0871,4.0871,4.0871,4.0871,4.0871,4.0871,4.0871,4.0871,4.0871,4.0871,4.0871,4.0965,4.1088,4.1272,4.138,4.1692,4.1884,4.1977,4.208,4.2177,4.2591,4.2808,4.2995,4.3123,4.334,4.3411,4.3479,4.3479,4.3385,4.3526,4.3664,4.3342,4.2921,4.2891,4.2593,4.1924,4.1757,4.1367,4.0606,4.0067,3.9733,3.9677,3.9556,3.937,3.9287,3.9175,3.9101,3.9101,3.9101,3.9101,3.9101,3.9101,3.9101,3.9101,3.9101,3.9101,3.9101,3.9101,3.9101,3.9101,3.9305,3.9435,3.9472,3.9584,3.9937,4.0486,4.055,4.0884,4.1349,4.1627,4.1776,4.1842,4.1909,4.2462,4.2829,4.3306,4.3876,4.424,4.4595,4.4719,4.484,4.487,4.4919,4.5033,4.5148,4.5192,4.5235,4.5277,4.5379,4.5419,4.5419,4.5457,4.5495,4.5531,4.5531,4.5568,4.5568,4.5605,4.5603,4.5603,4.5603,4.5622,4.5637,4.5654,4.5673,4.5706,4.5738,4.575,4.5765,4.5776,4.0871,4.0871,4.0871,4.0871,4.0871,4.0871,4.0871,4.0871,4.0871,4.0871,4.0871,4.0871,4.0871,4.0871,4.0871,4.0871,4.0982,4.1088,4.1209,4.13,4.1587,4.1841,4.203,4.2181,4.2369,4.2609,4.2783,4.2956,4.3142,4.3251,4.3358,4.3444,4.3479,4.3513,4.3513,4.36,4.3646,4.3472,4.3513,4.3219,4.2748,4.2463,4.2166,4.1441,4.1051,4.0958,4.0894,4.0495,4.0207,4.0141,3.9472,3.9212,3.9268,3.9268,3.9231,3.9101,3.9101,3.9101,3.9231,3.9175,3.912,3.9101,3.925,3.9212,3.9361,3.977,4.0104,4.0308,4.068,4.1173,4.1332,4.1396,4.1479,4.1783,4.2229,4.2593,4.2705,4.3032,4.323,4.3237,4.3745,4.4168,4.4374,4.4524,4.4632,4.4712,4.4789,4.4821,4.4914,4.5033,4.5103,4.5148,4.5192,4.5297,4.5379,4.54,4.5419,4.5438,4.5457,4.5457,4.5476,4.5495,4.5513,4.5531,4.5586,4.5603,4.5603,4.5622,4.5622,4.562,4.5673,4.5709,4.5722,4.5735,4.575,4.0871,4.0871,4.0871,4.0871,4.0871,4.0871,4.0871,4.0871,4.0871,4.0871,4.0871,4.0871,4.0871,4.0871,4.0871,4.0871,4.0965,4.1134,4.1209,4.13,4.1542,4.1797,4.1962,4.2115,4.2346,4.253,4.2688,4.2842,4.3123,4.3178,4.3286,4.3428,4.3463,4.3479,4.3513,4.36,4.3634,4.3701,4.3781,4.3712,4.333,4.3045,4.2556,4.2277,4.1813,4.1609,4.1516,4.1303,4.1026,4.0933,4.0644,4.0448,4.0346,4.0253,3.9974,3.9342,3.9157,3.9361,3.9677,3.9788,3.9974,4.0364,4.0346,4.0383,4.0457,4.0791,4.0996,4.1126,4.1237,4.1787,4.214,4.2233,4.2426,4.2804,4.3188,4.3336,4.3485,4.3801,4.3683,4.3472,4.386,4.4221,4.4298,4.443,4.4515,4.4578,4.4685,4.4738,4.4815,4.4914,4.501,4.5038,4.5084,4.5192,4.5297,4.5319,4.5341,4.538,4.538,4.54,4.54,4.5438,4.5457,4.5476,4.5513,4.5568,4.5586,4.5622,4.5586,4.5586,4.564,4.5657,4.5673,4.5706,4.5703,4.0871,4.0871,4.0871,4.0871,4.0871,4.0871,4.0871,4.0871,4.0871,4.0871,4.0871,4.0871,4.0871,4.0871,4.0871,4.0871,4.0935,4.1117,4.1209,4.1255,4.1515,4.1771,4.1962,4.203,4.2199,4.2548,4.2609,4.2783,4.3067,4.316,4.3269,4.3394,4.3481,4.3479,4.3513,4.3548,4.36,4.3667,4.3734,4.3832,4.3712,4.3348,4.3039,4.302,4.2426,4.2166,4.2259,4.195,4.1861,4.1779,4.1619,4.1523,4.1579,4.159,4.0958,3.9881,3.9621,4.0011,4.0383,4.0643,4.0847,4.1256,4.1497,4.1553,4.1609,4.159,4.1906,4.2017,4.2166,4.2426,4.2946,4.3039,4.3318,4.367,4.3893,4.3986,4.3912,4.3986,4.3968,4.3943,4.4135,4.4214,4.4255,4.4344,4.4411,4.4487,4.4578,4.4632,4.4712,4.4789,4.4889,4.4919,4.4991,4.508,4.517,4.5233,4.5277,4.5319,4.5319,4.532,4.5361,4.54,4.54,4.5419,4.5476,4.5513,4.5568,4.5568,4.5568,4.5549,4.5586,4.5603,4.562,4.5657,4.569,4.0871,4.0871,4.0871,4.0871,4.0871,4.0871,4.0871,4.0871,4.0871,4.0871,4.0871,4.0871,4.0871,4.0871,4.0871,4.0871,4.0965,4.1088,4.1209,4.1255,4.1453,4.171,4.198,4.2005,4.2323,4.2683,4.2749,4.2783,4.3175,4.3268,4.3196,4.3359,4.3429,4.3446,4.3479,4.3513,4.3566,4.3582,4.3615,4.3716,4.3846,4.3825,4.3782,4.3745,4.3652,4.3503,4.3355,4.2971,4.2662,4.2588,4.1994,4.1674,4.1607,4.1605,4.1571,4.1349,4.133,4.1367,4.1441,4.146,4.159,4.185,4.1832,4.1646,4.1962,4.2407,4.2909,4.3689,4.3633,4.3559,4.3652,4.3801,4.3912,4.3931,4.4005,4.4005,4.4005,4.4005,4.4005,4.4005,4.4055,4.4135,4.4165,4.4237,4.4325,4.4401,4.4487,4.4524,4.4605,4.4685,4.4789,4.4821,4.4895,4.4986,4.5057,4.5125,4.517,4.5213,4.5235,4.5277,4.5298,4.532,4.5379,4.5419,4.5438,4.5438,4.5438,4.5457,4.5495,4.5513,4.5531,4.5568,4.5603,4.5622,4.564,4.0871,4.0871,4.0871,4.0871,4.0871,4.0871,4.0871,4.0871,4.0871,4.0871,4.0871,4.0871,4.0871,4.0871,4.0871,4.0871,4.0935,4.1093,4.1198,4.1279,4.1478,4.1719,4.2043,4.2412,4.2797,4.3138,4.3665,4.4147,4.402,4.3485,4.3178,4.3324,4.3377,4.3446,4.3552,4.3497,4.3513,4.3566,4.3652,4.3786,4.3865,4.3961,4.4005,4.4005,4.4005,4.4005,4.3912,4.3751,4.3478,4.3423,4.3064,4.2959,4.2946,4.2971,4.2965,4.2965,4.2965,4.2742,4.237,4.2277,4.2463,4.2835,4.2927,4.302,4.3058,4.3225,4.354,4.3931,4.4005,4.4005,4.4005,4.4005,4.4005,4.4005,4.4005,4.4005,4.4005,4.4005,4.4005,4.4005,4.4005,4.4055,4.4085,4.4165,4.4255,4.4285,4.4373,4.443,4.4496,4.4597,4.4685,4.4764,4.4821,4.4889,4.4943,4.5014,4.508,4.5125,4.5129,4.5173,4.5235,4.5275,4.5297,4.5317,4.5339,4.5341,4.5341,4.54,4.5457,4.5457,4.5476,4.5495,4.5513,4.5531,4.5549,4.0871,4.0871,4.0871,4.0871,4.0871,4.0871,4.0871,4.0871,4.0871,4.0871,4.0871,4.0871,4.0871,4.0871,4.0871,4.0871,4.0953,4.1237,4.1383,4.1557,4.1852,4.2271,4.2741,4.3227,4.3535,4.3835,4.4414,4.4808,4.466,4.4295,4.3849,4.3761,4.3798,4.376,4.3738,4.3608,4.3479,4.3532,4.3671,4.3771,4.3883,4.3929,4.3974,4.4005,4.4005,4.4005,4.4005,4.3986,4.3968,4.3949,4.3893,4.3782,4.3788,4.3763,4.3763,4.3763,4.3763,4.3596,4.3243,4.315,4.3448,4.3782,4.4005,4.3782,4.3856,4.4005,4.4005,4.4005,4.4005,4.4005,4.4005,4.4005,4.4005,4.4005,4.4005,4.4005,4.4005,4.4005,4.4005,4.4005,4.4005,4.4005,4.4055,4.4104,4.4184,4.4214,4.4244,4.4314,4.4401,4.4487,4.4551,4.4632,4.4712,4.4764,4.4821,4.4895,4.4967,4.5014,4.5038,4.5084,4.5148,4.517,4.5192,4.5213,4.5275,4.5235,4.5216,4.532,4.54,4.5438,4.5438,4.5438,4.5438,4.5457,4.5475,4.0871,4.0871,4.0905,4.094,4.0922,4.0871,4.0905,4.1095,4.0991,4.1026,4.1112,4.0974,4.1095,4.1009,4.1147,4.1112,4.1056,4.1791,4.2111,4.2549,4.3074,4.3419,4.3726,4.3996,4.4325,4.452,4.5119,4.5246,4.5132,4.5391,4.5185,4.5287,4.4672,4.4491,4.4291,4.4013,4.3718,4.3663,4.3676,4.3689,4.3804,4.3883,4.3929,4.3974,4.4005,4.4005,4.4005,4.4005,4.4005,4.4005,4.4005,4.4005,4.4005,4.4005,4.4005,4.4005,4.4005,4.3893,4.3745,4.3726,4.3893,4.3986,4.4005,4.4005,4.4005,4.4005,4.4005,4.4005,4.4005,4.4005,4.4005,4.4005,4.4005,4.4005,4.4005,4.4005,4.4005,4.4005,4.4005,4.4005,4.4005,4.4005,4.4005,4.4055,4.4085,4.4135,4.4214,4.4255,4.4285,4.4401,4.4458,4.4496,4.4578,4.4632,4.4693,4.477,4.4846,4.4895,4.4919,4.4991,4.5061,4.5084,4.5084,4.5148,4.517,4.5148,4.5148,4.5256,4.5319,4.5399,4.5419,4.5361,4.54,4.5419,4.5438,4.2351,4.2334,4.2334,4.2009,4.1561,4.1561,4.1836,4.2233,4.2334,4.2351,4.225,4.2334,4.2351,4.2317,4.2285,4.2334,4.2386,4.2593,4.2878,4.3093,4.3498,4.3763,4.4138,4.471,4.506,4.5347,4.5855,4.6396,4.6475,4.6428,4.6675,4.649,4.5649,4.533,4.5022,4.4637,4.4306,4.4103,4.3844,4.3621,4.3686,4.3786,4.3883,4.3929,4.3929,4.3942,4.4005,4.4005,4.4005,4.4005,4.4005,4.4005,4.4005,4.4005,4.4005,4.3974,4.3974,4.3974,4.4005,4.4005,4.4005,4.4005,4.4005,4.4005,4.4005,4.4005,4.4005,4.4005,4.4005,4.4005,4.4005,4.4005,4.4005,4.4005,4.4005,4.4005,4.4005,4.4005,4.4005,4.4005,4.4005,4.4005,4.4005,4.4005,4.4036,4.4036,4.4135,4.4214,4.4226,4.4304,4.4344,4.4401,4.4487,4.4542,4.4578,4.464,4.4719,4.477,4.4796,4.487,4.4943,4.4967,4.4967,4.5033,4.508,4.508,4.5103,4.517,4.5213,4.5277,4.5298,4.5319,4.5339,4.538,4.538,4.3232,4.3232,4.3232,4.2854,4.2354,4.2337,4.2647,4.3145,4.318,4.3232,4.3232,4.3232,4.3232,4.3232,4.3197,4.3145,4.3162,4.337,4.359,4.3895,4.415,4.438,4.4847,4.5364,4.5857,4.612,4.665,4.7133,4.7158,4.7371,4.7428,4.721,4.6749,4.6324,4.586,4.5425,4.5022,4.4892,4.4358,4.3952,4.4002,4.3796,4.3804,4.3851,4.3883,4.3883,4.3929,4.3961,4.3942,4.3974,4.3974,4.3974,4.3974,4.3992,4.3942,4.3942,4.3942,4.3942,4.3942,4.3974,4.4005,4.4005,4.4005,4.4005,4.4005,4.4005,4.4005,4.4005,4.4005,4.4005,4.4005,4.4005,4.4005,4.4005,4.4005,4.4005,4.4005,4.4005,4.4005,4.4005,4.4005,4.4005,4.4005,4.4005,4.4005,4.4036,4.4055,4.4104,4.4135,4.4195,4.4274,4.4333,4.4373,4.443,4.4487,4.4551,4.4613,4.4667,4.4719,4.4745,4.4796,4.4821,4.487,4.4919,4.4986,4.501,4.5033,4.5057,4.5103,4.5151,4.5192,4.5235,4.5235,4.5256,4.5277,4.3301,4.3232,4.3301,4.3233,4.3199,4.3147,4.3266,4.3473,4.3439,4.3421,4.3473,4.3439,4.3421,4.3439,4.3594,4.3578,4.3715,4.4027,4.4353,4.4609,4.5039,4.5593,4.5877,4.6156,4.6342,4.6613,4.6934,4.716,4.7276,4.7407,4.7554,4.7657,4.7355,4.713,4.6688,4.6102,4.581,4.5736,4.5073,4.4779,4.463,4.426,4.411,4.4159,4.4044,4.4026,4.411,4.392,4.3915,4.3897,4.3961,4.3929,4.3897,4.3915,4.3865,4.3818,4.3818,4.3837,4.3804,4.3929,4.3992,4.3992,4.3961,4.3974,4.3974,4.4005,4.4005,4.4005,4.4005,4.4005,4.4005,4.4005,4.4005,4.4005,4.4005,4.4005,4.4005,4.4005,4.4005,4.4005,4.4005,4.4005,4.4005,4.4005,4.4005,4.4005,4.4005,4.4023,4.4055,4.4085,4.4165,4.4195,4.4255,4.4333,4.4373,4.4458,4.4496,4.4578,4.4613,4.4659,4.4685,4.4719,4.4745,4.4796,4.4846,4.4889,4.4914,4.4895,4.4967,4.5014,4.5103,4.5125,4.5125,4.5148,4.517,4.4682,4.4665,4.4665,4.4682,4.4578,4.4096,4.4165,4.4613,4.4665,4.4665,4.4665,4.4665,4.4665,4.4665,4.4578,4.4578,4.4682,4.4768,4.5079,4.5251,4.5614,4.5819,4.6073,4.6301,4.6542,4.6655,4.6842,4.7088,4.7223,4.7338,4.7468,4.7554,4.7639,4.7632,4.7379,4.6958,4.6615,4.6505,4.5956,4.548,4.5497,4.5222,4.5109,4.5178,4.4718,4.4531,4.4528,4.428,4.4022,4.3929,4.3994,4.3925,4.3837,4.3818,4.3837,4.3804,4.3804,4.3804,4.3804,4.3851,4.3851,4.3865,4.3865,4.3897,4.3929,4.3929,4.3942,4.3974,4.3974,4.4005,4.4005,4.4005,4.4005,4.4005,4.4005,4.4005,4.4005,4.4005,4.4005,4.4005,4.4005,4.4005,4.4005,4.4005,4.4005,4.4005,4.4005,4.4005,4.4023,4.4023,4.4055,4.4085,4.4147,4.4214,4.4274,4.4344,4.4401,4.4458,4.4515,4.4515,4.457,4.4605,4.4659,4.4719,4.4738,4.4764,4.477,4.4821,4.4846,4.4895,4.4967,4.5057,4.508,4.5103,4.5125,4.5441,4.5441,4.5441,4.5441,4.5354,4.4889,4.4975,4.5389,4.5441,4.5441,4.5406,4.5406,4.5389,4.5389,4.5441,4.5441,4.5441,4.5423,4.5406,4.5563,4.5718,4.5821,4.6023,4.6253,4.6495,4.6607,4.6749,4.6952,4.7196,4.7267,4.7381,4.7511,4.7615,4.7681,4.7625,4.7438,4.732,4.7119,4.6686,4.6285,4.6195,4.6049,4.5846,4.5754,4.5513,4.5237,4.516,4.4863,4.4454,4.4288,4.4159,4.4048,4.3919,4.3756,4.3738,4.3686,4.3686,4.3686,4.3686,4.3686,4.3686,4.3667,4.3753,4.3837,4.3851,4.3851,4.3883,4.3929,4.3961,4.3942,4.3974,4.3974,4.4005,4.4005,4.4005,4.4005,4.4005,4.4005,4.4005,4.4005,4.4005,4.4005,4.4005,4.4005,4.4005,4.4005,4.4005,4.4005,4.4005,4.4005,4.4005,4.4036,4.4085,4.4135,4.4214,4.4244,4.4304,4.4381,4.4391,4.442,4.4458,4.4496,4.4578,4.4632,4.4659,4.4685,4.4712,4.4719,4.477,4.4796,4.4846,4.4919,4.5033,4.5033,4.5033,4.5441,4.5441,4.5441,4.5441,4.5423,4.5354,4.5389,4.5441,4.5441,4.5441,4.5441,4.5441,4.5441,4.5441,4.5441,4.5441,4.5441,4.5441,4.5423,4.5459,4.5667,4.577,4.5922,4.6204,4.6398,4.659,4.6749,4.6888,4.7151,4.7241,4.7312,4.7486,4.7615,4.7675,4.7723,4.7728,4.772,4.7569,4.732,4.7012,4.6943,4.6561,4.6434,4.6324,4.6122,4.5993,4.5919,4.5771,4.5401,4.5107,4.4955,4.446,4.4057,4.371,4.364,4.3587,4.3642,4.366,4.3532,4.3532,4.3532,4.3566,4.3686,4.3753,4.3786,4.3786,4.3786,4.3818,4.3883,4.3897,4.3897,4.3942,4.4005,4.4005,4.4005,4.4005,4.4005,4.4005,4.4005,4.4005,4.4005,4.4005,4.4005,4.4005,4.4005,4.4005,4.4005,4.4005,4.4005,4.4005,4.4005,4.4005,4.4055,4.4055,4.4135,4.4165,4.4233,4.4281,4.4304,4.4314,4.4373,4.443,4.4468,4.4524,4.4578,4.4605,4.4632,4.4659,4.4712,4.4719,4.4745,4.4796,4.4889,4.4914,4.4914,4.5441,4.5441,4.5441,4.5441,4.5441,4.5441,4.5441,4.5441,4.5441,4.5441,4.5441,4.5441,4.5441,4.5441,4.5441,4.5441,4.5441,4.5441,4.5441,4.5528,4.5667,4.5787,4.5922,4.6122,4.6301,4.6447,4.659,4.6795,4.6934,4.7088,4.7312,4.7468,4.7529,4.7615,4.7675,4.7735,4.7819,4.7888,4.7678,4.7645,4.767,4.7419,4.7311,4.7238,4.6873,4.6782,4.669,4.6287,4.5901,4.5681,4.5625,4.5404,4.5332,4.5203,4.5076,4.4415,4.4323,4.4176,4.3626,4.3497,4.3534,4.3571,4.3584,4.36,4.3634,4.3667,4.3719,4.3753,4.3786,4.3818,4.3832,4.3878,4.3942,4.3974,4.3974,4.4005,4.4005,4.4005,4.4005,4.4005,4.4005,4.4005,4.4005,4.4005,4.4005,4.4005,4.4005,4.4005,4.4005,4.4005,4.4005,4.4005,4.4005,4.4055,4.4055,4.4055,4.4141,4.4209,4.4202,4.4226,4.4322,4.4352,4.4373,4.443,4.4496,4.4524,4.4524,4.4578,4.4632,4.4659,4.4685,4.4712,4.4764,4.4789,4.4815,4.5441,4.5441,4.5441,4.5441,4.5441,4.5441,4.5441,4.5441,4.5441,4.5441,4.5441,4.5441,4.5441,4.5441,4.5441,4.5441,4.5441,4.5441,4.5441,4.5476,4.5615,4.5718,4.5871,4.6023,4.6221,4.635,4.6542,4.6684,4.6824,4.7025,4.7267,4.7338,4.7399,4.7511,4.7572,4.7615,4.7717,4.7819,4.7884,4.7943,4.8006,4.805,4.809,4.8038,4.7584,4.7512,4.7403,4.6854,4.6671,4.6434,4.636,4.6177,4.603,4.5828,4.5773,4.5204,4.5168,4.4984,4.4635,4.4176,4.4066,4.3883,4.3681,4.355,4.3548,4.3548,4.36,4.3634,4.3686,4.3753,4.38,4.3814,4.3878,4.3942,4.3974,4.4005,4.4005,4.4005,4.4005,4.4005,4.4005,4.4005,4.4005,4.4005,4.4005,4.4005,4.4005,4.4005,4.4005,4.4005,4.4005,4.4005,4.4005,4.4005,4.4005,4.4005,4.4042,4.411,4.4123,4.4135,4.4221,4.4281,4.4304,4.4373,4.4411,4.444,4.4487,4.4496,4.4551,4.4578,4.4597,4.4605,4.4659,4.4712,4.4719,4.5319,4.5441,4.5441,4.5441,4.5441,4.5441,4.5441,4.5441,4.5441,4.5441,4.5441,4.5441,4.5441,4.5441,4.5441,4.5441,4.5441,4.5441,4.5441,4.5441,4.5581,4.5667,4.577,4.5922,4.6122,4.635,4.6512,4.6625,4.6842,4.698,4.7133,4.7196,4.7249,4.7363,4.745,4.7511,4.7615,4.7657,4.7801,4.7861,4.7884,4.7947,4.7992,4.7992,4.7937,4.7959,4.7977,4.7907,4.7858,4.7346,4.7018,4.68,4.6525,4.6324,4.6232,4.603,4.6012,4.5773,4.548,4.5057,4.4727,4.4433,4.4048,4.3718,4.3624,4.3532,4.3566,4.3566,4.3618,4.3634,4.3701,4.38,4.3883,4.3929,4.3942,4.3974,4.4005,4.4005,4.4005,4.4005,4.4005,4.4005,4.4005,4.4005,4.4005,4.4005,4.4005,4.4005,4.4005,4.4005,4.4005,4.4005,4.4005,4.4005,4.4005,4.4005,4.4005,4.4023,4.4023,4.4055,4.4153,4.4184,4.4214,4.4285,4.4344,4.4373,4.4383,4.444,4.4468,4.4515,4.4515,4.4496,4.457,4.47,4.464,4.4906,4.5371,4.5441,4.5441,4.5441,4.5441,4.5441,4.5441,4.5441,4.5441,4.5441,4.5441,4.5441,4.5441,4.5441,4.5441,4.5441,4.5441,4.5441,4.5423,4.5528,4.5632,4.5684,4.5889,4.6058,4.6157,4.6323,4.6565,4.6749,4.687,4.7025,4.7196,4.7205,4.7249,4.7363,4.7425,4.7511,4.7554,4.7657,4.7759,4.7759,4.7861,4.7943,4.7947,4.7929,4.7951,4.7992,4.7955,4.7941,4.7758,4.7779,4.7709,4.7677,4.7681,4.7388,4.6985,4.6782,4.6544,4.6195,4.5828,4.548,4.4966,4.4507,4.4048,4.3736,4.3571,4.3497,4.3516,4.3532,4.3566,4.3634,4.3753,4.3869,4.3897,4.3942,4.3974,4.4005,4.4005,4.4005,4.4005,4.4005,4.4005,4.4005,4.4005,4.4005,4.4005,4.4005,4.4005,4.4005,4.4005,4.4005,4.4005,4.4005,4.4005,4.4005,4.4005,4.4005,4.4005,4.4023,4.4055,4.4055,4.4104,4.4165,4.4214,4.4274,4.4314,4.4344,4.4383,4.4411,4.4543,4.4683,4.4806,4.4824,4.4937,4.4766,4.4527,4.4941,4.5285,4.5441,4.5441,4.5441,4.5441,4.5441,4.5441,4.5441,4.5441,4.5441,4.5441,4.5441,4.5441,4.5441,4.5441,4.5441,4.5441,4.5423,4.5476,4.5528,4.5702,4.5822,4.5957,4.6058,4.6274,4.65,4.6684,4.6778,4.6934,4.7043,4.7088,4.7178,4.7267,4.7356,4.7417,4.7407,4.7626,4.7651,4.7669,4.7777,4.7819,4.7842,4.7824,4.787,4.7888,4.7888,4.7947,4.797,4.7955,4.7977,4.7962,4.7983,4.7876,4.7659,4.7494,4.7386,4.6909,4.6544,4.6214,4.5737,4.5278,4.4947,4.4305,4.4121,4.3791,4.3754,4.3534,4.3513,4.3548,4.3667,4.3753,4.3818,4.3897,4.3961,4.3992,4.4005,4.4005,4.4005,4.4005,4.4005,4.4005,4.4005,4.4005,4.4005,4.4005,4.4005,4.4005,4.4005,4.4005,4.4005,4.4005,4.4005,4.4005,4.4005,4.4005,4.4005,4.4005,4.4023,4.4055,4.4073,4.4104,4.4153,4.4214,4.4244,4.4285,4.4483,4.4755,4.498,4.5094,4.5208,4.5227,4.5387,4.5491,4.4251,4.4492,4.5147,4.5441,4.5441,4.5441,4.5441,4.5441,4.5441,4.5441,4.5441,4.5441,4.5441,4.5441,4.5441,4.5441,4.5441,4.5441,4.5441,4.5441,4.5441,4.5476,4.5563,4.5684,4.5855,4.6023,4.6221,4.6416,4.659,4.6637,4.6731,4.6795,4.6924,4.7097,4.7259,4.7375,4.7528,4.7779,4.7929,4.772,4.7716,4.7651,4.7717,4.7717,4.7699,4.7699,4.7741,4.7801,4.7879,4.7902,4.7947,4.7988,4.801,4.805,4.8032,4.7907,4.7929,4.7929,4.784,4.7459,4.7166,4.6837,4.6361,4.5773,4.5112,4.4709,4.4378,4.4103,4.3883,4.3552,4.3587,4.3584,4.3704,4.3786,4.3865,4.3929,4.3992,4.4005,4.4005,4.4005,4.4005,4.4005,4.4005,4.4005,4.4005,4.4005,4.4005,4.4005,4.4005,4.4005,4.4005,4.4005,4.4005,4.4005,4.4005,4.4005,4.4005,4.4005,4.4005,4.4005,4.4005,4.4055,4.4073,4.4092,4.4123,4.4451,4.468,4.4878,4.5151,4.5525,4.5679,4.5851,4.6049,4.6199,4.6559,4.4113,4.5216,4.5389,4.5441,4.5441,4.5441,4.5441,4.5441,4.5441,4.5441,4.5441,4.5441,4.5441,4.5441,4.5441,4.5441,4.5441,4.5441,4.5441,4.5441,4.5441,4.5441,4.5493,4.5632,4.5787,4.5955,4.6105,4.6204,4.6469,4.65,4.6578,4.6726,4.6902,4.7233,4.785,4.8015,4.8307,4.8496,4.8461,4.8335,4.8269,4.8096,4.7711,4.7699,4.7699,4.7699,4.7717,4.7717,4.7759,4.7741,4.7842,4.7884,4.7925,4.7929,4.797,4.7951,4.801,4.8068,4.7944,4.7855,4.762,4.7219,4.6763,4.6507,4.6012,4.5663,4.5351,4.5094,4.4709,4.3938,4.3807,4.375,4.3781,4.3822,4.3915,4.3961,4.4005,4.4005,4.4005,4.4005,4.4005,4.4005,4.4005,4.4005,4.4005,4.4005,4.4005,4.4005,4.4005,4.4005,4.4005,4.4005,4.4023,4.4005,4.4005,4.4005,4.4005,4.4005,4.4005,4.4005,4.4005,4.4005,4.4042,4.4283,4.4692,4.5114,4.5276,4.54,4.5916,4.6302,4.6421,4.6595,4.68,4.7056,4.7379]},{"header":{"parameterUnit":"m.s-1","parameterCategory":1,"la1":31.0,"la2":29.5877,"lo1":-88.7671,"lo2":-86.6584,"dy":0.0162,"dx":0.0185,"nx":115,"ny":88,"refTime":"2023-11-20T18:00:00:Z","depth":0,"parameterNumber":3,"parameterNumberName":"V-component_of_WINDS"},"data":[0.0,0.0,0.0,0.0,0.0,0.0,0.0,0.0,0.0,0.0,0.0,0.0,0.0,0.0,0.0,0.0,0.0,0.0,0.0,0.0,0.0,0.0,0.0,0.0,0.0,0.0,0.0,0.0,0.0,0.0,0.0,0.0,0.0,0.0,0.0,0.0,0.0,0.0,0.0,0.0,0.0,0.0,0.0,0.0,0.0,0.0,0.0,0.0,0.0,0.0,0.0,0.0,0.0,0.0,0.0,0.0,0.0,0.0,0.0,0.0,0.0,0.0,0.0,0.0,0.0,0.0,0.0,0.0,0.0,0.0,0.0,0.0,0.0,0.0,0.0,0.0,0.0,0.0,0.0,0.0,0.0,0.0,0.0,0.0,0.0,0.0,0.0,0.0,0.0,0.0,0.0,0.0,0.0,0.0,0.0,0.0,0.0,0.0,0.0,0.0,0.0,0.0,0.0,0.0,0.0,0.0,0.0,0.0,0.0,0.0,0.0,0.0,0.0,0.0,0.0,0.0,0.0,0.0,0.0,0.0,0.0,0.0,0.0,0.0,0.0,0.0,0.0,0.0,0.0,0.0,0.0,0.0,0.0,0.0,0.0,0.0,0.0,0.0,0.0,0.0,0.0,0.0,0.0,0.0,0.0,0.0,0.0,0.0,0.0,0.0,0.0,0.0,0.0,0.0,0.0,0.0,0.0,0.0,0.0,0.0,0.0,0.0,0.0,0.0,0.0,0.0,0.0,0.0,0.0,0.0,0.0,0.0,0.0,0.0,0.0,0.0,0.0,0.0,0.0,0.0,0.0,0.0,0.0,0.0,0.0,0.0,0.0,0.0,0.0,0.0,0.0,0.0,0.0,0.0,0.0,0.0,0.0,0.0,0.0,0.0,0.0,0.0,0.0,0.0,0.0,0.0,0.0,0.0,0.0,0.0,0.0,0.0,0.0,0.0,0.0,0.0,0.0,0.0,0.0,0.0,0.0,0.0,0.0,0.0,0.0,0.0,0.0,0.0,0.0,0.0,0.0,0.0,0.0,0.0,0.0,0.0,0.0,0.0,0.0,0.0,0.0,0.0,0.0,0.0,0.0,0.0,0.0,0.0,0.0,0.0,0.0,0.0,0.0,0.0,0.0,0.0,0.0,0.0,0.0,0.0,0.0,0.0,0.0,0.0,0.0,0.0,0.0,0.0,0.0,0.0,0.0,0.0,0.0,0.0,0.0,0.0,0.0,0.0,0.0,0.0,0.0,0.0,0.0,0.0,0.0,0.0,0.0,0.0,0.0,0.0,0.0,0.0,0.0,0.0,0.0,0.0,0.0,0.0,0.0,0.0,0.0,0.0,0.0,0.0,0.0,0.0,0.0,0.0,0.0,0.0,0.0,0.0,0.0,0.0,0.0,0.0,0.0,0.0,0.0,0.0,0.0,0.0,0.0,0.0,0.0,0.0,0.0,0.0,0.0,0.0,0.0,0.0,0.0,0.0,0.0,0.0,0.0,0.0,0.0,0.0,0.0,0.0,0.0,0.0,0.0,0.0,0.0,0.0,0.0,0.0,0.0,0.0,0.0,0.0,0.0,0.0,0.0,0.0,0.0,0.0,0.0,0.0,0.0,0.0,0.0,0.0,0.0,0.0,0.0,0.0,0.0,0.0,0.0,0.0,0.0,0.0,0.0,0.0,0.0,0.0,0.0,0.0,0.0,0.0,0.0,0.0,0.0,0.0,0.0,0.0,0.0,0.0,0.0,0.0,0.0,0.0,0.0,0.0,0.0,0.0,0.0,0.0,0.0,0.0,0.0,0.0,0.0,0.0,0.0,0.0,0.0,0.0,0.0,0.0,0.0,0.0,0.0,0.0,0.0,0.0,0.0,0.0,0.0,0.0,0.0,0.0,0.0,0.0,0.0,0.0,0.0,0.0,0.0,0.0,0.0,0.0,0.0,0.0,0.0,0.0,0.0,0.0,0.0,0.0,0.0,0.0,0.0,0.0,0.0,0.0,0.0,0.0,0.0,0.0,0.0,0.0,0.0,0.0,0.0,0.0,0.0,0.0,0.0,0.0,0.0,0.0,0.0,0.0,0.0,0.0,0.0,0.0,0.0,0.0,0.0,0.0,0.0,0.0,0.0,0.0,0.0,0.0,0.0,0.0,0.0,0.0,0.0,0.0,0.0,0.0,0.0,0.0,0.0,0.0,0.0,0.0,0.0,0.0,0.0,0.0,0.0,0.0,0.0,0.0,0.0,0.0,0.0,0.0,0.0,0.0,0.0,0.0,0.0,0.0,0.0,0.0,0.0,0.0,0.0,0.0,0.0,0.0,0.0,0.0,0.0,0.0,0.0,0.0,0.0,0.0,0.0,0.0,0.0,0.0,0.0,0.0,0.0,0.0,0.0,0.0,0.0,0.0,0.0,0.0,0.0,0.0,0.0,0.0,0.0,0.0,0.0,0.0,0.0,0.0,0.0,0.0,0.0,0.0,0.0,0.0,0.0,0.0,0.0,0.0,0.0,0.0,0.0,0.0,0.0,0.0,0.0,0.0,0.0,0.0,0.0,0.0,0.0,0.0,0.0,0.0,0.0,0.0,0.0,0.0,0.0,0.0,0.0,0.0,0.0,0.0,0.0,0.0,0.0,0.0,0.0,0.0,0.0,0.0,0.0,0.0,0.0,0.0,0.0,0.0,0.0,0.0,0.0,0.0,0.0,0.0,0.0,0.0,0.0,0.0,0.0,0.0,0.0,0.0,0.0,0.0,0.0,0.0,0.0,0.0,0.0,0.0,0.0,0.0,0.0,0.0,0.0,0.0,0.0,0.0,0.0,0.0,0.0,0.0,0.0,0.0,0.0,0.0,0.0,0.0,0.0,0.0,0.0,0.0,0.0,0.0,0.0,0.0,0.0,0.0,0.0,0.0,0.0,0.0,0.0,0.0,0.0,0.0,0.0,0.0,0.0,0.0,0.0,0.0,0.0,0.0,0.0,0.0,0.0,0.0,0.0,0.0,0.0,0.0,0.0,0.0,0.0,0.0,0.0,0.0,0.0,0.0,0.0,0.0,0.0,0.0,0.0,0.0,0.0,0.0,0.0,0.0,0.0,0.0,0.0,0.0,0.0,0.0,0.0,0.0,0.0,0.0,0.0,0.0,0.0,0.0,0.0,0.0,0.0,0.0,0.0,0.0,0.0,0.0,0.0,0.0,0.0,0.0,0.0,0.0,0.0,0.0,0.0,0.0,0.0,0.0,0.0,0.0,0.0,0.0,0.0,0.0,0.0,0.0,0.0,0.0,0.0,0.0,0.0,0.0,0.0,0.0,0.0,0.0,0.0,0.0,0.0,0.0,0.0,0.0,0.0,0.0,0.0,0.0,0.0,0.0,0.0,0.0,0.0,0.0,0.0,0.0,0.0,0.0,0.0,0.0,0.0,0.0,0.0,0.0,0.0,0.0,0.0,0.0,0.0,0.0,0.0,0.0,0.0,0.0,0.0,0.0,0.0,0.0,0.0,0.0,0.0,0.0,0.0,0.0,0.0,0.0,0.0,0.0,0.0,0.0,0.0,0.0,0.0,0.0,0.0,0.0,0.0,0.0,0.0,0.0,0.0,0.0,0.0,0.0,0.0,0.0,0.0,0.0,0.0,0.0,0.0,0.0,0.0,0.0,0.0,0.0,0.0,0.0,0.0,0.0,0.0,0.0,0.0,0.0,0.0,0.0,0.0,0.0,0.0,0.0,0.0,0.0,0.0,0.0,0.0,0.0,0.0,0.0,0.0,0.0,0.0,0.0,0.0,0.0,0.0,0.0,0.0,0.0,0.0,0.0,0.0,0.0,0.0,0.0,0.0,0.0,0.0,0.0,0.0,0.0,0.0,0.0,0.0,0.0,0.0,0.0,0.0,0.0,0.0,0.0,0.0,0.0,0.0,0.0,0.0,0.0,0.0,0.0,0.0,0.0,0.0,0.0,0.0,0.0,0.0,0.0,0.0,0.0,0.0,0.0,0.0,0.0,0.0,0.0,0.0,0.0,0.0,0.0,0.0,0.0,0.0,0.0,0.0,0.0,0.0,0.0,0.0,0.0,0.0,0.0,0.0,0.0,0.0,0.0,0.0,0.0,0.0,0.0,0.0,0.0,0.0,0.0,0.0,0.0,0.0,0.0,0.0,0.0,0.0,0.0,0.0,0.0,0.0,0.0,0.0,0.0,0.0,0.0,0.0,0.0,0.0,0.0,0.0,0.0,0.0,0.0,0.0,0.0,0.0,0.0,0.0,0.0,0.0,0.0,0.0,0.0,-0.2359,0.0,0.0,0.0,0.0,0.0,0.0,0.0,0.0,0.0,0.0,0.0,0.0,0.0,0.0,0.0,0.0,0.0,0.0,0.0,0.0,0.0,0.0,0.0,0.0,0.0,0.0,0.0,0.0,0.0,0.0,0.0,0.0,0.0,0.0,0.0,0.0,0.0,0.0,0.0,0.0,0.0,0.0,0.0,0.0,0.0,0.0,0.0,0.0,0.0,0.0,0.0,0.0,0.0,0.0,0.0,0.0,0.0,0.0,0.0,0.0,0.0,0.0,0.0,0.0,0.0,0.0,0.0,0.0,0.0,0.0,0.0,0.0,0.0,0.0,0.0,0.0,0.0,0.0,0.0,0.0,0.0,0.0,0.0,0.0,0.0,0.0,0.0,0.0,0.0,0.0,0.0,0.0,0.0,0.0,0.0,0.0,0.0,0.0,0.0,0.0,0.0,0.0,0.0,0.0,0.0,0.0,0.0,0.0,0.0,0.0,-0.1649,-0.1913,-0.2113,-0.22,-0.2171,0.0,0.0,0.0,0.0,0.0,0.0,0.0,0.0,0.0,0.0,0.0,0.0,0.0,0.0,0.0,0.0,0.0,0.0,0.0,0.0,0.0,0.0,0.0,0.0,0.0,0.0,0.0,0.0,0.0,0.0,0.0,0.0,0.0,0.0,0.0,0.0,0.0,0.0,0.0,0.0,0.0,0.0,0.0,0.0,0.0,0.0,0.0,0.0,0.0,0.0,0.0,0.0,0.0,0.0,0.0,0.0,0.0,0.0,0.0,0.0,0.0,0.0,0.0,0.0,0.0,0.0,0.0,0.0,0.0,0.0,0.0,0.0,0.0,0.0,0.0,0.0,0.0,0.0,0.0,0.0,0.0,0.0,0.0,0.0,0.0,0.0,0.0,0.0,0.0,0.0,0.0,0.0,0.0,0.0,0.0,0.0,0.0,0.0,0.0,0.0,0.0,0.0,0.0,0.0,0.0,0.0,0.0,0.0,0.0,0.0,0.0,0.0,-0.1884,-0.1985,-0.198,0.0,0.0,0.0,0.0,0.0,0.0,0.0,0.0,0.0,0.0,0.0,0.0,0.0,0.0,0.0,0.0,0.0,0.0,0.0,0.0,0.0,0.0,0.0,0.0,0.0,0.0,0.0,0.0,0.0,0.0,0.0,0.0,0.0,0.0,0.0,0.0,0.0,0.0,0.0,0.0,0.0,0.0,0.0,0.0,0.0,0.0,0.0,0.0,0.0,0.0,0.0,0.0,0.0,0.0,0.0,0.0,0.0,0.0,0.0,0.0,0.0,0.0,0.0,0.0,0.0,0.0,0.0,0.0,0.0,0.0,0.0,0.0,0.0,0.0,0.0,0.0,0.0,0.0,0.0,0.0,0.0,0.0,0.0,0.0,0.0,0.0,0.0,0.0,0.0,0.0,0.0,0.0,0.0,0.0,0.0,0.0,0.0,0.0,0.0,0.0,0.0,0.0,0.0,0.0,0.0,0.0,0.0,0.0,0.0,0.0,-0.0739,-0.1143,-0.1345,0.0,-0.1862,0.0,0.0,0.0,0.0,0.0,0.0,0.0,0.0,0.0,0.0,0.0,0.0,0.0,0.0,0.0,0.0,0.0,0.0,0.0,0.0,0.0,0.0,0.0,0.0,0.0,0.0,0.0,0.0,0.0,0.0,0.0,0.0,0.0,0.0,0.0,0.0,0.0,0.0,0.0,0.0,0.0,0.0,0.0,0.0,0.0,0.0,0.0,0.0,0.0,0.0,0.0,0.0,0.0,0.0,0.0,0.0,0.0,0.0,0.0,0.0,0.0,0.0,0.0,0.0,0.0,0.0,0.0,0.0,0.0,0.0,0.0,0.0,0.0,0.0,0.0,0.0,0.0,0.0,0.0,0.0,0.0,0.0,0.0,0.0,0.0,0.0,0.0,0.0,0.0,0.0,0.0,0.0,0.0,0.0,0.0,0.0,0.0,0.0,0.0,0.0,0.0,0.0,0.0,0.0,0.0,0.0,0.0,0.0,0.0,0.0,-0.0068,-0.0207,-0.0758,-0.12,0.0,0.0,0.0,0.0,0.0,0.0,0.0,0.0,0.0,0.0,0.0,0.0,0.0,0.0,0.0,0.0,0.0,0.0,0.0,0.0,0.0,0.0,0.0,0.0,0.0,0.0,0.0,0.0,0.0,0.0,0.0,0.0,0.0,0.0,0.0,0.0,0.0,0.0,0.0,0.0,0.0,0.0,0.0,0.0,0.0,0.0,0.0,0.0,0.0,0.0,0.0,0.0,0.0,0.0,0.0,0.0,0.0,0.0,0.0,0.0,0.0,0.0,0.0,0.0,0.0,0.0,0.0,0.0,0.0,0.0,0.0,0.0,0.0,0.0,0.0,0.0,0.0,0.0,0.0,0.0,0.0,0.0,0.0,0.0,0.0,0.0,0.0,0.0,0.0,0.0,0.0,0.0,0.0,0.0,0.0,0.0,0.0,0.0,0.0,0.0,0.0,0.0,0.0,0.0,0.0,0.0,0.0,0.0,0.0,0.0,0.0814,0.055,0.042,-0.021,-0.0741,-0.1177,0.0,0.0,0.0,0.0,0.0,0.0,0.0,0.0,0.0,0.0,0.0,0.0,0.0,0.0,0.0,0.0,0.0,0.0,0.0,0.0,0.0,0.0,0.0,0.0,0.0,0.0,0.0,0.0,0.0,0.0,0.0,0.0,0.0,0.0,0.0,0.0,0.0,0.0,0.0,0.0,0.0,0.0,0.0,0.0,0.0,0.0,0.0,0.0,0.0,0.0,0.0,0.0,0.0,0.0,0.0,0.0,0.0,0.0,0.0,0.0,0.0,0.0,0.0,0.0,0.0,0.0,0.0,0.0,0.0,0.0,0.0,0.0,0.0,0.0,0.0,0.0,0.0,0.0,0.0,0.0,0.0,0.0,0.0,0.0,0.0,0.0,0.0,0.0,0.0,0.0,0.0,0.0,0.0,0.0,0.0,0.0,0.0,0.0,0.0,0.0,0.0,0.0,0.0,0.0,0.0,0.0,0.0,0.0,0.1347,0.1173,0.084,0.0421,0.021,-0.0135,0.0,0.0,0.0,0.0,0.0,0.0,0.0,0.0,0.0,0.0,0.0,0.0,0.0,0.0,0.0,0.0,0.0,0.0,0.0,0.0,0.0,0.0,0.0,0.0,0.0,0.0,0.0,0.0,0.0,0.0,0.0,0.0,0.0,0.0,0.0,0.0,0.0,0.0,0.0,0.0,0.0,0.0,0.0,0.0,0.0,0.0,0.0,0.0,0.0,0.0,0.0,0.0,0.0,0.0,0.0,0.0,0.0,0.0,0.0,0.0,0.0,0.0,0.0,0.0,0.0,0.0,0.0,0.0,0.0,0.0,0.0,0.0,0.0,0.0,0.0,0.0,0.0,0.0,0.0,0.0,0.0,0.0,0.0,0.0,0.0,0.0,0.0,0.0,0.0,0.0,0.0,0.0,0.0,0.0,0.0,0.0,0.0,0.0,0.0,0.0,0.0,0.0,0.0,0.0,0.0,0.0,0.0,0.0,0.0,0.159,0.1442,0.1243,0.0935,0.0575,0.0277,0.0,0.0,0.0,0.0,0.0,0.0,0.0,0.0,0.0,0.0,0.0,0.0,0.0,0.0,0.0,0.0,0.0,0.0,0.0,0.0,0.0,0.0,0.0,0.0,0.0,0.0,0.0,0.0,0.0,0.0,0.0,0.0,0.0,0.0,0.0,0.0,0.0,0.0,0.0,0.0,0.0,0.0,0.0,0.0,0.0,0.0,0.0,0.0,0.0,0.0,0.0,0.0,0.0,0.0,0.0,0.0,0.0,0.0,0.0,0.0,0.0,0.0,0.0,0.0,0.0,0.0,0.0,0.0,0.0,0.0,0.0,0.0,0.0,0.0,0.0,0.0,0.0,0.0,0.0,0.0,0.0,0.0,0.0,0.0,0.0,0.0,0.0,0.0,0.0,0.0,0.0,0.0,0.0,0.0,0.0,0.0,0.0,0.0,0.0,0.0,0.0,0.0,0.0,0.0,0.0,0.0,0.0,0.0,0.0,0.1704,0.0,0.1503,0.133,0.0952,0.0703,0.0,0.0,0.0,0.0,0.0,0.0,0.0,0.0,0.0,0.0,0.0,0.0,0.0,0.0,0.0,0.0,0.0,0.0,0.0,0.0,0.0,0.0,0.0,0.0,0.0,0.0,0.0,0.0,0.0,0.0,0.0,0.0,0.0,0.0,0.0,0.0,0.0,0.0,0.0,0.0,0.0,0.0,0.0,0.0,0.0,0.0,0.0,0.0,0.0,0.0,0.0,0.0,0.0,0.0,0.0,0.0,0.0,0.0,0.0,0.0,0.0,0.0,0.0,0.0,0.0,0.0,0.0,0.0,0.0,0.0,0.0,0.0,0.0,0.0,0.0,0.0,0.0,0.0,0.0,0.0,0.0,0.0,0.0,0.0,0.0,0.0,0.0,0.0,0.0,0.0,0.0,0.0,0.0,0.0,0.0,0.0,0.0,0.0,0.0,0.0,0.0,0.0,0.0,0.0,0.0,0.0,0.0,0.0,0.166,0.1674,0.1795,0.1745,0.1515,0.1331,0.1125,0.0,0.0,0.0,0.0,0.0,0.0,0.0,0.0,0.0,0.0,0.0,0.0,0.0,0.0,0.0,0.0,0.0,0.0,0.0,0.0,0.0,0.0,0.0,0.0,0.0,0.0,0.0,0.0,0.0,0.0,0.0,0.0,0.0,0.0,0.0,0.0,0.0,0.0,0.0,0.0,0.0,0.0,0.0,0.0,0.0,0.0,0.0,0.0,0.0,0.0,0.0,0.0,0.0,0.0,0.0,0.0,0.0,0.0,0.0,0.0,0.0,0.0,0.0,0.0,0.0,0.0,0.0,0.0,0.0,0.0,0.0,0.0,0.0,0.0,0.0,0.0,0.0,0.0,0.0,0.0,0.0,0.0,0.0,0.0,0.0,0.0,0.0,0.0,0.0,0.0,0.0,0.0,0.0,0.0,0.0,0.0,0.0,0.0,0.0,0.0,0.0,0.0,0.0,0.0,0.0,0.0,0.0,0.0,0.0,0.1897,0.2052,0.1941,0.1552,0.1492,0.1287,0.0,0.0,0.0,0.0,0.0,0.0,0.0,0.0,0.0,0.0,0.0,0.0,0.0,0.0,0.0,0.0,0.0,0.0,0.0,0.0,0.0,0.0,0.0,0.0,0.0,0.0,0.0,0.0,0.0,0.0,0.0,0.0,0.0,0.0,0.0,0.0,0.0,0.0,0.0,0.0,0.0,0.0,0.0,0.0,0.0,0.0,0.0,0.0,0.0,0.0,0.0,0.0,0.0,0.0,0.0,0.0,0.0,0.0,0.0,0.0,0.0,0.0,0.0,0.0,0.0,0.0,0.0,0.0,0.0,0.0,0.0,0.0,0.0,0.0,0.0,0.0,0.0,0.0,0.0,0.0,0.0,0.0,0.0,0.0,0.0,0.0,0.0,0.0,0.0,0.0,0.0,0.0,0.0,0.0,0.0,0.0,0.0,0.0,0.0,0.0,0.0,0.0,0.0,0.0,0.0,0.0,0.0,0.0,0.0,0.2295,0.2229,0.204,0.1805,0.1647,0.1441,0.1191,0.0,0.0,0.0,0.0,0.0,0.0,0.0,0.0,0.0,0.0,0.0,0.0,0.0,0.0,0.0,0.0,0.0,0.0,0.0,0.0,0.0,0.0,0.0,0.0,0.0,0.0,0.0,0.0,0.0,0.0,0.0,0.0,0.0,0.0,0.0,0.0,0.0,0.0,0.0,0.0,0.0,0.0,0.0,0.0,0.0,0.0,0.0,0.0,0.0,0.0,0.0,0.0,0.0,0.0,0.0,0.0,0.0,0.0,0.0,0.0,0.0,0.0,0.0,0.0,0.0,0.0,0.0,0.0,0.0,0.0,0.0,0.0,0.0,0.0,0.0,0.0,0.0,0.0,0.0,0.0,0.0,0.0,0.0,0.0,0.0,0.0,0.0,0.0,0.0,0.0,0.0,0.0,0.0,0.0,0.0,0.0,0.0,0.0,0.0,0.0,0.0,0.0,0.0,0.0,0.0,0.0,0.0,0.0,0.2728,0.2404,0.2273,0.2195,0.1875,0.1659,0.0,0.0,0.0,0.0,0.0,0.0,0.0,0.0,0.0,0.0,0.0,0.0,0.0,0.0,0.0,0.0,0.0,0.0,0.0,0.0,0.0,0.0,0.0,0.0,0.0,0.0,0.0,0.0,0.0,0.0,0.0,0.0,0.0,0.0,0.0,0.0,0.0,0.0,0.0,0.0,0.0,0.0,0.0,0.0,0.0,0.0,0.0,0.0,0.0,0.0,0.0,0.0,0.0,0.0,0.0,0.0,0.0,0.0,0.0,0.0,0.0,0.0,0.0,0.0,0.0,0.0,0.0,0.0,0.0,0.0,0.0,0.0,0.0,0.0,0.0,0.0,0.0,0.0,0.0,0.0,0.0,0.0,0.0,0.0,0.0,0.0,0.0,0.0,0.0,0.0,0.0,0.0,0.0,0.0,0.0,0.0,0.0,0.0,0.0,0.0,0.0,0.0,0.0,0.0,0.0,0.0,0.0,0.0,0.0,0.2794,0.2817,0.2746,0.243,0.2361,0.2,0.0,0.0,0.0,0.0,0.0,0.0,0.0,0.0,0.0,0.0,0.0,0.0,0.0,0.0,0.0,0.0,0.0,0.0,0.0,0.0,0.0,0.0,0.0,0.0,0.0,0.0,0.0,0.0,0.0,0.0,0.0,0.0,0.0,0.0,0.0,0.0,0.0,0.0,0.0,0.0,0.0,0.0,0.0,0.0,0.0,0.0,0.0,0.0,0.0,0.0,0.0,0.0,0.0,0.0,0.0,0.0,0.0,0.0,0.0,0.0,0.0,0.0,0.0,0.0,0.0,0.0,0.0,0.0,0.0,0.0,0.0,0.0,0.0,0.0,0.0,0.0,0.0,0.0,0.0,0.0,0.0,0.0,0.0,0.0,0.0,0.0,0.0,0.0,0.0,0.0,0.0,0.0,0.0,0.0,0.0,0.0,0.0,0.0,0.0,0.0,0.0,0.0,0.0,0.0,0.0,0.0,0.0,0.0,0.2835,0.3132,0.3215,0.3137,0.2901,0.2682,0.2318,0.0,0.0,0.0,0.0,0.0,0.0,0.0,0.0,0.0,0.0,0.0,0.0,0.0,0.0,0.0,0.0,0.0,0.0,0.0,0.0,0.0,0.0,0.0,0.0,0.0,0.0,0.0,0.0,0.0,0.0,0.0,0.0,0.0,0.0,0.0,0.0,0.0,0.0,0.0,0.0,0.0,0.0,0.0,0.0,0.0,0.0,0.0,0.0,0.0,0.0,0.0,0.0,0.0,0.0,0.0,0.0,0.0,0.0,0.0,0.0,0.0,0.0,0.0,0.0,0.0,0.0,0.0,0.0,0.0,0.0,0.0,0.0,0.0,0.0,0.0,0.0,0.0,0.0,0.0,0.0,0.0,0.0,0.0,0.0,0.0,0.0,0.0,0.0,0.0,0.0,0.0,0.0,0.0,0.0,0.0,0.0,0.0,0.0,0.0,0.0,0.0,0.0,0.0,0.0,0.0,0.0,0.0,0.0,0.2918,0.3521,0.3526,0.3526,0.3524,0.2994,0.255,0.0,0.0,0.0,0.0,0.0,0.0,0.0,0.0,0.0,0.0,0.0,0.0,0.0,0.0,0.0,0.0,0.0,0.0,0.0,0.0,0.0,0.0,0.0,0.0,0.0,0.0,0.0,0.0,0.0,0.0,0.0,0.0,0.0,0.0,0.0,0.0,0.0,0.0,0.0,0.0,0.0,0.0,0.0,0.0,0.0,0.0,0.0,0.0,0.0,0.0,0.0,0.0,0.0,0.0,0.0,0.0,0.0,0.0,0.0,0.0,0.0,0.0,0.0,0.0,0.0,0.0,0.0,0.0,0.0,0.0,0.0,0.0,0.0,0.0,0.0,0.0,0.0,0.0,0.0,0.0,0.0,0.0,0.0,0.0,0.0,0.0,0.0,0.0,0.0,0.0,0.0,0.0,0.0,0.0,0.0,0.0,0.0,0.0,0.0,0.0,0.0,0.0,0.0,0.0,0.0,0.0,0.0,0.0,0.312,0.3522,0.3682,0.3682,0.3526,0.32,0.2824,0.0,0.0,0.0,0.0,0.0,0.0,0.0,0.0,0.0,0.0,0.0,0.0,0.0,0.0,0.0,0.0,0.0,0.0,0.0,0.0,0.0,0.0,0.0,0.0,0.0,0.0,0.0,0.0,0.0,0.0,0.0,0.0,0.0,0.0,0.0,0.0,0.0,0.0,0.0,0.0,0.0,0.0,0.0,0.0,0.0,0.0,0.0,0.0,-0.3615,0.0,0.0,0.0,0.0,0.0,0.0,0.0,0.0,0.0,0.0,0.0,0.0,0.0,0.0,0.0,0.0,0.0,0.0,0.0,0.0,0.0,0.0,0.0,0.0,0.0,0.0,0.0,0.0,0.0,0.0,0.0,0.0,0.0,0.0,0.0,0.0,0.0,0.0,0.0,0.0,0.0,0.0,0.0,0.0,0.0,0.0,0.0,0.0,0.0,0.0,0.0,0.0,0.0,0.0,0.0,0.0,0.0,0.0,0.0,0.3215,0.36,0.3763,0.3763,0.3604,0.3295,0.2916,0.0,0.0,0.0,0.0,0.0,0.0,0.0,0.0,0.0,0.0,0.0,0.0,0.0,0.0,0.0,0.0,0.0,0.0,0.0,0.0,0.0,0.0,0.0,0.0,0.0,0.0,0.0,0.0,0.0,0.0,0.0,0.0,0.0,0.0,0.0,0.0,0.0,0.0,0.0,0.0,0.0,0.0,0.0,0.0,0.0,0.0,0.0,0.0,0.0,0.0,0.0,0.0,0.0,0.0,0.0,0.0,0.0,0.0,0.0,0.0,0.0,0.0,0.0,0.0,0.0,0.0,0.0,0.0,0.0,0.0,0.0,0.0,0.0,0.0,0.0,0.0,0.0,0.0,0.0,0.0,0.0,0.0,0.0,0.0,0.0,0.0,0.0,0.0,0.0,0.0,0.0,0.0,0.0,0.0,0.0,0.0,0.0,0.0,0.0,0.0,0.0,0.0,0.0,0.0,0.0,0.0,0.0,0.3149,0.3304,0.3759,0.3841,0.3841,0.3763,0.3374,0.2993,0.2701,0.0,0.0,0.0,0.0,0.0,0.0,0.0,0.0,0.0,0.0,0.0,0.0,0.0,0.0,0.0,0.0,0.0,0.0,0.0,0.0,0.0,0.0,0.0,0.0,0.0,0.0,0.0,0.0,0.0,0.0,0.0,0.0,0.0,0.0,0.0,0.0,0.0,0.0,-0.2588,-0.283,0.0,0.0,0.0,0.0,0.0,0.0,0.0,0.0,-0.335,0.0,0.0,0.0,0.0,0.0,0.0,0.0,0.0,0.0,0.0,0.0,0.0,0.0,0.0,0.0,0.0,0.0,0.0,0.0,0.0,0.0,0.0,0.0,0.0,0.0,0.0,0.0,0.0,0.0,0.0,0.0,0.0,0.0,0.0,0.0,0.0,0.0,0.0,0.0,0.0,0.0,0.0,0.0,0.0,0.0,0.0,0.0,0.0,0.0,0.0,0.0,0.0,0.0,0.0,0.0,0.0,0.3207,0.3353,0.3513,0.3763,0.3841,0.3841,0.3763,0.3374,0.3069,0.2923,0.0,0.0,0.0,0.0,0.0,0.0,0.0,0.0,0.0,0.0,0.0,0.0,0.0,0.0,0.0,0.0,0.0,0.0,0.0,0.0,0.0,0.0,0.0,0.0,0.0,0.0,0.0,0.0,0.0,0.0,0.0,0.0,0.0,0.0,0.0,0.0,0.0,0.0,0.0,-0.2575,-0.2693,0.0,0.0,0.0,0.0,0.0,0.0,0.0,0.0,-0.3333,0.0,0.0,0.0,0.0,0.0,0.0,0.0,0.0,0.0,0.0,0.0,0.0,0.0,0.0,0.0,0.0,0.0,0.0,0.0,0.0,0.0,0.0,0.0,0.0,0.0,0.0,0.0,0.0,0.0,0.0,0.0,0.0,0.0,0.0,0.0,0.0,0.0,0.0,0.0,0.0,0.0,0.0,0.0,0.0,0.0,0.0,0.0,0.0,0.0,0.0,0.0,0.0,0.0,0.0,0.0,0.3651,0.3749,0.3919,0.4073,0.3999,0.3921,0.3921,0.3374,0.3071,0.0,0.0,0.0,0.0,0.0,0.0,0.0,0.0,0.0,0.0,0.0,0.0,0.0,0.0,0.0,0.0,0.0,0.0,0.0,0.0,0.0,0.0,0.0,0.0,0.0,0.0,0.0,0.0,0.0,0.0,0.0,0.0,0.0,0.0,0.0,0.0,0.0,0.0,0.0,0.0,-0.2591,-0.2681,-0.2774,0.0,0.0,0.0,0.0,0.0,0.0,-0.3079,-0.3246,0.0,0.0,0.0,0.0,0.0,0.0,0.0,0.0,0.0,0.0,0.0,0.0,0.0,0.0,0.0,0.0,0.0,0.0,0.0,0.0,0.0,0.0,0.0,0.0,0.0,0.0,0.0,0.0,0.0,0.0,0.0,0.0,0.0,0.0,0.0,0.0,0.0,0.0,0.0,0.0,0.0,0.0,0.0,0.0,0.0,0.0,0.0,0.0,0.0,0.0,0.0,0.0,0.0,0.0,0.0,0.4085,0.413,0.4231,0.4384,0.4233,0.4157,0.4079,0.3532,0.3146,0.0,0.0,0.0,0.0,0.0,0.0,0.0,0.0,0.0,0.0,0.0,0.0,0.0,0.0,0.0,0.0,0.0,0.0,0.0,0.0,0.0,0.0,0.0,0.0,0.0,0.0,0.0,0.0,0.0,0.0,0.0,0.0,0.0,0.0,0.0,0.0,0.0,0.0,0.0,0.0,0.0,-0.2755,-0.2873,-0.285,0.0,0.0,0.0,0.0,-0.2818,-0.2992,0.0,0.0,0.0,0.0,0.0,0.0,0.0,0.0,0.0,0.0,0.0,0.0,0.0,0.0,0.0,0.0,0.0,0.0,0.0,0.0,0.0,0.0,0.0,0.0,0.0,0.0,0.0,0.0,0.0,0.0,0.0,0.0,0.0,0.0,0.0,0.0,0.0,0.0,0.0,0.0,0.0,0.0,0.0,0.0,0.0,0.0,0.0,0.0,0.0,0.0,0.0,0.0,0.0,0.0,0.0,0.0,0.4085,0.428,0.4384,0.4384,0.4384,0.4309,0.4079,0.3841,0.3526,0.0,0.0,0.0,0.0,0.0,0.0,0.0,0.0,0.0,0.0,0.0,0.0,0.0,0.0,0.0,0.0,0.0,0.0,0.0,0.0,0.0,0.0,0.0,0.0,0.0,0.0,0.0,0.0,0.0,0.0,0.0,0.0,0.0,0.0,0.0,0.0,0.0,0.0,0.0,0.0,0.0,-0.2816,-0.2932,-0.2941,-0.2937,0.0,0.0,-0.2939,-0.2937,-0.303,0.0,0.0,0.0,0.0,0.0,0.0,0.0,0.0,0.0,0.0,0.0,0.0,0.0,0.0,0.0,0.0,0.0,0.0,0.0,0.0,0.0,0.0,0.0,0.0,0.0,0.0,0.0,0.0,0.0,0.0,0.0,0.0,0.0,0.0,0.0,0.0,0.0,0.0,0.0,0.0,0.0,0.0,0.0,0.0,0.0,0.0,0.0,0.0,0.0,0.0,0.0,0.0,0.0,0.0,0.0,0.4759,0.4907,0.5002,0.509,0.509,0.4851,0.4693,0.4618,0.4075,0.3701,0.0,0.0,0.0,0.0,0.0,0.0,0.0,0.0,0.0,0.0,0.0,0.0,0.0,0.0,0.0,0.0,0.0,0.0,0.0,0.0,0.0,0.0,0.0,0.0,0.0,0.0,0.0,0.0,0.0,0.0,0.0,0.0,0.0,0.0,0.0,0.0,0.0,0.0,0.0,0.0,0.0,0.0,-0.2947,-0.2988,0.0,0.0,0.0,-0.2821,-0.2727,0.0,0.0,0.0,0.0,0.0,0.0,0.0,0.0,0.0,0.0,0.0,0.0,0.0,0.0,0.0,0.0,0.0,0.0,0.0,0.0,0.0,0.0,0.0,0.0,0.0,0.0,0.0,0.0,0.0,0.0,0.0,0.0,0.0,0.0,0.0,0.0,0.0,0.0,0.0,0.0,0.0,0.0,0.0,0.0,0.0,0.0,0.0,0.0,0.0,0.0,0.0,0.0,0.0,0.0,0.0,0.0,0.0,0.5507,0.5567,0.5562,0.5562,0.5323,0.5162,0.5085,0.4462,0.0,0.0,0.0,0.0,0.0,0.0,0.0,0.0,0.0,0.0,0.0,0.0,0.0,0.0,0.0,0.0,0.0,0.0,0.0,0.0,0.0,0.0,0.0,0.0,0.0,0.0,0.0,0.0506,0.0,0.0,0.0,0.0,0.0,0.0,0.0,0.0,0.0,0.0,0.0,0.0,0.0,0.0,-0.2735,-0.2789,-0.2843,-0.2878,0.0,0.0,-0.2494,-0.2495,-0.255,-0.2611,0.0,0.0,0.0,0.0,0.0,0.0,0.0,0.0,0.0,0.0,0.0,0.0,0.0,0.0,0.0,0.0,0.0,0.0,0.0,0.0,0.0,0.0,0.0,0.0,0.0,0.0,0.0,0.0,0.0,0.0,0.0,0.0,0.0,0.0,0.0,0.0,0.0,0.0,0.0,0.0,0.0,0.0,0.0,0.0,0.0,0.0,0.0,0.0,0.0,0.0,0.0,0.0,0.0,0.0,0.0,0.5507,0.557,0.5637,0.5562,0.5562,0.5482,0.5243,0.5007,0.4642,0.0,0.0,0.0,0.0,0.0,0.0,0.0,0.0,0.0,0.0,0.0,0.0,0.0,0.0,0.0,0.0,0.0,0.0,0.0,0.0,0.0,0.0,0.0,0.0,0.0,0.0,0.0,0.0,0.0,0.0,0.0,0.0,0.0,0.0,0.0,0.0,0.0,0.0,0.0,0.0,0.0,-0.2328,-0.2374,-0.2321,-0.2349,0.0,0.0,-0.2348,-0.2349,-0.2502,-0.2566,-0.2566,0.0,0.0,0.0,0.0,0.0,0.0,0.0,0.0,0.0,0.0,0.0,0.0,0.0,0.0,0.0,0.0,0.0,0.0,0.0,0.0,0.0,0.0,0.0,0.0,0.0,0.0,0.0,0.0,0.0,0.0,0.0,0.0,0.0,0.0,0.0,0.0,0.0,0.0,0.0,0.0,0.0,0.0,0.0,0.0,0.0,0.0,0.0,0.0,0.0,0.0,0.0,0.0,0.0,0.6145,0.6388,0.6374,0.6405,0.6402,0.6251,0.6099,0.5944,0.5547,0.5137,0.0,0.0,0.0,0.0,0.0,0.0,0.0,0.0,0.0,0.0,0.0,0.0,0.0,0.0,0.0,0.0,0.0,0.0,0.0,0.0,0.0,0.0,0.0,0.0,0.0,0.0,0.0,0.0,0.1111,0.1061,0.085,0.0,0.0,0.0,0.0,0.0,0.0,0.0,0.0,0.0,0.0,-0.2279,-0.2323,-0.2366,0.0,0.0,-0.2395,-0.2395,-0.2395,-0.2553,-0.2618,-0.2618,-0.3035,0.0,0.0,0.0,0.0,0.0,0.0,0.0,0.0,0.0,0.0,0.0,0.0,0.0,0.0,0.0,0.0,0.0,0.0,0.0,0.0,0.0,0.0,0.0,0.0,0.0,0.0,0.0,0.0,0.0,0.0,0.0,0.0,0.0,0.0,0.0,0.0,0.0,0.0,0.0,0.0,0.0,0.0,0.0,0.0,0.0,0.0,0.0,0.0,0.0,0.0,0.0,0.0,0.6737,0.7019,0.7019,0.7096,0.7096,0.6868,0.6718,0.6567,0.6173,0.5702,0.0,0.0,0.0,0.0,0.0,0.0,0.0,0.0,0.0,0.0,0.0,0.0,0.0,0.0,0.0,0.0,0.0,0.0,0.0,0.0,0.0,0.0,0.0,0.0,0.0,0.0,0.0,0.0,0.1284,0.1317,0.1326,0.0,0.0,0.0,0.0,0.0,0.0,0.0,0.0,0.0,0.0,-0.2113,-0.2055,-0.2093,-0.212,-0.212,-0.212,-0.2221,-0.2221,-0.2483,-0.2647,-0.2648,0.0,0.0,0.0,0.0,0.0,0.0,0.0,0.0,0.0,0.0,0.0,0.0,0.0,0.0,0.0,0.0,0.0,0.0,0.0,0.0,0.0,0.0,0.0,0.0,0.0,0.0,0.0,0.0,0.0,0.0,0.8025,0.0,0.0,0.0,0.0,0.0,0.0,0.0,0.0,0.0,0.0,0.0,0.0,0.0,0.0,0.0,0.0,0.0,0.0,0.0,0.0,0.0,0.0,0.723,0.718,0.7407,0.7484,0.7484,0.7334,0.718,0.718,0.6795,0.6328,0.5857,0.0,0.0,0.0,0.0,0.0,0.0,0.0,0.0,0.0,0.0,0.0,0.0,0.0,0.0,0.0,0.0,0.0,0.0,0.0,0.0,0.0,0.0,0.0,0.0,0.0,0.0,0.1744,0.175,0.1769,0.0,0.0,0.0,0.0,0.0,0.0,0.0,0.0,0.0,0.0,-0.1116,-0.1633,-0.1568,-0.1598,-0.1617,-0.1617,-0.1617,-0.1718,-0.2022,-0.2186,-0.2353,0.0,0.0,0.0,0.0,0.0,0.0,0.0,0.0,0.0,0.0,0.0,0.0,0.0,0.0,0.0,0.0,0.0,0.0,0.0,0.0,0.0,0.0,0.0,0.0,0.0,0.0,0.0,0.9304,0.9145,0.0,0.0,0.0,0.0,0.0,0.0,0.0,0.0,0.0,0.0,0.0,0.9523,0.9368,0.0,0.0,0.0,0.0,0.0,0.0,0.0,0.0,0.0,0.0,0.0,0.0,0.768,0.7783,0.7872,0.7868,0.7872,0.7872,0.7718,0.7633,0.733,0.6816,0.6029,0.0,0.0,0.0,0.0,0.0,0.0,0.0,0.0,0.0,0.0,0.0,0.0,0.0,0.0,0.0,0.0,0.0,0.0,0.0,0.0,0.0,0.0,0.0,0.0,0.0,0.1865,0.0,0.0,0.0,0.0,0.0,0.0,0.0,0.0,0.0,0.0,0.0,0.0814,0.0663,0.0096,-0.0392,-0.0798,-0.1006,-0.1212,0.0,0.0,0.0,0.0,0.0,0.0,0.0,0.0,0.0,0.0,0.0,0.0,0.0,0.0,-0.2856,-0.2585,-0.2646,-0.2623,-0.2623,0.0,0.0,0.0,0.0,0.0,0.0,0.0,0.0,0.0,0.0,0.0,0.0,0.0,0.0,1.047,0.0,0.9832,0.0,0.0,0.0,0.0,0.0,0.0,0.0,0.0,0.9769,1.0043,1.0269,1.0275,1.0228,0.0,1.0228,0.9641,0.0,0.0,0.0,0.0,0.0,0.0,0.0,0.0,0.8196,0.8322,0.8403,0.8484,0.8412,0.8331,0.8174,0.8016,0.7714,0.7122,0.6338,0.5727,0.5133,0.0,0.0,0.0,0.0,0.0,0.0,0.0,0.0,0.0,0.0,0.0,0.0,0.0,0.0,0.0,0.0,0.0,0.0,0.0,0.0,0.0,0.0,0.0,0.2162,0.0,0.0,0.0,0.0,0.0,0.0,0.0,0.0,0.0,0.2601,0.2362,0.2052,0.1658,0.1374,0.079,0.0101,0.0,0.0,0.0,0.0,0.0,0.0,0.0,-0.212,-0.2321,-0.2459,-0.2599,-0.251,-0.2551,-0.2474,-0.2259,0.0,0.0,-0.2486,-0.2444,-0.2319,-0.2303,-0.2478,-0.2453,-0.2339,-0.2238,-0.2141,0.0,0.0,0.0,0.0,0.0,0.0,0.0,0.0,1.238,1.2174,0.0,1.1245,0.0,0.0,0.0,0.0,0.0,0.9642,0.0,0.0,1.0308,1.0516,1.0737,1.0753,1.0868,1.0987,1.0603,1.0322,1.0287,0.948,0.0,0.0,0.0,0.0,0.0,0.0,0.8703,0.8703,0.9089,0.917,0.9022,0.8784,0.8627,0.8403,0.7863,0.7253,0.6637,0.6405,0.588,0.4908,0.498,0.0,0.0,0.0,0.0,0.0,0.0,0.0,0.0,0.0,0.0,0.0,0.0,0.0,0.0,0.0,0.0,0.0,0.0,0.0,0.0,0.2477,0.0,0.0,0.0,0.0,0.0,0.0,0.0,0.0,0.0,0.0,0.3244,0.3166,0.3074,0.2742,0.0,0.0,0.0,0.0,0.0505,-0.0303,-0.1111,-0.1516,-0.1516,-0.1516,-0.1716,-0.2017,0.0,0.0,-0.2442,-0.2377,-0.2184,-0.1748,-0.1657,-0.1995,-0.2571,-0.2444,-0.243,-0.2287,-0.2273,-0.2367,-0.2331,-0.211,-0.2213,1.6451,0.0,0.0,0.0,0.0,1.4555,1.4494,1.4416,1.3913,1.3394,1.2952,1.2091,0.0,0.0,0.0,0.0,0.0,0.0,1.0746,1.0968,1.1211,1.1427,1.1588,1.1588,1.1627,1.1693,1.145,1.1241,1.0958,1.0512,0.9892,0.9183,0.0,0.0,0.0,0.0,0.8941,0.9165,0.9251,0.9251,0.9246,0.9022,0.8789,0.8403,0.8097,0.7714,0.7253,0.7026,0.6546,0.5883,0.5639,0.0,0.0,0.0,0.0,0.0,0.0,0.0,0.0,0.0,0.0,0.0,0.0,0.0,0.0,0.0,0.0,0.0,0.0,0.0,0.2634,0.2934,0.3054,0.0,0.0,0.0,0.0,0.0,0.0,0.0,0.0,0.0,0.4769,0.4344,0.3917,0.0,0.0,0.3007,0.232,0.1716,0.1211,0.0707,0.0,0.0,-0.0505,-0.0707,-0.0808,-0.101,-0.0923,-0.0731,-0.0743,-0.0749,-0.0751,-0.0536,-0.0539,-0.0647,-0.0856,-0.1173,-0.1377,-0.1355,-0.1336,-0.1118,-0.0809,-0.0707,-0.0707,1.8555,1.7236,1.662,1.6327,1.6161,1.6119,1.6037,1.5725,1.5186,1.4521,1.3861,1.3054,1.2488,1.2077,1.1485,0.0,0.0,0.0,1.1646,1.196,1.2028,1.2069,1.2126,1.2032,1.1908,1.1819,1.1573,1.1399,1.122,1.1088,1.0547,0.9876,0.0,0.0,0.9443,0.9433,0.9544,0.9607,0.9684,0.9571,0.9397,0.9175,0.8865,0.8551,0.8327,0.8021,0.7557,0.7334,0.7026,0.6563,0.6249,0.6023,0.0,0.0,0.0,0.0,0.0,0.0,0.0,0.0,0.0,0.0,0.0,0.2402,0.0,0.0,0.0,0.0,0.2556,0.2741,0.294,0.3248,0.0,0.0,0.0,0.0,0.0,0.0,0.0,0.4747,0.5099,0.5379,0.5625,0.525,0.4775,0.4427,0.4232,0.393,0.3126,0.0,0.2219,0.1615,0.1212,0.0908,0.0707,0.0404,0.0101,-0.0102,0.0206,0.0522,0.0849,0.0852,0.0852,0.0852,0.0853,0.0851,0.0845,0.0633,0.021,-0.0104,-0.0,0.0306,0.0607,0.0808,0.0908,2.0146,1.953,1.8298,1.758,1.7427,1.7445,1.7131,1.6492,1.6183,1.5476,1.4663,1.3998,1.3415,1.275,1.2326,0.0,1.2514,1.2496,1.2606,1.2741,1.2652,1.2529,1.2359,1.2122,1.184,1.1599,1.1358,1.1278,1.1289,1.126,1.1101,1.0665,1.0258,1.009,1.0075,1.0233,1.0199,1.0042,1.0204,1.0092,0.963,0.9251,0.8937,0.8703,0.8479,0.8174,0.7633,0.7561,0.733,0.6942,0.6795,0.6652,0.6364,0.0,0.0,0.0,0.0,0.0,0.0,0.0,0.0,0.0,0.0,0.0,0.0,0.0,0.0,0.0,0.2889,0.0,0.3338,0.349,0.0,0.0,0.0,0.4262,0.426,0.4689,0.5089,0.5294,0.0,0.0,0.6001,0.6037,0.5741,0.5035,0.5037,0.4836,0.383,0.383,0.3528,0.2521,0.2421,0.2321,0.1717,0.1414,0.1014,0.0823,0.0931,0.1455,0.2215,0.233,0.2438,0.2435,0.2439,0.2428,0.2491,0.2381,0.2174,0.1139,0.1345,0.1751,0.1724,0.212,0.2422,2.0286,2.0102,1.9735,1.9389,1.9027,1.8571,1.8174,1.7765,1.6665,1.5972,1.5519,1.4628,1.3955,1.3458,1.3567,1.349,1.3368,1.3328,1.3346,1.3391,1.3118,1.2901,1.266,1.259,1.2485,1.224,1.192,1.176,1.168,1.1416,1.1187,1.1139,1.1067,1.0733,1.0238,1.0314,1.0284,1.0215,1.0288,1.0097,0.963,0.9397,0.9099,0.8946,0.856,0.8327,0.8174,0.8021,0.7791,0.7403,0.733,0.7242,0.721,0.64,0.0,0.0,0.0,0.0,0.0,0.0,0.0,0.0,0.0,0.2898,0.2953,0.0,0.2982,0.0,0.3367,0.3765,0.3912,0.4253,0.0,0.0,0.4738,0.4796,0.4796,0.5085,0.5335,0.5473,0.5842,0.6045,0.6195,0.6286,0.6137,0.5739,0.5639,0.5336,0.4836,0.4636,0.4332,0.3731,0.3428,0.3126,0.2624,0.222,0.2021,0.2131,0.2235,0.2442,0.2656,0.2659,0.2762,0.2965,0.2965,0.296,0.3052,0.3049,0.2948,0.2745,0.2745,0.2843,0.2829,0.313,0.3332,1.9795,1.9795,1.9795,1.9626,1.936,1.9051,1.8572,1.8017,1.6977,1.632,1.5862,1.4951,1.4398,1.4153,1.4328,1.426,1.3951,1.3954,1.3811,1.3668,1.3369,1.3148,1.2986,1.2789,1.2639,1.2408,1.2106,1.1874,1.1648,1.1443,1.1318,1.1232,1.1261,1.1138,1.0789,1.0705,1.0672,1.06,1.0142,0.9844,0.963,0.9322,0.9094,0.9027,0.8713,0.8479,0.8403,0.8327,0.8102,0.7872,0.7718,0.7569,0.7492,0.6939,0.6435,0.0,0.0,0.0,0.0,0.0,0.0,0.0,0.0,0.0,0.0,0.0,0.3523,0.3639,0.3965,0.4292,0.4431,0.4781,0.4927,0.493,0.5066,0.5191,0.5191,0.5371,0.5594,0.571,0.5871,0.607,0.6244,0.6323,0.6286,0.6232,0.6039,0.5837,0.5436,0.5338,0.5135,0.4433,0.4232,0.393,0.3228,0.2823,0.2724,0.3025,0.3127,0.3126,0.3328,0.333,0.343,0.3531,0.3531,0.3531,0.3531,0.3533,0.3633,0.3734,0.3833,0.3731,0.3429,0.3632,0.3835,1.9179,1.9179,1.9179,1.9144,1.9033,1.8921,1.8521,1.777,1.7079,1.6507,1.5896,1.519,1.4908,1.4901,1.4859,1.4696,1.4441,1.4363,1.4172,1.3903,1.3591,1.3367,1.3278,1.2945,1.2599,1.2305,1.215,1.1855,1.149,1.1435,1.1396,1.1272,1.1331,1.1332,1.1338,1.1348,1.123,1.0893,1.0038,0.9657,0.9719,0.9336,0.9106,0.9182,0.8918,0.8669,0.8588,0.8493,0.8408,0.834,0.803,0.7799,0.7638,0.7334,0.7026,0.0,0.6416,0.0,0.0,0.0,0.0,0.0,0.0,0.0,0.0,0.3908,0.4119,0.4459,0.4633,0.4779,0.4969,0.5049,0.5099,0.5099,0.5282,0.5463,0.5463,0.5555,0.5771,0.5871,0.5893,0.5988,0.6181,0.6244,0.6309,0.6391,0.6326,0.6234,0.5834,0.5937,0.5739,0.5035,0.4834,0.4433,0.393,0.353,0.333,0.3629,0.3629,0.3831,0.4033,0.4133,0.4133,0.4234,0.4234,0.4234,0.4234,0.4234,0.4334,0.4537,0.4736,0.4634,0.4029,0.4131,0.4232,1.9179,1.9179,1.9179,1.8914,1.8465,1.8456,1.8271,1.7918,1.6885,1.6337,1.6005,1.5861,1.5839,1.5816,1.5553,1.5395,1.5305,1.4772,1.4494,1.4419,1.4088,1.3792,1.3506,1.3375,1.3053,1.2526,1.2298,1.2003,1.1632,1.1465,1.1443,1.1513,1.1566,1.1581,1.1591,0.0,0.0,0.0,1.0453,1.029,1.0423,1.0028,0.9867,1.0018,0.9523,0.0,0.9423,0.9115,0.8784,0.8627,0.8403,0.0,0.0,0.0,0.0,0.0,0.0,0.0,0.0,0.0,0.0,0.0,0.5952,0.5488,0.471,0.4625,0.4634,0.482,0.4932,0.5155,0.5333,0.545,0.5555,0.5555,0.5644,0.5644,0.5644,0.5644,0.5744,0.5763,0.5844,0.5918,0.5977,0.614,0.6271,0.6298,0.638,0.6331,0.6229,0.6232,0.6137,0.5842,0.5238,0.4834,0.4634,0.4133,0.3934,0.3934,0.4135,0.4336,0.4634,0.4836,0.5039,0.5236,0.5336,0.5233,0.5236,0.5334,0.5236,0.5334,0.5436,0.5336,0.4937,0.5135,0.5336,1.8605,0.0,1.8605,1.8419,0.0,1.8076,1.7986,1.7804,1.7048,1.6558,1.6229,1.5993,1.5835,1.582,1.5477,1.524,1.5064,1.4797,1.4551,1.4382,1.4141,1.3985,1.3783,1.371,1.3419,1.3053,1.2753,1.2372,1.2003,1.1706,1.1618,1.1754,1.168,1.1699,1.186,1.1607,1.131,1.0982,1.088,1.0762,1.0486,1.0151,1.0075,1.0151,0.9797,0.0,0.0,0.0,0.0,0.0,0.0,0.0,0.0,0.8021,0.0,0.7633,0.7403,0.7211,0.7219,0.6988,0.6896,0.7141,0.6905,0.6453,0.5618,0.5477,0.5483,0.5627,0.5635,0.5659,0.5719,0.573,0.5733,0.5733,0.5733,0.5733,0.5733,0.5733,0.5733,0.5738,0.5784,0.5836,0.5899,0.5999,0.6111,0.617,0.6225,0.6268,0.6276,0.6363,0.6337,0.6042,0.5539,0.5233,0.5135,0.5033,0.4834,0.4834,0.4937,0.5035,0.5133,0.5336,0.5436,0.5534,0.5534,0.5534,0.5534,0.5534,0.5636,0.5737,0.5839,0.5839,0.5739,0.5739,0.5634,1.8031,1.8031,1.8031,1.8031,1.7959,1.7861,1.7691,1.7691,0.0,0.0,0.0,1.602,1.5777,1.5628,1.5281,1.4904,1.4718,1.4649,1.4471,1.4201,1.4201,1.4201,1.4137,1.3928,1.371,1.3499,1.3119,1.2673,1.2305,1.1929,1.184,1.1958,1.176,1.187,1.2003,1.1591,1.1235,1.1142,1.1242,1.1066,1.0526,1.0275,1.0197,1.0192,1.0152,1.0024,0.9874,0.9828,0.9627,0.9337,0.9013,0.878,0.8784,0.8403,0.8097,0.794,0.7893,0.7905,0.7907,0.7701,0.7708,0.7978,0.7724,0.7221,0.6532,0.6373,0.626,0.6432,0.6257,0.6171,0.6169,0.5994,0.5822,0.5733,0.5733,0.5733,0.5733,0.5733,0.5733,0.5733,0.5738,0.5768,0.5855,0.5896,0.5934,0.6032,0.6083,0.6086,0.6111,0.6268,0.631,0.6134,0.5837,0.5636,0.5636,0.5536,0.5634,0.5534,0.5636,0.5636,0.5636,0.5737,0.5737,0.5837,0.5737,0.5737,0.5734,0.5737,0.5837,0.6042,0.6042,0.6139,0.6337,0.6037,0.5734,1.8031,1.8031,1.8031,1.8031,1.8031,1.7959,1.787,1.7691,1.7465,1.713,1.6738,1.6697,1.6353,1.5899,1.5622,1.5287,1.5091,1.4783,1.4544,1.4497,1.4569,1.4497,1.4361,1.4137,1.3848,1.3492,1.3046,1.2673,1.2298,1.2077,1.1999,1.2184,1.216,1.2192,1.2242,1.1671,1.1402,1.1558,1.1397,1.1289,1.1166,1.0995,1.0914,1.107,1.0705,1.0491,1.0433,1.0148,0.9854,0.9559,0.9316,0.917,0.8941,0.8703,0.8551,0.8336,0.8329,0.8357,0.8308,0.8465,0.8474,0.8489,0.8406,0.8074,0.7369,0.6956,0.6707,0.6704,0.6523,0.6343,0.6343,0.6343,0.6169,0.6083,0.6083,0.5997,0.5733,0.5733,0.5733,0.5735,0.5733,0.5735,0.5768,0.5841,0.5899,0.5937,0.5996,0.6075,0.6094,0.6203,0.6325,0.631,0.6139,0.5942,0.5929,0.5737,0.5636,0.5534,0.5839,0.5939,0.5939,0.6137,0.6237,0.6237,0.6237,0.6237,0.6237,0.6337,0.6237,0.6339,0.6339,0.6337,0.6437,0.6334,0.6234,1.8031,1.8031,1.8031,1.8031,1.8031,1.8031,1.7951,1.787,1.7789,1.7338,1.6822,1.6632,1.6275,1.5831,1.5471,1.5315,1.517,1.4864,1.4792,1.4721,1.4641,1.4569,1.4497,1.4201,1.3985,1.3783,1.3193,1.282,1.2613,1.2397,1.2395,1.2565,1.2613,1.2637,1.2437,1.2198,1.1952,1.1699,1.1435,1.1267,1.1267,1.1176,1.1176,1.1262,1.1064,1.0842,1.0562,1.045,1.0142,0.9781,0.9544,0.9397,0.9322,0.9018,0.8837,0.8869,0.8806,0.88,0.9019,0.9135,0.9114,0.903,0.8943,0.8815,0.8548,0.7852,0.7323,0.7149,0.6966,0.6697,0.6612,0.652,0.6343,0.6257,0.6257,0.6169,0.608,0.5994,0.5908,0.5908,0.5822,0.5733,0.5733,0.5779,0.5809,0.5814,0.5869,0.5918,0.5977,0.6034,0.6113,0.6225,0.6206,0.6147,0.6155,0.6106,0.6029,0.6034,0.6137,0.6237,0.6237,0.6337,0.6437,0.6437,0.6437,0.6437,0.6437,0.6437,0.6437,0.6437,0.6437,0.6437,0.6437,0.6437,0.6437,1.8031,1.8031,1.8031,1.8031,1.8031,1.8031,1.8031,1.8031,1.8031,1.7586,1.6979,1.6704,1.6304,1.5848,1.5566,1.5408,1.532,1.5111,1.4944,1.4864,1.4713,1.4641,1.4569,1.4274,1.4175,1.4091,1.3366,1.3033,1.3049,1.2829,1.2785,1.2933,1.3073,1.2881,1.2454,1.2546,1.2386,1.1866,1.1527,1.1348,1.1267,1.1267,1.1267,1.1267,1.1267,1.1043,1.0594,1.0557,1.0412,0.996,0.9771,0.9625,0.9625,0.9372,0.9242,0.9399,0.9354,0.9486,0.9762,0.9775,0.9689,0.9519,0.9432,0.9345,0.9345,0.8644,0.8116,0.7768,0.7496,0.7231,0.6969,0.6789,0.6609,0.652,0.652,0.6432,0.6432,0.6257,0.6169,0.6171,0.5997,0.5908,0.5819,0.5819,0.5738,0.5741,0.5733,0.5773,0.5847,0.5866,0.5909,0.5999,0.613,0.6236,0.6263,0.6336,0.6399,0.6426,0.6437,0.6337,0.6337,0.6437,0.6437,0.6437,0.6437,0.6437,0.6437,0.6437,0.6437,0.6437,0.6437,0.6437,0.6437,0.6437,0.6437,1.8031,1.8031,1.8031,1.8031,1.8031,1.8031,1.8031,1.8031,1.8031,1.7826,1.7422,1.7432,1.7055,1.6531,1.6169,1.5945,1.5756,1.5361,1.5086,1.4968,1.4864,1.4792,1.4609,1.4297,1.4298,1.441,1.369,1.3439,1.367,1.329,1.308,1.3028,1.3077,1.2966,1.2705,1.254,1.2369,1.2369,1.1866,1.1527,1.1354,1.1267,1.1267,1.1267,1.1267,1.1043,1.0578,1.0557,1.0412,0.997,0.9846,0.9776,0.9646,0.9818,0.986,0.967,1.0029,1.0278,1.058,1.0366,1.0207,1.0207,0.9772,0.9602,0.9602,0.9345,0.8995,0.8552,0.8113,0.7768,0.7507,0.7418,0.7238,0.6881,0.6792,0.67,0.652,0.6428,0.6343,0.634,0.6343,0.6343,0.6254,0.6169,0.5994,0.5733,0.5733,0.5738,0.576,0.5768,0.5768,0.5814,0.5953,0.613,0.6227,0.6271,0.6336,0.6412,0.6437,0.6437,0.6437,0.6437,0.6437,0.6437,0.6437,0.6437,0.6437,0.6437,0.6437,0.6437,0.6437,0.6437,0.6437,0.6437,0.6437,1.8031,1.8031,1.8031,1.8031,1.8031,1.8031,1.8031,1.8031,1.8031,1.7946,1.7826,1.7809,1.7397,1.6758,1.6614,1.6546,1.6446,1.6137,1.5931,1.5716,1.5567,1.5485,1.5253,1.4878,1.4744,1.4858,1.4183,1.3853,1.3745,1.3527,1.3444,1.3381,1.3341,1.3137,1.2966,1.2705,1.2534,1.2369,1.2203,1.1946,1.1527,1.1354,1.1267,1.1267,1.1267,1.1128,1.0616,1.0557,1.0412,0.997,0.9922,0.991,0.9983,0.999,1.0084,1.0182,1.0417,1.055,1.0722,1.0554,1.0554,1.0554,1.0381,1.0207,1.0038,0.9864,0.9519,0.9165,0.864,0.8204,0.7856,0.7768,0.768,0.7503,0.7326,0.7146,0.7058,0.6792,0.6612,0.6612,0.652,0.6428,0.6432,0.6343,0.6169,0.5994,0.5908,0.5908,0.5733,0.5733,0.5733,0.5746,0.5822,0.595,0.6119,0.6227,0.6309,0.6399,0.6437,0.6437,0.6437,0.6437,0.6437,0.6437,0.6437,0.6437,0.6437,0.6437,0.6437,0.6437,0.6437,0.6437,0.6437,0.6437,0.6437,1.8031,1.8031,1.8031,1.8031,1.8031,1.8031,1.8031,1.8031,1.8031,1.8031,1.8031,1.8031,1.774,1.7261,1.7115,1.7064,1.7064,1.6809,1.6531,1.6319,1.6149,1.592,1.5674,1.5304,1.5126,1.5124,1.4589,1.4158,1.4003,1.3804,1.3708,1.3711,1.3483,1.3313,1.3052,1.2881,1.2619,1.2528,1.2448,1.2192,1.1866,1.1607,1.1348,1.1348,1.1267,1.1155,1.0751,1.0589,1.0449,1.0051,1.0019,1.0105,1.0283,1.0243,1.0405,1.07,1.0813,1.0906,1.0906,1.0819,1.0733,1.0819,1.0733,1.0646,1.0467,1.0294,1.0038,0.9685,0.9248,0.8811,0.8292,0.8116,0.8116,0.8028,0.7768,0.7591,0.7591,0.7238,0.7058,0.6972,0.6881,0.6609,0.652,0.652,0.6435,0.6257,0.6169,0.608,0.5908,0.5822,0.583,0.5773,0.5784,0.5869,0.6048,0.6149,0.6271,0.6393,0.6437,0.6437,0.6437,0.6437,0.6437,0.6437,0.6437,0.6437,0.6437,0.6437,0.6437,0.6437,0.6437,0.6437,0.6437,0.6437,0.6437,1.8031,1.8031,1.8031,1.804,1.8031,1.8031,1.804,1.8031,1.804,1.804,1.804,1.804,1.8014,1.792,1.7586,1.7449,1.7406,1.7124,1.6759,1.6385,1.6368,1.6097,1.5674,1.5312,1.5255,1.5545,1.4918,1.4561,1.4386,1.4203,1.3984,1.3737,1.3483,1.3307,1.3137,1.2881,1.2705,1.2619,1.2534,1.2363,1.2277,1.1946,1.1607,1.1348,1.1267,1.1225,1.0972,1.0756,1.0525,1.0288,1.0277,1.0288,1.0342,1.0713,1.1058,1.1203,1.1257,1.1267,1.1262,1.1089,1.1008,1.1008,1.0824,1.0733,1.0646,1.0646,1.0472,1.0038,0.9951,0.9602,0.8995,0.8727,0.846,0.8288,0.8028,0.7944,0.7852,0.7852,0.7768,0.7507,0.7418,0.7149,0.6881,0.6792,0.67,0.6432,0.6428,0.6349,0.6192,0.6097,0.6056,0.5954,0.5904,0.5939,0.6059,0.614,0.6233,0.6355,0.6437,0.6437,0.6437,0.6437,0.6437,0.6437,0.6437,0.6437,0.6437,0.6437,0.6437,0.6437,0.6437,0.6437,0.6437,0.6437,0.6437,1.8499,1.846,1.8451,1.8451,1.8451,1.8451,1.8451,1.8451,1.846,1.8451,1.8451,1.8451,1.8371,1.8273,1.8143,1.7994,1.7817,1.7697,1.7471,1.7234,1.7083,1.6836,1.6597,1.6132,1.5863,1.5807,1.533,1.4885,1.4552,1.425,1.4088,1.3906,1.3568,1.3398,1.3222,1.2875,1.2705,1.2705,1.2619,1.2528,1.2448,1.2198,1.2037,1.1785,1.1435,1.1235,1.0993,1.0902,1.0751,1.0525,1.0514,1.0579,1.0746,1.1042,1.1252,1.1251,1.1267,1.1267,1.1267,1.1262,1.1181,1.1181,1.1089,1.1003,1.0911,1.0916,1.0738,1.0472,1.0467,1.0299,1.0038,0.9428,0.8995,0.8903,0.8732,0.8472,0.838,0.8204,0.8028,0.7768,0.7595,0.7415,0.7238,0.7058,0.6877,0.67,0.67,0.6567,0.6454,0.6388,0.625,0.6261,0.6114,0.6062,0.6184,0.6206,0.6257,0.6363,0.6437,0.6437,0.6437,0.6437,0.6437,0.6437,0.6437,0.6437,0.6437,0.6437,0.6437,0.6437,0.6437,0.6437,0.6437,0.6437,0.6437,1.8953,1.8887,1.8754,1.8709,1.8709,1.8709,1.8709,1.8709,1.8709,1.8709,1.8709,1.8709,1.862,1.8523,1.8451,1.8282,1.8121,1.8031,1.787,1.77,1.7465,1.7302,1.7066,1.6515,1.6193,1.6004,1.5423,1.4999,1.4657,1.4328,1.4088,1.4088,1.3652,1.3483,1.3307,1.3052,1.279,1.2705,1.2705,1.2619,1.2528,1.2448,1.2283,1.2123,1.178,1.145,1.1191,1.1109,1.0918,1.0767,1.0751,1.0859,1.109,1.1262,1.1267,1.1267,1.1267,1.1267,1.1267,1.1267,1.1267,1.1267,1.1267,1.1267,1.1094,1.1094,1.1003,1.0824,1.0824,1.0824,1.0554,1.0125,0.9694,0.9519,0.9257,0.9082,0.8815,0.8636,0.8464,0.8116,0.7856,0.768,0.7591,0.7415,0.7262,0.7118,0.7042,0.6921,0.685,0.6707,0.6563,0.6679,0.6423,0.639,0.6385,0.6421,0.6317,0.6407,0.6437,0.6437,0.6437,0.6437,0.6437,0.6437,0.6437,0.6437,0.6437,0.6437,0.6437,0.6437,0.6437,0.6437,0.6437,0.6437,0.6437,1.9368,1.9297,1.8869,1.8825,1.8834,1.8789,1.8709,1.878,1.8772,1.8772,1.878,1.878,1.8772,1.8692,1.8523,1.8434,1.8353,1.8112,1.7951,1.77,1.7465,1.731,1.7139,1.6605,1.6193,1.6012,1.5159,1.4734,1.465,1.4328,1.4088,1.4088,1.3822,1.3568,1.3398,1.3137,1.2966,1.279,1.2705,1.2705,1.2705,1.2534,1.2454,1.2363,1.2118,1.1854,1.1677,1.1292,1.1093,1.0993,1.0988,1.1101,1.1284,1.1343,1.1348,1.1354,1.1354,1.1354,1.1348,1.1354,1.1354,1.1354,1.1354,1.1354,1.1348,1.1354,1.1262,1.1089,1.1094,1.1003,1.0819,1.0733,1.0472,1.0043,0.9772,0.9602,0.9345,0.9257,0.9082,0.8636,0.8204,0.7944,0.786,0.7705,0.7578,0.758,0.7451,0.7336,0.7276,0.7123,0.7181,0.709,0.6846,0.6698,0.6674,0.6639,0.6534,0.6437,0.6437,0.6437,0.6437,0.6437,0.6437,0.6437,0.6437,0.6437,0.6437,0.6437,0.6437,0.6437,0.6437,0.6437,0.6437,0.6437,0.6437,2.0247,2.0051,1.967,1.9498,1.9462,1.9199,1.9073,1.9161,1.9161,1.9082,1.9073,1.9073,1.9073,1.8922,1.8843,1.8683,1.8434,1.8282,1.8121,1.787,1.7554,1.7392,1.7237,1.6794,1.6216,1.5597,1.4992,1.4734,1.465,1.4334,1.4088,1.4082,1.3822,1.3568,1.3392,1.3222,1.2966,1.2705,1.2705,1.2705,1.2705,1.2619,1.2613,1.2619,1.2369,1.2198,1.2192,1.1701,1.1497,1.1486,1.1321,1.1273,1.1332,1.144,1.1521,1.1613,1.1693,1.178,1.178,1.178,1.178,1.1785,1.1785,1.1785,1.178,1.1785,1.1699,1.1693,1.1699,1.1607,1.1435,1.1435,1.1084,1.0554,1.0386,1.0212,0.9781,0.9519,0.9257,0.9082,0.864,0.8376,0.8316,0.8105,0.7858,0.7745,0.7738,0.7768,0.7604,0.7455,0.7421,0.7445,0.7171,0.7072,0.7015,0.6842,0.6739,0.6537,0.6537,0.6437,0.6437,0.6437,0.6437,0.6437,0.6437,0.6437,0.6437,0.6437,0.6437,0.6437,0.6437,0.6437,0.6437,0.6437,0.6437,2.0884,2.0695,2.031,2.0145,2.0127,1.9861,1.9751,1.9751,1.9751,1.9751,1.9742,1.9595,1.946,1.9272,1.9154,1.8843,1.8603,1.8434,1.8282,1.8112,1.7635,1.7392,1.7318,1.6778,1.6125,1.5416,1.4901,1.4734,1.465,1.4334,1.4088,1.4082,1.3906,1.3652,1.3398,1.3307,1.3052,1.279,1.2705,1.2705,1.2705,1.2705,1.2705,1.2705,1.2534,1.2534,1.2448,1.2118,1.1957,1.1785,1.1607,1.1607,1.1613,1.1699,1.1785,1.1866,1.1866,1.1952,1.1952,1.1952,1.2043,1.2135,1.2043,1.1957,1.1957,1.1957,1.1957,1.1957,1.1957,1.1957,1.1871,1.1785,1.1607,1.1257,1.0911,1.0646,1.0299,0.9864,0.9607,0.9432,0.9165,0.8932,0.875,0.8551,0.8345,0.8247,0.8085,0.8112,0.7942,0.7798,0.7773,0.772,0.7521,0.7425,0.7335,0.7141,0.6939,0.6739,0.6637,0.6537,0.6437,0.6437,0.6437,0.6437,0.6437,0.6437,0.6437,0.6437,0.6437,0.6437,0.6437,0.6437,0.6437,0.6437,0.6437,2.1145,2.1089,2.0714,2.0549,2.0539,2.0466,2.042,2.0475,2.0466,2.0438,2.0374,2.009,1.9962,1.9798,1.9488,1.9191,1.9012,1.8762,1.8626,1.8365,1.7941,1.7524,1.7245,1.6507,1.5914,1.547,1.5013,1.479,1.4733,1.4457,1.4135,1.4208,1.4182,1.3861,1.3534,1.3423,1.3137,1.279,1.2705,1.2705,1.2705,1.2705,1.2705,1.2705,1.2705,1.2705,1.2619,1.2448,1.2289,1.2037,1.1957,1.1957,1.1957,1.2043,1.2037,1.2037,1.2037,1.2032,1.1946,1.2032,1.2129,1.2312,1.2215,1.2043,1.2123,1.2123,1.2123,1.2123,1.2123,1.2037,1.2037,1.2037,1.1952,1.1871,1.1343,1.0911,1.0727,1.0294,1.0038,0.9956,0.962,0.9336,0.9234,0.9022,0.8942,0.8843,0.8575,0.8481,0.835,0.8195,0.8024,0.7939,0.7743,0.7643,0.7643,0.7444,0.7241,0.7141,0.6939,0.6736,0.6537,0.6537,0.6539,0.6539,0.6437,0.6437,0.6437,0.6437,0.6437,0.6437,0.6437,0.6437,0.6437,0.6437,0.6437,2.1566,2.153,2.1117,2.0952,2.0906,2.0649,2.053,2.0521,2.0539,2.0585,2.0503,2.042,2.0365,2.0347,2.0163,2.0043,1.9832,1.9507,1.9375,1.9123,1.871,1.7779,1.699,1.6343,1.6027,1.5717,1.5326,1.507,1.5105,1.4851,1.4689,1.4723,1.4496,1.4143,1.3771,1.3519,1.3143,1.279,1.2705,1.2705,1.2705,1.2705,1.2705,1.2705,1.2705,1.2705,1.2705,1.2613,1.2369,1.2043,1.1957,1.1957,1.2037,1.2203,1.2289,1.2283,1.2454,1.2454,1.2448,1.2454,1.254,1.254,1.2546,1.254,1.254,1.254,1.254,1.2534,1.2534,1.2454,1.2369,1.2283,1.2203,1.1946,1.1596,1.1165,1.0911,1.0651,1.0467,1.0222,1.0088,0.9933,0.9786,0.9599,0.951,0.9352,0.9178,0.8973,0.8715,0.8531,0.8233,0.8237,0.8137,0.7942,0.7842,0.7643,0.7444,0.7441,0.7241,0.7135,0.6939,0.6839,0.6742,0.6742,0.6637,0.6537,0.6437,0.6437,0.6437,0.6439,0.6437,0.6437,0.6437,0.6437,0.6437,2.1731,2.1713,2.1475,2.1365,2.1346,2.1126,2.1025,2.1025,2.1025,2.1034,2.0998,2.0824,2.0769,2.0759,2.0585,2.0437,2.0277,1.9938,1.975,1.9504,1.8965,1.803,1.713,1.6653,1.6507,1.636,1.5742,1.5472,1.5339,1.515,1.5046,1.4923,1.479,1.4438,1.3977,1.3837,1.3411,1.2997,1.2874,1.2831,1.2717,1.2705,1.2705,1.2705,1.2705,1.2705,1.2705,1.2705,1.2534,1.2369,1.2289,1.2289,1.2289,1.2454,1.2534,1.2534,1.2613,1.2705,1.2705,1.2705,1.2705,1.2705,1.2705,1.2705,1.2705,1.2705,1.2705,1.2705,1.2705,1.2619,1.2534,1.2534,1.2454,1.2198,1.1935,1.1591,1.1354,1.1084,1.0952,1.0782,1.0548,1.0448,1.0306,1.0189,0.994,0.9757,0.9559,0.9304,0.9031,0.873,0.8531,0.8432,0.8333,0.8137,0.8041,0.7842,0.7743,0.7739,0.764,0.7437,0.7238,0.7138,0.7042,0.6942,0.6836,0.6734,0.6637,0.6639,0.6642,0.6642,0.6539,0.6437,0.6437,0.6437,0.6437,2.1731,2.1731,2.1731,2.1731,2.1713,2.1722,2.1649,2.1704,2.1658,2.1667,2.1594,2.1319,2.119,2.1145,2.0915,2.0695,2.0601,2.0359,2.0048,1.973,1.9115,1.8327,1.7834,1.7147,1.7052,1.6908,1.6205,1.5803,1.5659,1.5327,1.5174,1.511,1.5064,1.4823,1.4424,1.4205,1.3817,1.3288,1.3163,1.3031,1.285,1.2795,1.2777,1.2705,1.2705,1.2705,1.2705,1.2705,1.2705,1.2705,1.2705,1.2619,1.2705,1.2705,1.2705,1.2705,1.2699,1.2705,1.2705,1.2705,1.2705,1.2705,1.2705,1.2705,1.2705,1.2705,1.2705,1.2705,1.2705,1.2699,1.2699,1.2699,1.2619,1.246,1.2381,1.225,1.1899,1.1548,1.1364,1.141,1.101,1.09,1.0843,1.0738,1.0509,1.0312,1.0002,0.9715,0.9327,0.9031,0.8832,0.8634,0.8535,0.8333,0.8237,0.8041,0.8041,0.7939,0.7939,0.7736,0.7537,0.7338,0.7338,0.7238,0.7036,0.7036,0.7036,0.6939,0.6842,0.6742,0.6639,0.6539,0.6437,0.6437,0.6437,2.1731,2.1731,2.1731,2.1731,2.1731,2.1731,2.1731,2.1731,2.1731,2.1731,2.1713,2.1621,2.1585,2.1585,2.1447,2.1475,2.1313,2.1058,2.0864,2.0401,1.9701,1.934,1.8807,1.7822,1.7198,1.6987,1.657,1.6211,1.6071,1.5948,1.5825,1.5591,1.5384,1.5206,1.491,1.4468,1.4038,1.3711,1.3525,1.3296,1.3091,1.3031,1.2934,1.2759,1.2711,1.2705,1.2705,1.2705,1.2705,1.2705,1.2705,1.2705,1.2705,1.2705,1.2705,1.2705,1.2705,1.2705,1.2705,1.2705,1.2705,1.2705,1.2705,1.2705,1.2705,1.2705,1.2705,1.2705,1.2705,1.2705,1.2741,1.2711,1.2747,1.2709,1.2841,1.2861,1.2598,1.2147,1.1833,1.1679,1.1666,1.1645,1.1557,1.124,1.1025,1.0895,1.0511,1.0122,0.9727,0.9426,0.9229,0.8935,0.8832,0.863,0.8432,0.8237,0.8137,0.8038,0.8038,0.7939,0.7739,0.764,0.754,0.7437,0.7338,0.7338,0.7338,0.7235,0.7138,0.6939,0.6839,0.6639,0.6539,0.6539,0.6437,2.1731,2.1731,2.1731,2.1731,2.1731,2.1731,2.1731,2.1731,2.1731,2.1731,2.1731,2.1731,2.1731,2.1731,2.1731,2.1722,2.1642,2.1374,2.1006,2.0637,2.0019,1.9662,1.9455,1.851,1.7823,1.7568,1.6996,1.6622,1.6399,1.6209,1.5994,1.5825,1.5665,1.5511,1.5317,1.4868,1.4482,1.4093,1.3786,1.3568,1.335,1.3302,1.3181,1.2916,1.2783,1.2705,1.2705,1.2705,1.2705,1.2705,1.2705,1.2705,1.2705,1.2705,1.2705,1.2705,1.2705,1.2705,1.2705,1.2705,1.2705,1.2705,1.2705,1.2705,1.2705,1.2705,1.2705,1.2705,1.2717,1.2747,1.288,1.291,1.2934,1.3085,1.3206,1.3213,1.3129,1.2765,1.2462,1.2301,1.2165,1.2152,1.2006,1.1721,1.1365,1.1194,1.0998,1.0609,1.0122,0.9821,0.9624,0.9331,0.9133,0.8931,0.8627,0.8428,0.8333,0.8233,0.8137,0.8038,0.7939,0.7842,0.7743,0.764,0.7537,0.764,0.764,0.7537,0.7338,0.7341,0.7141,0.6942,0.6739,0.6739,0.6539,2.1731,2.1731,2.1731,2.1731,2.1731,2.1731,2.1731,2.1731,2.1731,2.1731,2.1731,2.1731,2.1731,2.1731,2.1731,2.1731,2.1553,2.1275,2.0916,2.0744,2.011,1.9754,1.9463,1.8956,1.8448,1.8079,1.7404,1.6936,1.6553,1.6312,1.6123,1.5825,1.5825,1.5684,1.552,1.5248,1.4924,1.4465,1.4247,1.3839,1.3622,1.3568,1.3441,1.3194,1.3019,1.291,1.2892,1.2757,1.2697,1.2765,1.2729,1.2705,1.2705,1.2705,1.2705,1.2705,1.2705,1.2705,1.2705,1.2705,1.2705,1.2705,1.2705,1.2705,1.2705,1.2771,1.2813,1.2825,1.2862,1.2976,1.3057,1.3175,1.3284,1.3435,1.3525,1.3574,1.3495,1.3415,1.3286,1.289,1.2725,1.2581,1.2373,1.2262,1.1878,1.1492,1.1292,1.1096,1.0708,1.0216,1.0019,0.9821,0.9624,0.9232,0.8931,0.8726,0.8528,0.8432,0.8233,0.8233,0.8137,0.8137,0.8041,0.7939,0.7939,0.7939,0.7942,0.7739,0.764,0.7643,0.7444,0.7244,0.7042,0.6942,0.6739,2.1731,2.1731,2.1731,2.1731,2.1731,2.1731,2.1731,2.1731,2.1731,2.1731,2.1731,2.1731,2.1731,2.1731,2.1731,2.1731,2.1562,2.1275,2.0997,2.0817,2.0283,1.9845,1.9487,1.9112,1.8643,1.8087,1.7721,1.7246,1.6777,1.6494,1.6211,1.592,1.5825,1.573,1.573,1.5547,1.5242,1.4968,1.4665,1.4251,1.3993,1.3797,1.3701,1.3465,1.3338,1.3308,1.3189,1.2963,1.2774,1.3043,1.2825,1.2741,1.2759,1.2759,1.2747,1.2705,1.2705,1.2705,1.2747,1.2729,1.2711,1.2705,1.2753,1.2741,1.2789,1.2922,1.3031,1.3097,1.3218,1.3279,1.3231,1.3351,1.3477,1.3677,1.3823,1.3839,1.3876,1.3878,1.3838,1.3425,1.3166,1.2978,1.2829,1.2662,1.2273,1.198,1.1688,1.1487,1.1198,1.0708,1.0413,1.0216,1.0019,0.9628,0.9232,0.8928,0.8726,0.873,0.863,0.863,0.8531,0.8432,0.8333,0.8233,0.8038,0.7939,0.7939,0.7942,0.7942,0.7839,0.7643,0.7547,0.7344,0.7141,0.7042,2.1731,2.1731,2.1731,2.1731,2.1731,2.1731,2.1731,2.1731,2.1731,2.1731,2.1731,2.1731,2.1731,2.1731,2.1731,2.1731,2.1553,2.1186,2.0997,2.0817,2.0374,1.9936,1.9679,1.9304,1.8743,1.8272,1.79,1.7527,1.6878,1.6683,1.64,1.6021,1.5927,1.5825,1.573,1.5547,1.5452,1.5261,1.4968,1.4626,1.4288,1.409,1.3827,1.3737,1.3586,1.3519,1.3489,1.3321,1.3034,1.3004,1.301,1.3045,1.3109,1.3079,1.2988,1.2783,1.2723,1.2789,1.2892,1.2928,1.2988,1.3115,1.3109,1.3121,1.3145,1.3254,1.332,1.3363,1.3399,1.3477,1.3591,1.362,1.3785,1.4011,1.4032,1.4081,1.4129,1.4232,1.4088,1.3915,1.3724,1.3414,1.3227,1.3055,1.2764,1.2467,1.2078,1.1883,1.159,1.1198,1.0806,1.0605,1.0408,1.0019,0.9628,0.9426,0.9122,0.9027,0.9027,0.8928,0.8825,0.873,0.863,0.8531,0.8333,0.8137,0.8038,0.7942,0.8038,0.8038,0.7842,0.7743,0.7643,0.7444,0.7341,2.1731,2.1731,2.1731,2.1731,2.1731,2.1731,2.1731,2.1731,2.1731,2.1731,2.1731,2.1731,2.1731,2.1731,2.1731,2.1731,2.1651,2.1177,2.0997,2.0907,2.0473,2.0036,1.9679,1.9487,1.912,1.828,1.8087,1.7721,1.7073,1.6784,1.6501,1.6224,1.5933,1.5825,1.573,1.5635,1.5547,1.5356,1.5166,1.4879,1.4626,1.4294,1.3984,1.3978,1.3785,1.3701,1.3731,1.3732,1.3501,1.3374,1.3423,1.3592,1.361,1.3513,1.3308,1.2958,1.2874,1.3,1.3121,1.3206,1.3272,1.3405,1.3483,1.3501,1.3519,1.3513,1.3616,1.3652,1.3701,1.3785,1.3954,1.3984,1.4075,1.4189,1.4262,1.4292,1.4268,1.4292,1.4286,1.4172,1.4022,1.3835,1.3636,1.3346,1.305,1.2861,1.2467,1.2273,1.198,1.1688,1.1296,1.1096,1.0801,1.0511,1.0117,0.9924,0.9624,0.9426,0.9426,0.9324,0.9126,0.8928,0.8928,0.8829,0.8531,0.8333,0.8137,0.8137,0.8137,0.8134,0.8038,0.7939,0.7839,0.7743,0.7543,2.1731,2.1731,2.1731,2.1731,2.1731,2.1731,2.1731,2.1731,2.1731,2.1731,2.1731,2.1731,2.1731,2.1731,2.1731,2.1731,2.1553,2.1275,2.0997,2.0907,2.0555,2.0119,1.9687,1.9587,1.9176,1.8559,1.8256,1.7721,1.7225,1.7044,1.669,1.6319,1.613,1.6028,1.5825,1.573,1.5642,1.554,1.5445,1.5159,1.4777,1.4345,1.4226,1.4214,1.4183,1.4135,1.4087,1.4066,1.4068,1.4043,1.3848,1.3944,1.4022,1.3719,1.3507,1.3435,1.3429,1.3441,1.3465,1.3471,1.3513,1.3598,1.3592,1.3532,1.3634,1.3779,1.3942,1.4195,1.4177,1.4153,1.4183,1.4232,1.4268,1.4274,1.4298,1.4298,1.4298,1.4298,1.4298,1.4298,1.4208,1.4022,1.3925,1.363,1.334,1.3152,1.2861,1.2662,1.237,1.2078,1.1688,1.1487,1.1194,1.0904,1.0609,1.0314,1.0117,0.992,0.9821,0.9624,0.9525,0.9324,0.9232,0.9034,0.8832,0.873,0.873,0.863,0.8432,0.8333,0.8233,0.8137,0.7939,0.7942,0.7842,2.1731,2.1731,2.1731,2.1731,2.1731,2.1731,2.1731,2.1731,2.1731,2.1731,2.1731,2.1731,2.1731,2.1731,2.1731,2.1731,2.1651,2.1392,2.1105,2.1032,2.068,2.0235,1.9829,1.9777,1.9503,1.8981,1.8647,1.8512,1.7897,1.7239,1.6791,1.6522,1.6326,1.6028,1.5852,1.5832,1.573,1.5642,1.5458,1.5077,1.4783,1.4496,1.4298,1.4298,1.4298,1.4298,1.4268,1.4321,1.4337,1.4319,1.4096,1.4166,1.4266,1.4066,1.396,1.396,1.396,1.3888,1.3767,1.3737,1.3797,1.3918,1.3948,1.3978,1.399,1.4045,1.4147,1.4274,1.4298,1.4298,1.4298,1.4298,1.4298,1.4298,1.4298,1.4298,1.4298,1.4298,1.4298,1.4298,1.4298,1.4208,1.4112,1.3925,1.3636,1.3539,1.3249,1.3055,1.2759,1.2473,1.2078,1.1785,1.1487,1.1296,1.0998,1.0703,1.0511,1.0314,1.0212,1.0015,0.9821,0.9727,0.9628,0.9529,0.9327,0.9225,0.9225,0.8928,0.863,0.863,0.8531,0.8432,0.8333,0.8233,0.8134,2.1731,2.1731,2.1731,2.1731,2.1731,2.1731,2.1731,2.1731,2.1731,2.1731,2.1731,2.1731,2.1731,2.1731,2.1731,2.1731,2.166,2.1581,2.1428,2.1174,2.0981,2.0617,2.0272,2.0157,1.9955,1.9288,1.9082,1.8905,1.8499,1.7896,1.7273,1.6908,1.6703,1.6361,1.6027,1.5872,1.5825,1.5737,1.5465,1.5178,1.479,1.4592,1.4394,1.4298,1.4298,1.4298,1.4298,1.4292,1.4286,1.428,1.4262,1.4226,1.4333,1.422,1.422,1.422,1.422,1.4165,1.4051,1.402,1.4117,1.4226,1.4298,1.4226,1.425,1.4298,1.4298,1.4298,1.4298,1.4298,1.4298,1.4298,1.4298,1.4298,1.4298,1.4298,1.4298,1.4298,1.4298,1.4298,1.4298,1.4298,1.4208,1.4118,1.3931,1.3835,1.3738,1.3443,1.3152,1.2861,1.2565,1.2273,1.198,1.1785,1.1487,1.1194,1.09,1.0703,1.0605,1.0408,1.0216,1.0117,1.0019,0.992,0.9727,0.9821,0.9817,0.9324,0.8928,0.8832,0.8832,0.873,0.8627,0.8528,0.8428,2.1731,2.1731,2.175,2.1768,2.1759,2.1731,2.175,2.1851,2.1796,2.1814,2.186,2.1786,2.1851,2.1805,2.1878,2.186,2.1715,2.1871,2.1805,2.168,2.1593,2.1294,2.0974,2.0633,2.0434,2.0055,1.9618,1.9322,1.9041,1.857,1.8142,1.7725,1.726,1.6967,1.656,1.6128,1.5912,1.5892,1.5681,1.5471,1.5083,1.479,1.4592,1.4394,1.4298,1.4298,1.4298,1.4298,1.4298,1.4298,1.4298,1.4298,1.4298,1.4298,1.4298,1.4298,1.4298,1.4262,1.4214,1.4208,1.4262,1.4292,1.4298,1.4298,1.4298,1.4298,1.4298,1.4298,1.4298,1.4298,1.4298,1.4298,1.4298,1.4298,1.4298,1.4298,1.4298,1.4298,1.4298,1.4298,1.4298,1.4298,1.4298,1.4208,1.4112,1.4022,1.3835,1.3636,1.3539,1.3152,1.2958,1.2759,1.2467,1.2273,1.1975,1.1683,1.1389,1.1194,1.1096,1.0801,1.0507,1.0408,1.0408,1.0216,1.0117,1.0216,1.0216,0.9723,0.9426,0.9133,0.9034,0.9126,0.8928,0.8829,0.873,2.24,2.2391,2.2391,2.2337,2.2098,2.2098,2.2245,2.2456,2.2391,2.24,2.2465,2.2391,2.24,2.2382,2.2483,2.2391,2.2418,2.2528,2.2321,2.2075,2.1925,2.17,2.1289,2.1087,2.0892,2.0547,2.0177,1.9813,1.9727,1.9231,1.9095,1.8665,1.7981,1.74,1.6945,1.6468,1.6236,1.6052,1.585,1.5662,1.5363,1.5077,1.479,1.4592,1.4592,1.449,1.4298,1.4298,1.4298,1.4298,1.4298,1.4298,1.4298,1.4298,1.4298,1.4394,1.4394,1.4394,1.4298,1.4298,1.4298,1.4298,1.4298,1.4298,1.4298,1.4298,1.4298,1.4298,1.4298,1.4298,1.4298,1.4298,1.4298,1.4298,1.4298,1.4298,1.4298,1.4298,1.4298,1.4298,1.4298,1.4298,1.4298,1.4298,1.4202,1.4202,1.4022,1.3835,1.3732,1.3545,1.3346,1.3152,1.2861,1.2667,1.2467,1.217,1.1878,1.1683,1.1585,1.1292,1.0998,1.09,1.09,1.0708,1.0511,1.0511,1.0413,1.0117,0.992,0.9624,0.9525,0.9426,0.9327,0.913,0.913,2.2866,2.2866,2.2866,2.2786,2.252,2.2511,2.2676,2.282,2.2838,2.2866,2.2866,2.2866,2.2866,2.2866,2.2848,2.282,2.2829,2.2939,2.2813,2.2607,2.2496,2.2127,2.1752,2.1395,2.1262,2.1018,2.0648,2.0372,2.0017,1.9864,1.9524,1.9074,1.8651,1.8131,1.7489,1.6871,1.6498,1.6339,1.6036,1.578,1.5582,1.5402,1.5083,1.4885,1.479,1.479,1.4592,1.4496,1.449,1.4394,1.4394,1.4394,1.4394,1.44,1.449,1.449,1.449,1.449,1.449,1.4394,1.4298,1.4298,1.4298,1.4298,1.4298,1.4298,1.4298,1.4298,1.4298,1.4298,1.4298,1.4298,1.4298,1.4298,1.4298,1.4298,1.4298,1.4298,1.4298,1.4298,1.4298,1.4298,1.4298,1.4298,1.4298,1.4202,1.4208,1.4118,1.4022,1.3829,1.3642,1.3448,1.3249,1.3055,1.2861,1.2565,1.2268,1.2073,1.1878,1.178,1.1585,1.1487,1.1292,1.1096,1.0904,1.0806,1.0708,1.0609,1.0413,1.0113,1.0019,0.9821,0.9821,0.9723,0.9624,2.2902,2.2866,2.2902,2.2988,2.2969,2.2942,2.2884,2.2994,2.2975,2.2966,2.2994,2.2975,2.2966,2.2975,2.3058,2.3171,2.3121,2.3409,2.3335,2.3098,2.3073,2.3105,2.2624,2.2139,2.161,2.1489,2.1019,2.0506,2.0189,1.9879,1.9576,1.9376,1.9133,1.8803,1.8273,1.7237,1.6787,1.6647,1.6183,1.6077,1.5914,1.5673,1.5512,1.5313,1.5166,1.5159,1.4973,1.4802,1.4694,1.4688,1.4496,1.4592,1.4688,1.4694,1.4783,1.4981,1.4981,1.4987,1.5083,1.4592,1.44,1.44,1.4496,1.4394,1.4394,1.4298,1.4298,1.4298,1.4298,1.4298,1.4298,1.4298,1.4298,1.4298,1.4298,1.4298,1.4298,1.4298,1.4298,1.4298,1.4298,1.4298,1.4298,1.4298,1.4298,1.4298,1.4298,1.4304,1.4208,1.4112,1.3925,1.3829,1.3636,1.3448,1.3249,1.2958,1.2759,1.2467,1.2268,1.2175,1.2078,1.1878,1.178,1.1585,1.1389,1.1296,1.1198,1.1194,1.09,1.0703,1.0413,1.0314,1.0314,1.0216,1.0117,2.3758,2.3749,2.3749,2.3758,2.3703,2.3446,2.3483,2.3721,2.3749,2.3749,2.3749,2.3749,2.3749,2.3749,2.3703,2.3703,2.3758,2.3804,2.3843,2.3556,2.3493,2.322,2.2846,2.2333,2.1827,2.1632,2.1224,2.0719,2.0411,2.0094,1.9783,1.9576,1.9368,1.9124,1.8544,1.7791,1.7313,1.7272,1.7068,1.6891,1.6447,1.6348,1.6085,1.5888,1.5726,1.5551,1.5441,1.5139,1.5051,1.5019,1.4827,1.491,1.4987,1.4981,1.4987,1.5083,1.5083,1.5083,1.5083,1.4885,1.4885,1.4783,1.4783,1.4688,1.4592,1.4592,1.449,1.4394,1.4394,1.4298,1.4298,1.4298,1.4298,1.4298,1.4298,1.4298,1.4298,1.4298,1.4298,1.4298,1.4298,1.4298,1.4298,1.4298,1.4298,1.4298,1.4298,1.4298,1.4304,1.4304,1.4208,1.4112,1.3919,1.3835,1.3642,1.3346,1.3152,1.2958,1.2764,1.2764,1.257,1.237,1.2175,1.1878,1.1883,1.1785,1.1683,1.1487,1.1389,1.1194,1.09,1.0609,1.0511,1.0413,1.0314,2.4161,2.4161,2.4161,2.4161,2.4115,2.3868,2.3914,2.4134,2.4161,2.4161,2.4143,2.4143,2.4134,2.4134,2.4161,2.4161,2.4161,2.4152,2.4143,2.3845,2.3546,2.3347,2.2946,2.2434,2.1928,2.1733,2.1428,2.1027,2.0522,2.0308,1.999,1.968,1.948,1.9264,1.888,1.8447,1.8046,1.797,1.7571,1.7305,1.7042,1.676,1.6573,1.6427,1.6229,1.6131,1.5881,1.5667,1.5415,1.5358,1.5313,1.5274,1.523,1.528,1.5274,1.5363,1.5363,1.5363,1.5363,1.5363,1.5363,1.5356,1.5172,1.4987,1.4885,1.4885,1.479,1.4592,1.4496,1.449,1.4394,1.4394,1.4298,1.4298,1.4298,1.4298,1.4298,1.4298,1.4298,1.4298,1.4298,1.4298,1.4298,1.4298,1.4298,1.4298,1.4298,1.4298,1.4298,1.4298,1.4298,1.4202,1.4112,1.4022,1.3835,1.3738,1.3545,1.3357,1.3255,1.3158,1.2958,1.2759,1.2467,1.2273,1.2175,1.2078,1.198,1.1878,1.1683,1.1585,1.1389,1.1096,1.0708,1.0708,1.0708,2.4161,2.4161,2.4161,2.4161,2.4152,2.4115,2.4134,2.4161,2.4161,2.4161,2.4161,2.4161,2.4161,2.4161,2.4161,2.4161,2.4161,2.4161,2.4152,2.4044,2.3646,2.3447,2.3147,2.2535,2.2131,2.1725,2.1428,2.1121,2.0624,2.0418,2.0205,1.9791,1.948,1.9383,1.916,1.9042,1.8797,1.8379,1.8046,1.7811,1.7551,1.7177,1.7015,1.686,1.6787,1.6627,1.6487,1.6321,1.6077,1.5973,1.5699,1.5635,1.5602,1.5586,1.5668,1.5757,1.5777,1.5783,1.5737,1.5737,1.5737,1.5642,1.5363,1.5172,1.5077,1.5077,1.5077,1.4981,1.479,1.4688,1.4688,1.449,1.4298,1.4298,1.4298,1.4298,1.4298,1.4298,1.4298,1.4298,1.4298,1.4298,1.4298,1.4298,1.4298,1.4298,1.4298,1.4298,1.4298,1.4298,1.4298,1.4298,1.4208,1.4208,1.4022,1.3925,1.3841,1.375,1.3545,1.3443,1.3249,1.3055,1.2856,1.2662,1.2467,1.237,1.2273,1.2175,1.198,1.1878,1.178,1.1585,1.1296,1.1198,1.1198,2.4161,2.4161,2.4161,2.4161,2.4161,2.4161,2.4161,2.4161,2.4161,2.4161,2.4161,2.4161,2.4161,2.4161,2.4161,2.4161,2.4161,2.4161,2.4161,2.3954,2.3646,2.3456,2.3147,2.2745,2.2333,2.203,2.1725,2.1326,2.1019,2.0719,2.0205,1.9783,1.9687,1.948,1.9383,1.9286,1.9078,1.8743,1.8421,1.8289,1.806,1.7729,1.7571,1.7544,1.7292,1.7143,1.7109,1.6847,1.6593,1.6514,1.6381,1.6302,1.6388,1.6341,1.6406,1.6166,1.6132,1.6079,1.5879,1.5832,1.5845,1.5858,1.5648,1.5547,1.5452,1.5356,1.5267,1.5172,1.5077,1.4981,1.4879,1.4682,1.449,1.4394,1.4394,1.4298,1.4298,1.4298,1.4298,1.4298,1.4298,1.4298,1.4298,1.4298,1.4298,1.4298,1.4298,1.4298,1.4298,1.4298,1.4298,1.4298,1.4298,1.4208,1.4208,1.4208,1.413,1.4045,1.3937,1.3732,1.3551,1.3454,1.3249,1.3055,1.2759,1.2662,1.2662,1.2467,1.2273,1.2175,1.2078,1.198,1.1785,1.1688,1.159,2.4161,2.4161,2.4161,2.4161,2.4161,2.4161,2.4161,2.4161,2.4161,2.4161,2.4161,2.4161,2.4161,2.4161,2.4161,2.4161,2.4161,2.4161,2.4161,2.4053,2.3746,2.3546,2.3247,2.2946,2.2544,2.2232,2.1827,2.1522,2.1216,2.0814,2.0308,2.0094,1.9998,1.968,1.9583,1.948,1.9279,1.9078,1.8862,1.8764,1.8548,1.8325,1.822,1.808,1.7791,1.7646,1.7605,1.7286,1.7218,1.7015,1.6988,1.6807,1.6754,1.668,1.666,1.6453,1.644,1.6373,1.6246,1.6079,1.6039,1.5972,1.5899,1.5743,1.5635,1.5635,1.5547,1.5452,1.5363,1.5172,1.4975,1.4873,1.4682,1.449,1.4394,1.4298,1.4298,1.4298,1.4298,1.4298,1.4298,1.4298,1.4298,1.4298,1.4298,1.4298,1.4298,1.4298,1.4298,1.4298,1.4298,1.4298,1.4298,1.4298,1.4298,1.4298,1.431,1.4226,1.4124,1.4022,1.3943,1.375,1.3545,1.3249,1.305,1.2953,1.2861,1.2759,1.2565,1.2467,1.2473,1.237,1.2175,1.198,1.1878,2.4223,2.4161,2.4161,2.4161,2.4161,2.4161,2.4161,2.4161,2.4161,2.4161,2.4161,2.4161,2.4161,2.4161,2.4161,2.4161,2.4161,2.4161,2.4161,2.4161,2.3854,2.3646,2.3447,2.3147,2.2745,2.2232,2.1937,2.1742,2.1224,2.0917,2.0617,2.0522,2.03,1.9983,1.9776,1.968,1.948,1.9376,1.9071,1.8974,1.8862,1.8646,1.8422,1.8422,1.8401,1.829,1.8297,1.815,1.7893,1.7702,1.7463,1.715,1.7049,1.686,1.6827,1.6754,1.6747,1.666,1.6553,1.64,1.6279,1.6172,1.6032,1.5912,1.577,1.5737,1.5642,1.5642,1.5553,1.5452,1.5261,1.4975,1.479,1.4592,1.449,1.4394,1.4298,1.4298,1.4298,1.4298,1.4298,1.4298,1.4298,1.4298,1.4298,1.4298,1.4298,1.4298,1.4298,1.4298,1.4298,1.4298,1.4298,1.4298,1.4298,1.4298,1.4298,1.4304,1.4304,1.4208,1.4027,1.3931,1.3835,1.3539,1.3346,1.3249,1.3147,1.2953,1.2856,1.2764,1.2764,1.2759,1.257,1.2396,1.217,2.3877,2.4251,2.4161,2.4161,2.4161,2.4161,2.4161,2.4161,2.4161,2.4161,2.4161,2.4161,2.4161,2.4161,2.4161,2.4161,2.4161,2.4161,2.4161,2.4152,2.3954,2.3755,2.3655,2.3256,2.2963,2.2762,2.2468,2.1962,2.1428,2.1113,2.0814,2.0522,2.0403,2.03,1.9983,1.9887,1.968,1.9576,1.9376,1.9175,1.9175,1.8974,1.8764,1.8646,1.8639,1.8527,1.8422,1.8408,1.8283,1.8213,1.8102,1.7956,1.7707,1.7472,1.7248,1.7101,1.7143,1.7056,1.6814,1.668,1.6553,1.6366,1.6199,1.6032,1.5919,1.5858,1.5832,1.5838,1.5737,1.5642,1.5452,1.5172,1.4892,1.4688,1.449,1.4394,1.4298,1.4298,1.4298,1.4298,1.4298,1.4298,1.4298,1.4298,1.4298,1.4298,1.4298,1.4298,1.4298,1.4298,1.4298,1.4298,1.4298,1.4298,1.4298,1.4298,1.4298,1.4298,1.4304,1.4208,1.4208,1.4118,1.3925,1.3835,1.3642,1.3443,1.3346,1.3147,1.305,1.3088,1.3024,1.2954,1.2959,1.2779,1.252,2.3675,2.3895,2.4079,2.4161,2.4161,2.4161,2.4161,2.4161,2.4161,2.4161,2.4161,2.4161,2.4161,2.4161,2.4161,2.4161,2.4161,2.4161,2.4161,2.4152,2.4053,2.3954,2.3664,2.3473,2.3164,2.2963,2.2569,2.2055,2.1522,2.1318,2.1019,2.0822,2.0719,2.0514,2.0308,2.0101,2.0005,1.9879,1.9606,1.9494,1.9502,1.9182,1.9078,1.8966,1.8959,1.8736,1.8743,1.8743,1.8646,1.8534,1.8408,1.8297,1.8171,1.806,1.79,1.7701,1.7639,1.7482,1.7306,1.7056,1.6935,1.676,1.648,1.6359,1.6126,1.6059,1.5939,1.5925,1.5845,1.573,1.5635,1.5356,1.5172,1.4981,1.4688,1.4496,1.44,1.4298,1.4298,1.4298,1.4298,1.4298,1.4298,1.4298,1.4298,1.4298,1.4298,1.4298,1.4298,1.4298,1.4298,1.4298,1.4298,1.4298,1.4298,1.4298,1.4298,1.4298,1.4298,1.4304,1.4208,1.4214,1.4118,1.4027,1.3835,1.3738,1.3539,1.3494,1.347,1.3537,1.3358,1.3177,1.3183,1.3122,1.3044,2.3529,2.3657,2.4005,2.4161,2.4161,2.4161,2.4161,2.4161,2.4161,2.4161,2.4161,2.4161,2.4161,2.4161,2.4161,2.4161,2.4161,2.4161,2.4161,2.4161,2.4161,2.4053,2.3972,2.3782,2.3364,2.2946,2.2544,2.2139,2.1725,2.1623,2.142,2.1326,2.1138,2.0846,2.0671,2.0599,2.0542,2.0404,2.0098,1.9889,1.9643,1.9494,1.9279,1.9279,1.9272,1.9272,1.9168,1.9071,1.8981,1.8869,1.8646,1.8541,1.8429,1.8325,1.8318,1.815,1.8039,1.8039,1.7887,1.7509,1.74,1.7163,1.6874,1.666,1.642,1.6273,1.6152,1.6052,1.5972,1.5852,1.5757,1.5648,1.5369,1.5077,1.4783,1.4592,1.44,1.4298,1.4298,1.4298,1.4298,1.4298,1.4298,1.4298,1.4298,1.4298,1.4298,1.4298,1.4298,1.4298,1.4298,1.4298,1.4298,1.4298,1.4298,1.4298,1.4298,1.4298,1.4298,1.4298,1.4298,1.4208,1.4214,1.422,1.4124,1.4122,1.398,1.3935,1.3912,1.4027,1.3857,1.3691,1.364,1.3685,1.3571,2.3455,2.4042,2.4134,2.4161,2.4161,2.4161,2.4161,2.4161,2.4161,2.4161,2.4161,2.4161,2.4161,2.4161,2.4161,2.4161,2.4161,2.4161,2.4161,2.4161,2.4161,2.4161,2.4062,2.3881,2.3456,2.3038,2.2736,2.2535,2.2165,2.2055,2.1843,2.1665,2.1374,2.1401,2.1555,2.1377,2.1004,2.0961,2.0695,2.0393,1.9994,1.9799,1.9398,1.9272,1.9272,1.9272,1.9279,1.9279,1.9175,1.9168,1.8966,1.8862,1.8757,1.8639,1.8534,1.8527,1.8429,1.8331,1.8164,1.8011,1.7804,1.7537,1.7252,1.7042,1.6747,1.662,1.6506,1.6413,1.6273,1.5992,1.5836,1.5708,1.5504,1.5089,1.4694,1.4496,1.4298,1.4298,1.4298,1.4298,1.4298,1.4298,1.4298,1.4298,1.4298,1.4298,1.4298,1.4298,1.4298,1.4298,1.4298,1.4298,1.4304,1.4298,1.4298,1.4298,1.4298,1.4298,1.4298,1.4298,1.4298,1.4298,1.431,1.4389,1.4521,1.455,1.4493,1.4424,1.4477,1.4488,1.4303,1.4134,1.4197,1.4162,1.4034]}]]